GEFSGL_prec_meanprecacc_006.txt.gz
Total_Precipitation_Accumulation
0.12 0.14 0.18 0.26 0.31 0.36 0.28 0.19 0.06 0.02 0.01 0.01 0.01 0.01 0.01 0.00 0.01 0.01 0.01 0.03 0.05 0.08 0.06 0.08 0.14 0.13 0.15 0.07 0.04 0.02 0.01 0.01 0.08 0.03 0.01 0.01 0.00 0.00 0.00 0.00 0.00 0.00 0.00
0.04 0.05 0.08 0.15 0.24 0.23 0.13 0.07 0.02 0.01 0.01 0.01 0.01 0.01 0.02 0.02 0.02 0.02 0.01 0.02 0.02 0.04 0.03 0.03 0.09 0.14 0.15 0.08 0.03 0.02 0.01 0.01 0.04 0.01 0.00 0.01 0.00 0.00 0.00 0.00 0.00 0.00 0.00
0.01 0.04 0.05 0.05 0.08 0.07 0.03 0.01 0.00 0.00 0.00 0.01 0.02 0.03 0.04 0.03 0.02 0.01 0.01 0.02 0.02 0.02 0.02 0.03 0.05 0.08 0.16 0.11 0.02 0.00 0.01 0.04 0.04 0.02 0.00 0.00 0.00 0.00 0.00 0.00 0.00 0.00 0.00
0.02 0.03 0.03 0.03 0.02 0.01 0.01 0.00 0.00 0.00 0.01 0.03 0.06 0.08 0.06 0.04 0.04 0.02 0.03 0.03 0.01 0.01 0.01 0.03 0.02 0.02 0.04 0.04 0.01 0.00 0.03 0.03 0.07 0.04 0.01 0.00 0.00 0.00 0.00 0.00 0.00 0.00 0.00
0.01 0.01 0.01 0.01 0.01 0.00 0.00 0.00 0.00 0.00 0.01 0.04 0.07 0.15 0.16 0.14 0.10 0.12 0.07 0.09 0.05 0.03 0.04 0.06 0.05 0.11 0.25 0.22 0.12 0.07 0.08 0.05 0.07 0.06 0.02 0.00 0.00 0.00 0.00 0.00 0.00 0.00 0.00
0.01 0.01 0.01 0.01 0.00 0.00 0.00 0.00 0.00 0.01 0.01 0.03 0.07 0.14 0.19 0.16 0.38 0.38 0.23 0.13 0.07 0.05 0.04 0.04 0.04 0.09 0.25 0.40 0.39 0.28 0.21 0.19 0.10 0.05 0.02 0.01 0.00 0.00 0.00 0.00 0.00 0.00 0.00
0.01 0.01 0.01 0.00 0.00 0.00 0.00 0.00 0.00 0.02 0.03 0.03 0.05 0.05 0.09 0.18 0.21 0.17 0.13 0.06 0.07 0.06 0.02 0.01 0.01 0.02 0.05 0.08 0.14 0.15 0.23 0.32 0.23 0.10 0.02 0.01 0.00 0.00 0.00 0.00 0.00 0.00 0.00
0.02 0.01 0.01 0.00 0.00 0.00 0.00 0.00 0.00 0.01 0.02 0.03 0.04 0.03 0.03 0.05 0.04 0.05 0.06 0.03 0.03 0.03 0.01 0.00 0.00 0.01 0.01 0.02 0.03 0.03 0.06 0.12 0.13 0.10 0.03 0.02 0.02 0.00 0.00 0.00 0.00 0.00 0.00
0.03 0.02 0.02 0.02 0.02 0.02 0.01 0.01 0.00 0.00 0.01 0.02 0.03 0.08 0.09 0.06 0.03 0.02 0.03 0.05 0.04 0.02 0.01 0.00 0.00 0.02 0.04 0.07 0.07 0.05 0.08 0.07 0.06 0.05 0.08 0.11 0.08 0.01 0.00 0.00 0.00 0.00 0.00
0.05 0.05 0.05 0.04 0.04 0.03 0.02 0.01 0.01 0.01 0.01 0.01 0.01 0.05 0.09 0.08 0.03 0.01 0.02 0.06 0.06 0.04 0.02 0.01 0.00 0.03 0.11 0.13 0.15 0.15 0.18 0.09 0.04 0.02 0.02 0.04 0.03 0.00 0.00 0.00 0.00 0.00 0.00
0.04 0.04 0.04 0.04 0.05 0.04 0.02 0.02 0.04 0.05 0.04 0.02 0.04 0.04 0.05 0.07 0.05 0.01 0.01 0.03 0.03 0.02 0.02 0.02 0.01 0.02 0.09 0.17 0.20 0.25 0.27 0.15 0.03 0.01 0.00 0.00 0.00 0.00 0.00 0.00 0.00 0.00 0.00
0.03 0.04 0.05 0.07 0.07 0.04 0.04 0.05 0.06 0.07 0.07 0.08 0.09 0.11 0.12 0.09 0.07 0.05 0.01 0.00 0.00 0.00 0.02 0.05 0.05 0.05 0.06 0.10 0.13 0.19 0.32 0.24 0.06 0.01 0.00 0.00 0.00 0.00 0.00 0.00 0.00 0.00 0.00
0.02 0.04 0.06 0.07 0.06 0.04 0.05 0.10 0.12 0.12 0.08 0.07 0.08 0.13 0.14 0.12 0.10 0.09 0.03 0.00 0.00 0.00 0.02 0.07 0.10 0.10 0.08 0.06 0.08 0.12 0.21 0.24 0.11 0.04 0.01 0.00 0.00 0.00 0.00 0.00 0.00 0.00 0.00
0.01 0.02 0.04 0.04 0.02 0.02 0.05 0.09 0.12 0.14 0.14 0.15 0.15 0.17 0.22 0.19 0.13 0.11 0.04 0.01 0.00 0.00 0.01 0.03 0.06 0.10 0.11 0.08 0.06 0.07 0.09 0.10 0.06 0.04 0.01 0.00 0.00 0.00 0.00 0.00 0.00 0.00 0.00
0.01 0.01 0.01 0.02 0.02 0.01 0.04 0.08 0.10 0.13 0.12 0.14 0.19 0.23 0.23 0.18 0.15 0.18 0.14 0.06 0.02 0.00 0.00 0.01 0.03 0.03 0.05 0.07 0.06 0.04 0.03 0.02 0.01 0.01 0.00 0.00 0.00 0.00 0.00 0.00 0.00 0.00 0.00
0.06 0.02 0.02 0.02 0.04 0.04 0.04 0.04 0.02 0.04 0.02 0.02 0.03 0.06 0.09 0.08 0.07 0.06 0.10 0.13 0.09 0.03 0.01 0.03 0.03 0.03 0.03 0.04 0.04 0.03 0.02 0.01 0.00 0.00 0.00 0.00 0.00 0.00 0.00 0.00 0.00 0.00 0.00
0.14 0.11 0.06 0.04 0.04 0.04 0.03 0.02 0.02 0.01 0.00 0.00 0.00 0.00 0.01 0.01 0.00 0.00 0.01 0.04 0.08 0.06 0.03 0.03 0.02 0.02 0.02 0.02 0.02 0.02 0.01 0.01 0.00 0.00 0.00 0.00 0.00 0.00 0.00 0.00 0.00 0.00 0.00
0.03 0.03 0.04 0.06 0.03 0.02 0.04 0.08 0.09 0.07 0.05 0.03 0.01 0.00 0.00 0.00 0.00 0.00 0.00 0.01 0.03 0.04 0.04 0.06 0.04 0.03 0.02 0.01 0.01 0.01 0.00 0.00 0.00 0.00 0.00 0.00 0.00 0.00 0.00 0.00 0.00 0.00 0.00
0.00 0.01 0.07 0.08 0.03 0.02 0.05 0.11 0.10 0.08 0.06 0.05 0.01 0.00 0.00 0.00 0.00 0.00 0.01 0.01 0.02 0.02 0.03 0.09 0.09 0.07 0.05 0.03 0.02 0.02 0.01 0.00 0.00 0.00 0.00 0.00 0.00 0.00 0.00 0.00 0.00 0.00 0.00
0.02 0.01 0.08 0.12 0.04 0.01 0.02 0.02 0.02 0.02 0.01 0.01 0.01 0.01 0.00 0.00 0.01 0.01 0.01 0.01 0.01 0.01 0.02 0.05 0.06 0.07 0.07 0.05 0.03 0.02 0.01 0.01 0.00 0.00 0.00 0.00 0.00 0.00 0.00 0.00 0.00 0.00 0.00
0.05 0.02 0.02 0.12 0.12 0.05 0.02 0.02 0.02 0.04 0.03 0.03 0.02 0.00 0.00 0.01 0.02 0.02 0.01 0.01 0.00 0.01 0.01 0.02 0.03 0.07 0.05 0.03 0.02 0.02 0.01 0.01 0.00 0.00 0.00 0.00 0.00 0.00 0.00 0.00 0.00 0.00 0.00
0.02 0.02 0.02 0.09 0.13 0.07 0.03 0.02 0.01 0.02 0.02 0.03 0.02 0.00 0.00 0.01 0.01 0.02 0.02 0.02 0.02 0.01 0.01 0.02 0.04 0.07 0.08 0.05 0.04 0.03 0.03 0.01 0.01 0.01 0.00 0.00 0.00 0.00 0.00 0.00 0.00 0.00 0.00
0.01 0.01 0.02 0.05 0.04 0.02 0.02 0.02 0.01 0.02 0.01 0.01 0.01 0.00 0.00 0.00 0.00 0.01 0.01 0.04 0.05 0.04 0.02 0.02 0.04 0.08 0.10 0.10 0.09 0.09 0.07 0.05 0.03 0.02 0.02 0.02 0.02 0.02 0.01 0.01 0.00 0.00 0.00
0.00 0.00 0.01 0.01 0.01 0.02 0.03 0.03 0.02 0.02 0.03 0.01 0.01 0.00 0.00 0.00 0.00 0.00 0.01 0.02 0.05 0.05 0.03 0.03 0.04 0.04 0.05 0.07 0.10 0.10 0.08 0.05 0.02 0.01 0.01 0.02 0.02 0.02 0.01 0.01 0.00 0.00 0.00
0.02 0.01 0.01 0.01 0.02 0.02 0.02 0.03 0.03 0.02 0.04 0.03 0.02 0.01 0.00 0.00 0.01 0.01 0.01 0.01 0.02 0.02 0.01 0.02 0.04 0.05 0.04 0.03 0.05 0.06 0.07 0.05 0.02 0.01 0.00 0.00 0.00 0.00 0.00 0.00 0.00 0.00 0.00
0.01 0.01 0.01 0.02 0.03 0.02 0.03 0.03 0.02 0.02 0.03 0.03 0.02 0.02 0.02 0.01 0.01 0.01 0.01 0.01 0.01 0.01 0.02 0.02 0.03 0.05 0.05 0.05 0.04 0.03 0.03 0.03 0.02 0.02 0.01 0.01 0.01 0.01 0.00 0.00 0.00 0.00 0.00

GEFSGL_prec_meanprecacc_012.txt.gz
Total_Precipitation_Accumulation
0.17 0.19 0.22 0.30 0.38 0.59 0.78 0.66 0.45 0.35 0.30 0.26 0.17 0.12 0.10 0.09 0.08 0.08 0.07 0.08 0.13 0.19 0.16 0.15 0.19 0.19 0.25 0.19 0.19 0.16 0.09 0.04 0.09 0.03 0.01 0.01 0.00 0.00 0.00 0.00 0.00 0.00 0.00
0.12 0.09 0.11 0.20 0.32 0.36 0.38 0.43 0.35 0.21 0.14 0.15 0.12 0.08 0.08 0.08 0.07 0.06 0.06 0.07 0.06 0.08 0.07 0.05 0.11 0.17 0.22 0.20 0.19 0.18 0.12 0.06 0.05 0.02 0.01 0.01 0.00 0.00 0.00 0.00 0.00 0.00 0.00
0.04 0.06 0.07 0.08 0.12 0.12 0.09 0.08 0.10 0.10 0.07 0.07 0.08 0.08 0.08 0.07 0.07 0.05 0.06 0.07 0.06 0.05 0.05 0.05 0.07 0.12 0.25 0.28 0.19 0.16 0.14 0.11 0.07 0.02 0.00 0.00 0.00 0.00 0.00 0.00 0.00 0.00 0.00
0.02 0.04 0.05 0.05 0.04 0.04 0.03 0.02 0.03 0.03 0.03 0.05 0.08 0.10 0.08 0.08 0.10 0.09 0.11 0.13 0.10 0.08 0.07 0.07 0.06 0.08 0.13 0.23 0.21 0.17 0.16 0.11 0.11 0.05 0.01 0.00 0.00 0.00 0.00 0.00 0.00 0.00 0.00
0.02 0.02 0.03 0.04 0.04 0.03 0.03 0.02 0.02 0.01 0.02 0.05 0.08 0.15 0.17 0.16 0.15 0.20 0.20 0.25 0.20 0.14 0.11 0.13 0.11 0.15 0.30 0.33 0.27 0.22 0.20 0.13 0.12 0.08 0.02 0.00 0.00 0.00 0.00 0.00 0.00 0.00 0.00
0.04 0.04 0.06 0.06 0.04 0.03 0.02 0.02 0.01 0.01 0.02 0.03 0.07 0.14 0.20 0.17 0.42 0.45 0.32 0.30 0.26 0.17 0.12 0.13 0.11 0.13 0.28 0.47 0.48 0.40 0.35 0.33 0.23 0.12 0.04 0.01 0.00 0.00 0.00 0.00 0.00 0.00 0.00
0.06 0.05 0.06 0.05 0.03 0.03 0.02 0.01 0.01 0.02 0.03 0.03 0.05 0.05 0.09 0.19 0.24 0.21 0.18 0.16 0.22 0.19 0.13 0.10 0.07 0.06 0.09 0.15 0.21 0.24 0.37 0.54 0.54 0.36 0.13 0.03 0.01 0.00 0.00 0.00 0.00 0.00 0.00
0.06 0.04 0.06 0.06 0.05 0.04 0.02 0.01 0.00 0.01 0.02 0.03 0.04 0.03 0.04 0.07 0.06 0.08 0.10 0.08 0.13 0.14 0.12 0.09 0.06 0.05 0.04 0.06 0.10 0.17 0.23 0.34 0.44 0.45 0.27 0.12 0.05 0.01 0.00 0.00 0.00 0.00 0.00
0.08 0.07 0.09 0.10 0.09 0.07 0.04 0.03 0.02 0.01 0.01 0.02 0.03 0.09 0.10 0.07 0.04 0.03 0.05 0.08 0.10 0.09 0.07 0.06 0.04 0.05 0.05 0.08 0.09 0.10 0.16 0.19 0.22 0.24 0.30 0.29 0.17 0.03 0.00 0.00 0.00 0.00 0.00
0.11 0.13 0.16 0.16 0.16 0.13 0.10 0.08 0.07 0.05 0.02 0.01 0.01 0.06 0.10 0.08 0.04 0.02 0.02 0.07 0.09 0.08 0.07 0.07 0.06 0.06 0.12 0.13 0.16 0.16 0.21 0.14 0.12 0.12 0.14 0.16 0.12 0.03 0.00 0.00 0.00 0.00 0.00
0.08 0.12 0.17 0.20 0.23 0.24 0.22 0.19 0.18 0.13 0.07 0.03 0.04 0.05 0.05 0.07 0.06 0.02 0.01 0.04 0.06 0.06 0.06 0.06 0.05 0.04 0.10 0.17 0.20 0.26 0.30 0.21 0.12 0.10 0.10 0.09 0.05 0.02 0.00 0.00 0.00 0.00 0.00
0.05 0.09 0.15 0.22 0.26 0.29 0.30 0.25 0.19 0.15 0.10 0.08 0.09 0.11 0.12 0.09 0.09 0.07 0.02 0.03 0.04 0.04 0.05 0.07 0.06 0.07 0.07 0.10 0.13 0.21 0.39 0.36 0.17 0.09 0.08 0.07 0.04 0.01 0.00 0.00 0.00 0.00 0.00
0.02 0.05 0.10 0.14 0.17 0.18 0.18 0.20 0.19 0.17 0.10 0.08 0.09 0.14 0.15 0.12 0.12 0.13 0.04 0.01 0.01 0.02 0.03 0.08 0.11 0.11 0.09 0.06 0.08 0.15 0.31 0.42 0.29 0.15 0.07 0.05 0.05 0.03 0.01 0.00 0.00 0.00 0.00
0.01 0.02 0.04 0.05 0.05 0.06 0.10 0.14 0.15 0.16 0.15 0.16 0.16 0.19 0.24 0.19 0.14 0.12 0.05 0.01 0.00 0.01 0.01 0.03 0.07 0.11 0.11 0.09 0.08 0.11 0.21 0.34 0.34 0.23 0.13 0.07 0.06 0.04 0.02 0.00 0.00 0.00 0.00
0.01 0.01 0.01 0.03 0.04 0.05 0.08 0.11 0.12 0.15 0.14 0.16 0.21 0.25 0.24 0.20 0.17 0.21 0.16 0.08 0.02 0.01 0.00 0.02 0.03 0.04 0.06 0.09 0.09 0.09 0.14 0.24 0.27 0.22 0.17 0.10 0.06 0.05 0.03 0.01 0.00 0.00 0.00
0.06 0.02 0.02 0.02 0.04 0.06 0.07 0.06 0.04 0.05 0.03 0.03 0.05 0.09 0.12 0.11 0.11 0.11 0.14 0.16 0.11 0.04 0.01 0.03 0.03 0.03 0.04 0.05 0.06 0.08 0.10 0.14 0.19 0.19 0.17 0.13 0.08 0.06 0.04 0.02 0.00 0.00 0.00
0.14 0.11 0.06 0.04 0.04 0.04 0.04 0.03 0.02 0.01 0.00 0.01 0.01 0.02 0.04 0.04 0.04 0.03 0.03 0.06 0.10 0.07 0.04 0.03 0.02 0.02 0.02 0.03 0.04 0.05 0.06 0.10 0.14 0.15 0.14 0.12 0.09 0.06 0.04 0.02 0.01 0.00 0.00
0.03 0.03 0.04 0.07 0.04 0.03 0.05 0.09 0.10 0.07 0.05 0.03 0.01 0.00 0.01 0.01 0.02 0.01 0.01 0.01 0.03 0.04 0.05 0.06 0.05 0.03 0.02 0.02 0.02 0.03 0.04 0.06 0.09 0.11 0.11 0.09 0.07 0.05 0.03 0.01 0.00 0.00 0.00
0.00 0.01 0.07 0.09 0.04 0.02 0.06 0.13 0.13 0.10 0.09 0.06 0.02 0.00 0.00 0.00 0.00 0.01 0.01 0.01 0.02 0.02 0.04 0.09 0.10 0.08 0.06 0.03 0.02 0.02 0.02 0.03 0.04 0.05 0.06 0.06 0.05 0.03 0.01 0.01 0.00 0.00 0.00
0.02 0.01 0.08 0.13 0.05 0.02 0.02 0.03 0.03 0.04 0.03 0.02 0.01 0.01 0.00 0.00 0.01 0.01 0.01 0.01 0.02 0.02 0.03 0.06 0.08 0.10 0.09 0.07 0.06 0.04 0.03 0.03 0.03 0.02 0.03 0.03 0.02 0.02 0.01 0.00 0.00 0.00 0.00
0.05 0.02 0.02 0.12 0.12 0.05 0.03 0.02 0.02 0.04 0.03 0.03 0.02 0.01 0.00 0.01 0.02 0.02 0.01 0.01 0.00 0.01 0.02 0.03 0.05 0.09 0.08 0.07 0.07 0.06 0.04 0.03 0.03 0.03 0.03 0.03 0.02 0.02 0.02 0.01 0.00 0.00 0.00
0.02 0.02 0.02 0.09 0.13 0.08 0.03 0.02 0.01 0.02 0.02 0.03 0.02 0.00 0.00 0.01 0.02 0.03 0.02 0.02 0.02 0.02 0.02 0.02 0.05 0.08 0.09 0.07 0.06 0.06 0.06 0.05 0.03 0.03 0.04 0.05 0.04 0.04 0.03 0.02 0.02 0.01 0.01
0.01 0.01 0.02 0.05 0.05 0.02 0.02 0.02 0.02 0.02 0.01 0.01 0.01 0.00 0.00 0.00 0.00 0.01 0.02 0.04 0.07 0.08 0.06 0.04 0.06 0.09 0.12 0.11 0.10 0.10 0.09 0.08 0.06 0.04 0.04 0.05 0.05 0.05 0.04 0.03 0.03 0.02 0.02
0.01 0.00 0.01 0.02 0.02 0.02 0.03 0.03 0.02 0.02 0.03 0.01 0.01 0.00 0.00 0.00 0.00 0.01 0.01 0.03 0.07 0.08 0.06 0.06 0.06 0.07 0.08 0.11 0.13 0.12 0.11 0.10 0.07 0.05 0.04 0.04 0.04 0.04 0.03 0.03 0.03 0.02 0.02
0.02 0.01 0.01 0.01 0.02 0.03 0.02 0.03 0.03 0.03 0.04 0.04 0.02 0.01 0.00 0.00 0.01 0.01 0.01 0.02 0.04 0.04 0.04 0.04 0.06 0.09 0.09 0.09 0.10 0.12 0.16 0.15 0.10 0.06 0.05 0.04 0.04 0.04 0.03 0.04 0.04 0.04 0.03
0.02 0.01 0.01 0.02 0.03 0.03 0.03 0.03 0.03 0.03 0.03 0.04 0.03 0.02 0.02 0.02 0.02 0.01 0.01 0.01 0.02 0.03 0.05 0.06 0.07 0.10 0.12 0.11 0.10 0.09 0.09 0.09 0.09 0.08 0.06 0.05 0.04 0.04 0.03 0.03 0.03 0.03 0.03

GEFSGL_prec_meanprecacc_018.txt.gz
Total_Precipitation_Accumulation
0.18 0.19 0.22 0.30 0.39 0.60 0.79 0.67 0.46 0.37 0.33 0.30 0.25 0.24 0.25 0.24 0.26 0.26 0.22 0.22 0.25 0.29 0.25 0.22 0.26 0.26 0.33 0.27 0.24 0.20 0.11 0.06 0.09 0.03 0.01 0.01 0.00 0.00 0.00 0.00 0.00 0.00 0.00
0.12 0.09 0.11 0.20 0.32 0.37 0.40 0.45 0.36 0.22 0.16 0.18 0.16 0.14 0.16 0.19 0.19 0.19 0.19 0.19 0.17 0.16 0.14 0.13 0.19 0.24 0.27 0.24 0.22 0.20 0.15 0.09 0.07 0.03 0.01 0.01 0.00 0.00 0.00 0.00 0.00 0.00 0.00
0.05 0.07 0.08 0.08 0.12 0.13 0.10 0.09 0.11 0.11 0.08 0.09 0.12 0.13 0.15 0.16 0.16 0.15 0.17 0.18 0.16 0.13 0.12 0.11 0.13 0.18 0.29 0.31 0.21 0.18 0.17 0.15 0.10 0.05 0.02 0.01 0.00 0.00 0.00 0.00 0.00 0.00 0.00
0.02 0.04 0.05 0.05 0.05 0.04 0.03 0.03 0.04 0.04 0.04 0.06 0.10 0.14 0.13 0.14 0.16 0.16 0.18 0.21 0.18 0.16 0.14 0.13 0.12 0.11 0.15 0.25 0.22 0.18 0.19 0.15 0.15 0.09 0.03 0.01 0.00 0.00 0.00 0.00 0.00 0.00 0.00
0.02 0.02 0.03 0.04 0.05 0.04 0.03 0.02 0.02 0.03 0.03 0.06 0.09 0.17 0.19 0.20 0.19 0.24 0.25 0.30 0.25 0.19 0.17 0.17 0.16 0.18 0.33 0.35 0.28 0.24 0.23 0.16 0.17 0.12 0.04 0.01 0.00 0.00 0.00 0.00 0.00 0.00 0.00
0.05 0.04 0.07 0.07 0.05 0.04 0.03 0.03 0.03 0.03 0.04 0.05 0.09 0.16 0.21 0.19 0.45 0.48 0.35 0.32 0.28 0.20 0.15 0.15 0.15 0.17 0.31 0.49 0.51 0.42 0.37 0.36 0.26 0.15 0.06 0.02 0.00 0.00 0.00 0.00 0.00 0.00 0.00
0.08 0.07 0.09 0.08 0.07 0.08 0.08 0.05 0.04 0.06 0.06 0.05 0.06 0.06 0.10 0.20 0.25 0.22 0.19 0.17 0.23 0.20 0.15 0.12 0.10 0.10 0.14 0.19 0.25 0.26 0.41 0.59 0.59 0.40 0.17 0.06 0.03 0.01 0.00 0.00 0.00 0.00 0.00
0.11 0.10 0.12 0.12 0.13 0.15 0.12 0.08 0.07 0.06 0.05 0.05 0.05 0.04 0.04 0.07 0.07 0.09 0.11 0.09 0.13 0.15 0.13 0.11 0.10 0.10 0.11 0.14 0.18 0.23 0.29 0.40 0.54 0.52 0.33 0.19 0.11 0.04 0.01 0.00 0.00 0.00 0.00
0.11 0.13 0.17 0.19 0.20 0.18 0.15 0.14 0.12 0.07 0.06 0.05 0.05 0.10 0.10 0.07 0.04 0.03 0.05 0.09 0.11 0.11 0.09 0.10 0.10 0.11 0.15 0.19 0.17 0.16 0.23 0.27 0.39 0.41 0.44 0.37 0.22 0.05 0.01 0.00 0.00 0.00 0.00
0.13 0.17 0.22 0.24 0.26 0.26 0.27 0.25 0.21 0.14 0.08 0.04 0.02 0.06 0.10 0.08 0.04 0.02 0.02 0.07 0.10 0.10 0.10 0.11 0.14 0.16 0.22 0.22 0.22 0.21 0.25 0.19 0.21 0.24 0.25 0.24 0.16 0.05 0.01 0.01 0.00 0.00 0.00
0.09 0.14 0.20 0.26 0.32 0.37 0.39 0.37 0.35 0.28 0.20 0.11 0.08 0.06 0.06 0.07 0.06 0.02 0.02 0.04 0.06 0.08 0.10 0.13 0.13 0.15 0.21 0.27 0.27 0.31 0.35 0.26 0.17 0.19 0.22 0.18 0.10 0.04 0.02 0.01 0.00 0.00 0.00
0.05 0.10 0.16 0.24 0.31 0.38 0.43 0.42 0.39 0.36 0.30 0.24 0.18 0.15 0.13 0.10 0.09 0.07 0.03 0.03 0.04 0.05 0.09 0.12 0.12 0.14 0.15 0.19 0.20 0.26 0.43 0.39 0.18 0.12 0.13 0.14 0.09 0.05 0.03 0.02 0.01 0.01 0.00
0.02 0.05 0.10 0.14 0.18 0.22 0.26 0.32 0.37 0.38 0.33 0.24 0.19 0.19 0.17 0.13 0.12 0.13 0.05 0.03 0.03 0.05 0.06 0.11 0.15 0.15 0.14 0.12 0.14 0.19 0.34 0.44 0.30 0.16 0.08 0.09 0.12 0.11 0.08 0.04 0.02 0.01 0.00
0.01 0.02 0.04 0.05 0.05 0.08 0.15 0.22 0.27 0.30 0.30 0.28 0.22 0.21 0.25 0.20 0.14 0.12 0.06 0.03 0.01 0.01 0.03 0.06 0.09 0.13 0.14 0.12 0.12 0.14 0.24 0.36 0.36 0.24 0.14 0.10 0.12 0.12 0.09 0.06 0.04 0.02 0.01
0.01 0.01 0.01 0.03 0.04 0.06 0.12 0.18 0.21 0.24 0.21 0.20 0.23 0.26 0.24 0.20 0.18 0.22 0.18 0.09 0.04 0.02 0.01 0.03 0.04 0.05 0.08 0.11 0.12 0.11 0.16 0.25 0.29 0.23 0.19 0.14 0.12 0.12 0.10 0.08 0.06 0.03 0.01
0.06 0.02 0.02 0.02 0.04 0.06 0.08 0.09 0.08 0.10 0.07 0.05 0.06 0.09 0.13 0.12 0.12 0.13 0.16 0.18 0.13 0.06 0.04 0.05 0.05 0.04 0.05 0.06 0.08 0.08 0.10 0.15 0.21 0.22 0.22 0.19 0.17 0.18 0.18 0.16 0.13 0.09 0.06
0.14 0.11 0.06 0.04 0.04 0.04 0.04 0.04 0.04 0.03 0.02 0.02 0.02 0.04 0.07 0.09 0.09 0.09 0.09 0.11 0.13 0.11 0.07 0.05 0.04 0.03 0.03 0.03 0.05 0.05 0.06 0.11 0.17 0.21 0.22 0.23 0.22 0.23 0.26 0.28 0.25 0.20 0.16
0.03 0.03 0.04 0.07 0.04 0.03 0.05 0.09 0.10 0.08 0.05 0.04 0.01 0.02 0.03 0.05 0.06 0.06 0.06 0.06 0.06 0.07 0.06 0.07 0.05 0.03 0.02 0.02 0.02 0.03 0.04 0.06 0.12 0.18 0.21 0.23 0.25 0.27 0.28 0.31 0.33 0.30 0.24
0.00 0.01 0.07 0.09 0.04 0.02 0.06 0.13 0.13 0.10 0.09 0.06 0.02 0.00 0.01 0.01 0.02 0.02 0.03 0.03 0.03 0.03 0.04 0.10 0.11 0.08 0.06 0.03 0.03 0.03 0.02 0.03 0.05 0.10 0.15 0.19 0.22 0.25 0.28 0.29 0.29 0.28 0.23
0.02 0.01 0.08 0.13 0.05 0.02 0.02 0.03 0.03 0.04 0.03 0.02 0.01 0.01 0.00 0.00 0.01 0.01 0.01 0.02 0.02 0.02 0.03 0.06 0.08 0.10 0.09 0.07 0.06 0.04 0.03 0.03 0.03 0.04 0.08 0.12 0.15 0.17 0.18 0.21 0.23 0.20 0.16
0.05 0.02 0.02 0.12 0.12 0.05 0.03 0.02 0.02 0.04 0.03 0.03 0.02 0.01 0.01 0.01 0.02 0.02 0.01 0.01 0.00 0.01 0.02 0.03 0.05 0.09 0.08 0.07 0.07 0.06 0.04 0.04 0.04 0.04 0.05 0.05 0.07 0.10 0.11 0.10 0.11 0.11 0.10
0.02 0.02 0.02 0.09 0.13 0.08 0.03 0.02 0.01 0.02 0.03 0.03 0.02 0.00 0.01 0.01 0.02 0.03 0.02 0.02 0.02 0.02 0.02 0.02 0.05 0.08 0.09 0.07 0.06 0.07 0.07 0.05 0.04 0.04 0.06 0.06 0.06 0.05 0.06 0.06 0.06 0.06 0.05
0.01 0.01 0.02 0.05 0.05 0.02 0.02 0.02 0.02 0.02 0.01 0.01 0.01 0.00 0.00 0.00 0.00 0.01 0.02 0.05 0.07 0.08 0.06 0.04 0.06 0.10 0.13 0.12 0.11 0.11 0.11 0.09 0.08 0.06 0.06 0.07 0.08 0.08 0.06 0.05 0.05 0.04 0.04
0.01 0.00 0.01 0.02 0.02 0.02 0.03 0.03 0.02 0.02 0.03 0.01 0.01 0.00 0.00 0.00 0.00 0.01 0.01 0.03 0.07 0.09 0.07 0.06 0.07 0.08 0.11 0.14 0.15 0.15 0.14 0.12 0.09 0.07 0.06 0.06 0.06 0.06 0.06 0.05 0.05 0.04 0.04
0.02 0.01 0.01 0.01 0.02 0.03 0.02 0.03 0.03 0.03 0.04 0.04 0.02 0.01 0.00 0.00 0.01 0.01 0.01 0.02 0.04 0.05 0.04 0.05 0.07 0.10 0.13 0.14 0.15 0.17 0.21 0.20 0.14 0.10 0.08 0.07 0.06 0.06 0.06 0.06 0.07 0.07 0.07
0.02 0.01 0.01 0.03 0.03 0.03 0.03 0.03 0.03 0.03 0.03 0.04 0.03 0.02 0.02 0.02 0.02 0.01 0.01 0.01 0.02 0.03 0.05 0.06 0.08 0.11 0.13 0.13 0.12 0.12 0.13 0.12 0.12 0.11 0.08 0.07 0.07 0.07 0.08 0.09 0.10 0.11 0.12

GEFSGL_prec_meanprecacc_024.txt.gz
Total_Precipitation_Accumulation
0.18 0.19 0.22 0.30 0.40 0.61 0.80 0.70 0.47 0.38 0.35 0.34 0.29 0.28 0.32 0.35 0.42 0.49 0.49 0.50 0.50 0.52 0.42 0.35 0.36 0.33 0.38 0.31 0.28 0.22 0.13 0.08 0.15 0.08 0.01 0.01 0.00 0.00 0.00 0.00 0.00 0.00 0.00
0.12 0.09 0.11 0.20 0.32 0.37 0.41 0.46 0.37 0.23 0.17 0.21 0.20 0.18 0.22 0.28 0.31 0.34 0.40 0.44 0.40 0.38 0.32 0.26 0.29 0.31 0.31 0.28 0.25 0.22 0.16 0.10 0.11 0.08 0.02 0.01 0.00 0.00 0.00 0.00 0.00 0.00 0.00
0.05 0.07 0.08 0.08 0.12 0.13 0.10 0.09 0.12 0.11 0.09 0.11 0.15 0.18 0.21 0.23 0.26 0.27 0.31 0.36 0.35 0.31 0.27 0.22 0.22 0.25 0.34 0.35 0.24 0.20 0.19 0.16 0.12 0.10 0.04 0.01 0.00 0.00 0.00 0.00 0.00 0.00 0.00
0.02 0.04 0.05 0.05 0.05 0.05 0.04 0.03 0.04 0.05 0.05 0.08 0.12 0.18 0.19 0.19 0.23 0.25 0.28 0.32 0.30 0.28 0.26 0.23 0.20 0.17 0.21 0.32 0.28 0.23 0.24 0.19 0.19 0.13 0.05 0.01 0.00 0.00 0.00 0.00 0.00 0.00 0.00
0.02 0.02 0.03 0.04 0.05 0.05 0.05 0.03 0.04 0.05 0.05 0.07 0.11 0.19 0.22 0.23 0.22 0.27 0.29 0.35 0.32 0.28 0.25 0.25 0.23 0.25 0.38 0.40 0.33 0.30 0.29 0.21 0.20 0.15 0.06 0.02 0.00 0.00 0.00 0.00 0.00 0.00 0.00
0.05 0.05 0.07 0.07 0.05 0.05 0.05 0.05 0.04 0.06 0.05 0.06 0.10 0.17 0.23 0.21 0.47 0.50 0.37 0.35 0.33 0.26 0.22 0.21 0.19 0.21 0.35 0.52 0.53 0.47 0.43 0.41 0.31 0.19 0.09 0.03 0.01 0.01 0.00 0.00 0.00 0.00 0.00
0.10 0.09 0.10 0.09 0.08 0.10 0.12 0.09 0.08 0.11 0.10 0.08 0.07 0.08 0.12 0.23 0.27 0.23 0.20 0.20 0.27 0.24 0.19 0.16 0.13 0.12 0.17 0.24 0.30 0.30 0.43 0.61 0.63 0.46 0.23 0.11 0.10 0.05 0.02 0.01 0.00 0.00 0.00
0.13 0.13 0.15 0.14 0.14 0.17 0.15 0.13 0.12 0.11 0.09 0.09 0.09 0.07 0.09 0.11 0.09 0.10 0.12 0.11 0.16 0.18 0.15 0.13 0.12 0.12 0.13 0.19 0.27 0.31 0.35 0.44 0.59 0.55 0.38 0.28 0.21 0.11 0.03 0.01 0.01 0.00 0.00
0.13 0.16 0.20 0.21 0.22 0.21 0.19 0.20 0.19 0.13 0.12 0.11 0.10 0.14 0.15 0.11 0.06 0.04 0.06 0.11 0.13 0.13 0.11 0.11 0.11 0.13 0.18 0.23 0.23 0.25 0.31 0.35 0.50 0.50 0.51 0.44 0.26 0.08 0.02 0.00 0.00 0.00 0.00
0.14 0.18 0.24 0.26 0.28 0.29 0.32 0.32 0.29 0.22 0.17 0.13 0.08 0.11 0.14 0.11 0.06 0.02 0.03 0.09 0.11 0.11 0.11 0.12 0.15 0.18 0.26 0.28 0.27 0.29 0.35 0.29 0.28 0.32 0.32 0.29 0.19 0.07 0.03 0.02 0.01 0.00 0.00
0.09 0.14 0.20 0.27 0.34 0.40 0.43 0.41 0.41 0.35 0.28 0.19 0.15 0.12 0.09 0.10 0.09 0.04 0.03 0.06 0.08 0.10 0.12 0.15 0.15 0.17 0.25 0.34 0.36 0.41 0.49 0.39 0.23 0.23 0.26 0.22 0.13 0.07 0.04 0.03 0.02 0.01 0.00
0.05 0.10 0.16 0.25 0.32 0.39 0.46 0.46 0.44 0.42 0.37 0.32 0.26 0.22 0.18 0.14 0.12 0.10 0.05 0.05 0.06 0.08 0.12 0.15 0.15 0.16 0.17 0.23 0.26 0.35 0.55 0.48 0.24 0.16 0.18 0.19 0.14 0.10 0.08 0.06 0.04 0.03 0.01
0.02 0.05 0.10 0.14 0.18 0.22 0.28 0.35 0.41 0.42 0.39 0.33 0.29 0.30 0.26 0.19 0.16 0.17 0.08 0.05 0.04 0.08 0.10 0.13 0.17 0.18 0.17 0.15 0.19 0.26 0.41 0.51 0.37 0.22 0.14 0.15 0.18 0.18 0.14 0.09 0.06 0.03 0.02
0.01 0.02 0.04 0.05 0.05 0.08 0.16 0.24 0.30 0.35 0.36 0.36 0.34 0.36 0.36 0.28 0.20 0.17 0.12 0.10 0.07 0.06 0.05 0.07 0.10 0.14 0.16 0.15 0.15 0.19 0.30 0.44 0.43 0.32 0.21 0.18 0.22 0.21 0.16 0.11 0.08 0.06 0.03
0.01 0.01 0.01 0.03 0.04 0.07 0.13 0.20 0.24 0.29 0.28 0.28 0.32 0.37 0.34 0.29 0.24 0.26 0.25 0.21 0.16 0.11 0.06 0.05 0.06 0.07 0.10 0.13 0.14 0.15 0.21 0.32 0.36 0.31 0.26 0.20 0.18 0.19 0.17 0.14 0.11 0.08 0.05
0.06 0.02 0.02 0.02 0.04 0.06 0.09 0.10 0.10 0.13 0.11 0.11 0.12 0.15 0.17 0.15 0.14 0.15 0.20 0.23 0.19 0.11 0.09 0.10 0.08 0.07 0.07 0.08 0.10 0.11 0.13 0.18 0.25 0.27 0.27 0.24 0.21 0.22 0.23 0.21 0.17 0.13 0.09
0.14 0.11 0.06 0.04 0.04 0.05 0.04 0.04 0.04 0.04 0.04 0.05 0.05 0.07 0.10 0.11 0.12 0.12 0.14 0.16 0.18 0.15 0.11 0.10 0.07 0.05 0.04 0.05 0.06 0.07 0.10 0.14 0.19 0.23 0.25 0.26 0.25 0.26 0.29 0.30 0.28 0.25 0.21
0.03 0.03 0.04 0.07 0.04 0.03 0.05 0.09 0.11 0.09 0.07 0.05 0.02 0.03 0.05 0.08 0.10 0.10 0.10 0.10 0.10 0.10 0.08 0.09 0.06 0.04 0.03 0.03 0.03 0.04 0.05 0.08 0.13 0.18 0.22 0.24 0.27 0.29 0.31 0.35 0.39 0.38 0.34
0.00 0.01 0.07 0.09 0.04 0.02 0.07 0.13 0.14 0.12 0.10 0.06 0.02 0.01 0.01 0.02 0.03 0.05 0.05 0.05 0.05 0.04 0.05 0.10 0.11 0.09 0.06 0.04 0.03 0.03 0.03 0.03 0.06 0.10 0.16 0.20 0.24 0.27 0.31 0.33 0.35 0.41 0.42
0.02 0.01 0.08 0.13 0.05 0.02 0.03 0.03 0.04 0.05 0.04 0.02 0.02 0.02 0.01 0.01 0.01 0.01 0.02 0.02 0.03 0.02 0.03 0.07 0.09 0.10 0.10 0.08 0.06 0.04 0.03 0.03 0.03 0.05 0.08 0.13 0.17 0.20 0.23 0.29 0.33 0.34 0.35
0.05 0.02 0.02 0.12 0.13 0.06 0.03 0.02 0.03 0.05 0.04 0.03 0.02 0.01 0.01 0.01 0.02 0.02 0.01 0.01 0.01 0.01 0.02 0.03 0.05 0.10 0.09 0.08 0.07 0.07 0.05 0.04 0.04 0.05 0.05 0.06 0.09 0.13 0.15 0.17 0.20 0.23 0.27
0.02 0.02 0.02 0.10 0.14 0.08 0.04 0.03 0.02 0.03 0.03 0.03 0.02 0.01 0.01 0.01 0.02 0.03 0.02 0.03 0.03 0.02 0.02 0.03 0.05 0.08 0.10 0.08 0.07 0.08 0.08 0.06 0.05 0.05 0.07 0.08 0.08 0.07 0.08 0.09 0.10 0.11 0.13
0.01 0.01 0.02 0.05 0.06 0.03 0.02 0.03 0.02 0.03 0.02 0.02 0.01 0.01 0.00 0.00 0.01 0.01 0.02 0.05 0.07 0.08 0.06 0.04 0.06 0.10 0.13 0.13 0.11 0.12 0.12 0.11 0.09 0.07 0.07 0.08 0.09 0.09 0.08 0.08 0.07 0.08 0.09
0.01 0.01 0.01 0.02 0.02 0.02 0.03 0.03 0.03 0.03 0.03 0.02 0.01 0.01 0.00 0.01 0.01 0.01 0.01 0.04 0.08 0.09 0.07 0.06 0.07 0.09 0.12 0.14 0.16 0.16 0.15 0.14 0.11 0.08 0.07 0.08 0.08 0.08 0.09 0.09 0.09 0.09 0.08
0.02 0.01 0.01 0.02 0.02 0.03 0.03 0.04 0.03 0.03 0.04 0.04 0.03 0.01 0.01 0.01 0.01 0.02 0.01 0.02 0.04 0.05 0.05 0.05 0.07 0.11 0.13 0.14 0.16 0.18 0.22 0.21 0.16 0.11 0.09 0.08 0.09 0.10 0.11 0.12 0.13 0.13 0.13
0.02 0.01 0.02 0.03 0.03 0.03 0.04 0.04 0.03 0.03 0.04 0.04 0.03 0.03 0.03 0.02 0.02 0.02 0.02 0.02 0.03 0.03 0.06 0.07 0.08 0.11 0.13 0.13 0.12 0.12 0.14 0.13 0.13 0.12 0.09 0.08 0.09 0.10 0.12 0.14 0.16 0.19 0.21

GEFSGL_prec_meanprecacc_030.txt.gz
Total_Precipitation_Accumulation
0.18 0.19 0.22 0.30 0.40 0.61 0.80 0.71 0.49 0.40 0.38 0.38 0.35 0.37 0.44 0.49 0.57 0.64 0.66 0.67 0.67 0.68 0.59 0.54 0.59 0.57 0.64 0.55 0.47 0.37 0.25 0.22 0.33 0.27 0.12 0.03 0.01 0.00 0.00 0.00 0.00 0.00 0.00
0.12 0.09 0.11 0.20 0.32 0.37 0.41 0.46 0.37 0.24 0.18 0.22 0.23 0.23 0.30 0.38 0.42 0.45 0.50 0.56 0.55 0.57 0.52 0.45 0.49 0.52 0.52 0.52 0.50 0.44 0.34 0.24 0.29 0.30 0.14 0.04 0.01 0.00 0.00 0.00 0.00 0.00 0.00
0.05 0.07 0.08 0.08 0.12 0.13 0.10 0.09 0.12 0.12 0.10 0.12 0.16 0.22 0.28 0.34 0.42 0.42 0.44 0.47 0.47 0.45 0.44 0.41 0.41 0.44 0.52 0.53 0.44 0.43 0.39 0.33 0.30 0.33 0.20 0.06 0.02 0.01 0.00 0.00 0.00 0.00 0.00
0.05 0.05 0.05 0.05 0.05 0.05 0.04 0.03 0.04 0.05 0.06 0.10 0.14 0.22 0.25 0.27 0.34 0.36 0.39 0.43 0.40 0.37 0.38 0.36 0.34 0.33 0.36 0.49 0.46 0.40 0.41 0.38 0.40 0.39 0.27 0.09 0.04 0.02 0.00 0.00 0.00 0.00 0.00
0.06 0.08 0.06 0.05 0.05 0.05 0.05 0.03 0.04 0.05 0.05 0.09 0.13 0.23 0.27 0.29 0.26 0.32 0.35 0.42 0.40 0.35 0.34 0.35 0.33 0.36 0.50 0.52 0.45 0.43 0.44 0.39 0.41 0.39 0.32 0.16 0.05 0.02 0.01 0.00 0.00 0.00 0.00
0.06 0.07 0.11 0.11 0.10 0.07 0.06 0.05 0.05 0.06 0.07 0.08 0.11 0.20 0.27 0.24 0.49 0.53 0.40 0.38 0.37 0.30 0.28 0.27 0.26 0.28 0.43 0.60 0.61 0.55 0.53 0.54 0.48 0.40 0.32 0.22 0.13 0.06 0.03 0.02 0.01 0.00 0.00
0.11 0.11 0.15 0.14 0.14 0.13 0.14 0.12 0.12 0.14 0.14 0.11 0.10 0.11 0.16 0.28 0.30 0.25 0.21 0.21 0.30 0.27 0.22 0.20 0.17 0.16 0.22 0.30 0.37 0.36 0.48 0.66 0.72 0.62 0.41 0.32 0.33 0.23 0.12 0.05 0.02 0.01 0.00
0.16 0.17 0.19 0.18 0.19 0.22 0.19 0.18 0.18 0.18 0.17 0.15 0.16 0.15 0.17 0.20 0.15 0.12 0.13 0.13 0.19 0.20 0.17 0.16 0.16 0.16 0.17 0.24 0.34 0.38 0.40 0.50 0.65 0.61 0.49 0.46 0.45 0.35 0.21 0.13 0.07 0.04 0.03
0.16 0.20 0.24 0.25 0.28 0.28 0.26 0.29 0.28 0.23 0.22 0.19 0.19 0.25 0.27 0.22 0.16 0.08 0.07 0.12 0.15 0.14 0.12 0.12 0.13 0.15 0.22 0.27 0.28 0.32 0.40 0.44 0.60 0.62 0.64 0.60 0.44 0.27 0.19 0.13 0.09 0.05 0.03
0.15 0.20 0.26 0.29 0.32 0.34 0.39 0.40 0.38 0.32 0.27 0.23 0.21 0.20 0.23 0.21 0.21 0.08 0.06 0.11 0.14 0.14 0.14 0.14 0.18 0.20 0.28 0.32 0.30 0.36 0.44 0.40 0.39 0.44 0.42 0.38 0.27 0.15 0.14 0.10 0.08 0.06 0.04
0.09 0.14 0.20 0.27 0.35 0.43 0.47 0.47 0.47 0.42 0.35 0.30 0.32 0.25 0.23 0.26 0.27 0.15 0.08 0.10 0.14 0.16 0.19 0.21 0.20 0.21 0.28 0.37 0.39 0.47 0.62 0.55 0.39 0.38 0.40 0.33 0.20 0.11 0.08 0.08 0.06 0.04 0.05
0.05 0.10 0.16 0.25 0.32 0.40 0.48 0.49 0.49 0.48 0.45 0.41 0.39 0.37 0.36 0.31 0.28 0.25 0.13 0.09 0.11 0.14 0.23 0.25 0.23 0.21 0.20 0.24 0.28 0.38 0.63 0.59 0.39 0.34 0.35 0.33 0.26 0.17 0.13 0.10 0.08 0.06 0.05
0.02 0.05 0.10 0.14 0.19 0.23 0.29 0.37 0.43 0.47 0.45 0.42 0.43 0.48 0.48 0.40 0.34 0.36 0.18 0.09 0.07 0.13 0.18 0.22 0.23 0.21 0.18 0.16 0.20 0.28 0.43 0.56 0.48 0.35 0.29 0.29 0.30 0.28 0.21 0.14 0.10 0.07 0.06
0.01 0.02 0.04 0.05 0.06 0.09 0.17 0.26 0.33 0.39 0.42 0.46 0.49 0.56 0.60 0.51 0.41 0.31 0.21 0.16 0.12 0.11 0.10 0.11 0.12 0.15 0.17 0.17 0.17 0.20 0.32 0.50 0.52 0.43 0.35 0.34 0.36 0.31 0.24 0.18 0.14 0.12 0.09
0.01 0.01 0.02 0.03 0.04 0.07 0.13 0.22 0.26 0.33 0.34 0.36 0.44 0.54 0.54 0.51 0.45 0.44 0.38 0.35 0.31 0.28 0.23 0.16 0.13 0.13 0.15 0.19 0.19 0.19 0.26 0.37 0.40 0.37 0.34 0.30 0.31 0.33 0.29 0.24 0.19 0.16 0.13
0.06 0.03 0.02 0.02 0.04 0.07 0.09 0.11 0.11 0.15 0.15 0.17 0.20 0.24 0.27 0.28 0.26 0.23 0.26 0.29 0.26 0.20 0.23 0.28 0.27 0.25 0.24 0.23 0.20 0.18 0.18 0.24 0.30 0.32 0.32 0.29 0.29 0.32 0.34 0.29 0.24 0.20 0.16
0.14 0.11 0.06 0.04 0.04 0.05 0.05 0.06 0.06 0.05 0.04 0.06 0.07 0.11 0.14 0.14 0.14 0.14 0.16 0.18 0.21 0.19 0.23 0.30 0.27 0.22 0.19 0.17 0.16 0.14 0.15 0.16 0.21 0.25 0.28 0.30 0.30 0.33 0.37 0.38 0.34 0.30 0.27
0.03 0.03 0.04 0.07 0.05 0.03 0.06 0.12 0.15 0.15 0.10 0.05 0.03 0.04 0.06 0.08 0.10 0.11 0.11 0.12 0.12 0.13 0.17 0.23 0.20 0.16 0.11 0.08 0.08 0.08 0.09 0.11 0.15 0.20 0.25 0.28 0.32 0.35 0.38 0.43 0.45 0.43 0.39
0.00 0.02 0.08 0.10 0.05 0.04 0.09 0.16 0.19 0.16 0.13 0.07 0.02 0.01 0.01 0.02 0.04 0.05 0.06 0.08 0.09 0.07 0.09 0.15 0.16 0.14 0.11 0.07 0.05 0.05 0.04 0.05 0.08 0.12 0.18 0.22 0.27 0.33 0.37 0.40 0.42 0.46 0.46
0.02 0.01 0.08 0.14 0.08 0.07 0.10 0.09 0.09 0.10 0.07 0.04 0.02 0.02 0.01 0.01 0.02 0.02 0.02 0.04 0.05 0.05 0.05 0.08 0.10 0.12 0.11 0.09 0.08 0.06 0.05 0.05 0.05 0.06 0.10 0.15 0.19 0.22 0.27 0.33 0.38 0.40 0.39
0.06 0.02 0.02 0.13 0.17 0.13 0.12 0.10 0.10 0.12 0.08 0.04 0.03 0.01 0.01 0.03 0.05 0.04 0.02 0.02 0.03 0.03 0.04 0.05 0.07 0.11 0.10 0.09 0.09 0.08 0.06 0.06 0.06 0.06 0.07 0.08 0.11 0.14 0.17 0.19 0.22 0.27 0.31
0.02 0.03 0.04 0.13 0.18 0.14 0.10 0.11 0.11 0.10 0.07 0.04 0.03 0.01 0.01 0.02 0.04 0.05 0.04 0.04 0.04 0.04 0.04 0.05 0.07 0.10 0.11 0.09 0.08 0.09 0.09 0.07 0.06 0.07 0.08 0.09 0.09 0.08 0.09 0.10 0.11 0.13 0.16
0.01 0.01 0.03 0.07 0.08 0.04 0.04 0.08 0.09 0.08 0.05 0.03 0.02 0.01 0.01 0.02 0.03 0.03 0.04 0.06 0.09 0.09 0.07 0.06 0.08 0.12 0.14 0.14 0.12 0.12 0.12 0.12 0.10 0.08 0.08 0.10 0.11 0.11 0.10 0.09 0.10 0.11 0.12
0.01 0.01 0.02 0.04 0.04 0.05 0.07 0.08 0.07 0.06 0.06 0.03 0.02 0.02 0.03 0.03 0.04 0.03 0.04 0.07 0.10 0.11 0.08 0.07 0.07 0.09 0.12 0.14 0.16 0.16 0.15 0.14 0.11 0.08 0.08 0.08 0.09 0.09 0.10 0.10 0.11 0.12 0.14
0.02 0.01 0.02 0.03 0.04 0.05 0.05 0.06 0.06 0.06 0.06 0.06 0.05 0.03 0.03 0.05 0.05 0.04 0.03 0.04 0.06 0.06 0.05 0.05 0.07 0.11 0.13 0.14 0.16 0.18 0.22 0.22 0.16 0.11 0.09 0.09 0.09 0.10 0.12 0.14 0.16 0.18 0.20
0.02 0.01 0.02 0.04 0.05 0.05 0.06 0.06 0.06 0.06 0.06 0.06 0.06 0.05 0.06 0.05 0.05 0.04 0.03 0.04 0.04 0.04 0.07 0.07 0.08 0.11 0.13 0.14 0.12 0.12 0.14 0.13 0.13 0.13 0.10 0.08 0.09 0.11 0.13 0.16 0.20 0.24 0.28

GEFSGL_prec_meanprecacc_036.txt.gz
Total_Precipitation_Accumulation
0.18 0.20 0.22 0.30 0.40 0.61 0.81 0.71 0.49 0.40 0.39 0.39 0.37 0.41 0.49 0.55 0.66 0.74 0.78 0.81 0.79 0.81 0.72 0.67 0.72 0.74 0.89 0.89 0.83 0.70 0.53 0.43 0.44 0.32 0.15 0.06 0.03 0.01 0.00 0.00 0.00 0.00 0.00
0.15 0.12 0.14 0.22 0.33 0.38 0.42 0.46 0.37 0.24 0.19 0.23 0.25 0.27 0.34 0.43 0.48 0.51 0.58 0.63 0.64 0.67 0.63 0.56 0.58 0.62 0.67 0.75 0.80 0.77 0.67 0.50 0.46 0.41 0.19 0.08 0.05 0.02 0.01 0.00 0.00 0.00 0.00
0.15 0.16 0.14 0.13 0.15 0.15 0.12 0.11 0.12 0.12 0.10 0.13 0.18 0.24 0.32 0.38 0.48 0.49 0.50 0.53 0.54 0.51 0.52 0.51 0.49 0.52 0.60 0.65 0.61 0.66 0.67 0.61 0.52 0.48 0.30 0.13 0.09 0.05 0.02 0.00 0.00 0.00 0.00
0.30 0.31 0.25 0.20 0.15 0.12 0.09 0.07 0.07 0.07 0.07 0.12 0.18 0.25 0.28 0.32 0.38 0.39 0.43 0.47 0.45 0.41 0.41 0.40 0.37 0.36 0.41 0.57 0.55 0.52 0.57 0.58 0.61 0.57 0.42 0.21 0.13 0.09 0.04 0.02 0.00 0.00 0.00
0.35 0.41 0.36 0.33 0.28 0.23 0.16 0.11 0.10 0.10 0.09 0.13 0.18 0.28 0.32 0.33 0.30 0.35 0.38 0.45 0.43 0.38 0.36 0.36 0.35 0.39 0.52 0.56 0.51 0.53 0.57 0.54 0.58 0.57 0.49 0.32 0.18 0.10 0.05 0.03 0.01 0.00 0.00
0.36 0.44 0.55 0.53 0.41 0.31 0.23 0.18 0.17 0.17 0.16 0.16 0.19 0.28 0.33 0.29 0.54 0.59 0.44 0.40 0.39 0.33 0.31 0.29 0.27 0.29 0.45 0.64 0.66 0.61 0.62 0.65 0.61 0.54 0.47 0.37 0.26 0.17 0.12 0.07 0.03 0.01 0.00
0.37 0.45 0.61 0.58 0.43 0.37 0.36 0.32 0.28 0.29 0.29 0.24 0.22 0.22 0.25 0.37 0.36 0.30 0.26 0.24 0.31 0.29 0.24 0.21 0.17 0.17 0.23 0.32 0.40 0.42 0.54 0.73 0.81 0.70 0.50 0.42 0.44 0.34 0.22 0.12 0.06 0.02 0.01
0.33 0.38 0.49 0.48 0.44 0.45 0.44 0.39 0.33 0.31 0.31 0.29 0.27 0.26 0.28 0.31 0.23 0.19 0.18 0.15 0.21 0.21 0.18 0.17 0.17 0.17 0.18 0.25 0.36 0.40 0.43 0.53 0.69 0.66 0.53 0.52 0.52 0.43 0.31 0.23 0.17 0.12 0.06
0.24 0.30 0.37 0.39 0.41 0.42 0.41 0.42 0.39 0.35 0.34 0.32 0.31 0.35 0.36 0.32 0.26 0.18 0.14 0.16 0.18 0.16 0.14 0.15 0.15 0.17 0.24 0.29 0.30 0.33 0.42 0.47 0.62 0.65 0.67 0.64 0.50 0.35 0.30 0.26 0.23 0.17 0.10
0.17 0.23 0.29 0.31 0.35 0.38 0.42 0.44 0.43 0.40 0.36 0.34 0.33 0.32 0.35 0.33 0.33 0.17 0.14 0.19 0.19 0.19 0.20 0.20 0.24 0.25 0.31 0.34 0.31 0.37 0.45 0.41 0.41 0.46 0.45 0.41 0.31 0.23 0.25 0.21 0.20 0.19 0.13
0.09 0.14 0.20 0.27 0.35 0.43 0.48 0.48 0.49 0.46 0.40 0.38 0.42 0.38 0.35 0.38 0.42 0.29 0.22 0.21 0.23 0.24 0.26 0.28 0.28 0.28 0.32 0.38 0.39 0.48 0.63 0.56 0.41 0.41 0.44 0.38 0.26 0.19 0.18 0.19 0.19 0.18 0.18
0.05 0.10 0.16 0.25 0.32 0.40 0.48 0.50 0.49 0.49 0.48 0.47 0.47 0.48 0.45 0.40 0.41 0.41 0.31 0.24 0.21 0.22 0.31 0.33 0.31 0.28 0.24 0.26 0.28 0.38 0.63 0.61 0.41 0.38 0.40 0.40 0.36 0.29 0.27 0.24 0.20 0.18 0.16
0.02 0.05 0.10 0.14 0.19 0.23 0.29 0.37 0.44 0.48 0.48 0.47 0.49 0.56 0.57 0.50 0.49 0.53 0.33 0.21 0.18 0.20 0.24 0.29 0.28 0.25 0.21 0.17 0.20 0.28 0.44 0.58 0.51 0.39 0.34 0.35 0.39 0.39 0.34 0.27 0.20 0.16 0.13
0.01 0.02 0.04 0.05 0.06 0.09 0.18 0.26 0.33 0.40 0.44 0.50 0.54 0.62 0.69 0.62 0.54 0.43 0.31 0.24 0.20 0.17 0.15 0.14 0.15 0.17 0.18 0.18 0.17 0.20 0.33 0.52 0.55 0.47 0.39 0.39 0.42 0.40 0.32 0.26 0.22 0.19 0.15
0.01 0.01 0.02 0.03 0.04 0.07 0.13 0.22 0.26 0.34 0.35 0.38 0.47 0.58 0.60 0.59 0.57 0.57 0.50 0.43 0.36 0.32 0.26 0.19 0.15 0.15 0.17 0.20 0.21 0.22 0.29 0.40 0.44 0.41 0.37 0.34 0.36 0.38 0.35 0.29 0.24 0.20 0.17
0.06 0.03 0.02 0.02 0.05 0.07 0.09 0.11 0.12 0.15 0.15 0.18 0.22 0.26 0.30 0.33 0.34 0.29 0.32 0.34 0.31 0.24 0.26 0.31 0.31 0.30 0.29 0.27 0.25 0.22 0.21 0.26 0.33 0.35 0.34 0.32 0.31 0.35 0.37 0.33 0.28 0.24 0.20
0.14 0.11 0.06 0.05 0.04 0.05 0.05 0.06 0.06 0.05 0.04 0.06 0.07 0.12 0.18 0.19 0.19 0.17 0.18 0.20 0.24 0.24 0.30 0.36 0.34 0.29 0.25 0.23 0.22 0.20 0.18 0.19 0.23 0.27 0.29 0.31 0.31 0.34 0.39 0.39 0.35 0.32 0.28
0.03 0.03 0.04 0.07 0.05 0.04 0.06 0.12 0.16 0.15 0.10 0.05 0.03 0.04 0.07 0.11 0.13 0.13 0.13 0.14 0.15 0.17 0.23 0.30 0.27 0.23 0.17 0.13 0.12 0.12 0.13 0.14 0.17 0.22 0.26 0.29 0.33 0.36 0.39 0.43 0.46 0.44 0.40
0.00 0.02 0.08 0.10 0.05 0.04 0.10 0.17 0.19 0.16 0.14 0.07 0.02 0.01 0.02 0.03 0.05 0.06 0.08 0.10 0.11 0.10 0.12 0.18 0.20 0.18 0.14 0.11 0.08 0.06 0.06 0.06 0.08 0.12 0.18 0.23 0.28 0.33 0.38 0.40 0.43 0.48 0.48
0.02 0.02 0.08 0.14 0.08 0.08 0.10 0.10 0.10 0.10 0.07 0.04 0.03 0.02 0.01 0.02 0.03 0.03 0.03 0.05 0.06 0.06 0.07 0.10 0.13 0.14 0.13 0.11 0.08 0.06 0.05 0.05 0.05 0.06 0.10 0.15 0.19 0.22 0.27 0.33 0.39 0.41 0.40
0.06 0.03 0.02 0.14 0.17 0.14 0.12 0.10 0.11 0.12 0.08 0.04 0.03 0.01 0.01 0.03 0.05 0.05 0.03 0.03 0.04 0.05 0.06 0.07 0.08 0.13 0.11 0.10 0.09 0.08 0.06 0.06 0.06 0.06 0.07 0.08 0.11 0.14 0.17 0.19 0.22 0.27 0.32
0.02 0.03 0.04 0.13 0.18 0.14 0.11 0.11 0.11 0.10 0.07 0.04 0.03 0.01 0.01 0.03 0.04 0.05 0.04 0.05 0.05 0.05 0.05 0.05 0.07 0.11 0.12 0.10 0.08 0.10 0.09 0.08 0.06 0.07 0.08 0.09 0.09 0.09 0.09 0.11 0.12 0.14 0.17
0.01 0.02 0.03 0.07 0.08 0.04 0.05 0.08 0.09 0.08 0.06 0.03 0.02 0.01 0.02 0.02 0.03 0.03 0.04 0.07 0.09 0.10 0.08 0.06 0.08 0.12 0.14 0.14 0.12 0.12 0.12 0.12 0.10 0.08 0.08 0.10 0.11 0.11 0.10 0.10 0.10 0.12 0.14
0.01 0.01 0.02 0.04 0.04 0.05 0.07 0.08 0.07 0.06 0.06 0.03 0.02 0.02 0.03 0.04 0.04 0.03 0.04 0.07 0.10 0.11 0.08 0.07 0.07 0.09 0.12 0.14 0.16 0.16 0.15 0.14 0.11 0.08 0.08 0.08 0.09 0.09 0.10 0.10 0.12 0.14 0.16
0.02 0.01 0.02 0.03 0.04 0.05 0.05 0.06 0.07 0.06 0.07 0.06 0.05 0.03 0.04 0.05 0.06 0.04 0.03 0.04 0.06 0.06 0.05 0.05 0.07 0.11 0.13 0.14 0.16 0.18 0.22 0.22 0.16 0.11 0.09 0.09 0.09 0.11 0.12 0.14 0.17 0.20 0.23
0.02 0.01 0.02 0.04 0.05 0.05 0.06 0.06 0.06 0.06 0.06 0.06 0.06 0.05 0.06 0.06 0.05 0.04 0.03 0.04 0.04 0.04 0.07 0.07 0.08 0.11 0.13 0.14 0.12 0.12 0.14 0.13 0.13 0.13 0.10 0.08 0.09 0.11 0.14 0.17 0.21 0.25 0.29

GEFSGL_prec_meanprecacc_042.txt.gz
Total_Precipitation_Accumulation
0.28 0.28 0.29 0.37 0.45 0.65 0.84 0.74 0.51 0.42 0.41 0.40 0.38 0.42 0.49 0.56 0.67 0.76 0.81 0.83 0.82 0.86 0.79 0.77 0.84 0.87 1.01 1.01 0.96 0.84 0.71 0.61 0.59 0.43 0.20 0.09 0.05 0.03 0.02 0.01 0.00 0.00 0.00
0.23 0.21 0.22 0.29 0.40 0.45 0.47 0.51 0.41 0.27 0.21 0.24 0.26 0.28 0.34 0.44 0.48 0.52 0.59 0.63 0.65 0.68 0.67 0.61 0.65 0.72 0.78 0.88 0.94 0.92 0.84 0.71 0.65 0.56 0.30 0.14 0.09 0.06 0.04 0.02 0.01 0.00 0.00
0.25 0.27 0.25 0.24 0.26 0.24 0.20 0.17 0.18 0.17 0.13 0.15 0.20 0.26 0.33 0.39 0.49 0.50 0.51 0.53 0.55 0.52 0.54 0.54 0.54 0.59 0.70 0.76 0.73 0.78 0.82 0.82 0.74 0.66 0.44 0.24 0.17 0.11 0.06 0.02 0.01 0.00 0.00
0.42 0.46 0.42 0.39 0.31 0.26 0.22 0.18 0.15 0.12 0.12 0.16 0.21 0.29 0.31 0.34 0.40 0.41 0.45 0.48 0.46 0.42 0.42 0.41 0.39 0.40 0.47 0.65 0.65 0.62 0.69 0.73 0.81 0.78 0.60 0.34 0.24 0.17 0.10 0.05 0.02 0.01 0.01
0.45 0.54 0.53 0.51 0.46 0.40 0.31 0.23 0.20 0.17 0.16 0.20 0.23 0.32 0.35 0.35 0.32 0.37 0.40 0.46 0.44 0.39 0.37 0.37 0.36 0.41 0.55 0.59 0.56 0.61 0.66 0.65 0.71 0.74 0.69 0.51 0.32 0.21 0.13 0.09 0.05 0.04 0.02
0.44 0.53 0.66 0.67 0.55 0.46 0.37 0.30 0.27 0.26 0.23 0.23 0.25 0.33 0.37 0.32 0.57 0.62 0.46 0.42 0.41 0.35 0.33 0.32 0.29 0.30 0.46 0.65 0.68 0.65 0.67 0.73 0.73 0.70 0.65 0.56 0.44 0.33 0.25 0.18 0.10 0.04 0.02
0.41 0.51 0.69 0.68 0.55 0.47 0.47 0.45 0.39 0.37 0.35 0.30 0.27 0.26 0.28 0.40 0.39 0.33 0.29 0.26 0.33 0.30 0.26 0.22 0.18 0.18 0.24 0.32 0.42 0.45 0.59 0.78 0.87 0.80 0.64 0.56 0.58 0.50 0.38 0.25 0.15 0.08 0.05
0.35 0.42 0.53 0.54 0.50 0.51 0.51 0.48 0.42 0.37 0.36 0.33 0.31 0.29 0.31 0.35 0.27 0.22 0.22 0.18 0.24 0.23 0.20 0.18 0.18 0.17 0.19 0.26 0.37 0.41 0.45 0.57 0.75 0.71 0.58 0.59 0.62 0.55 0.45 0.38 0.31 0.22 0.14
0.25 0.31 0.39 0.41 0.44 0.45 0.44 0.45 0.42 0.37 0.37 0.35 0.34 0.38 0.40 0.36 0.31 0.22 0.18 0.20 0.23 0.19 0.15 0.16 0.17 0.19 0.25 0.31 0.31 0.34 0.43 0.49 0.65 0.70 0.74 0.71 0.58 0.44 0.40 0.39 0.36 0.29 0.21
0.17 0.23 0.29 0.32 0.36 0.39 0.43 0.45 0.44 0.41 0.37 0.35 0.34 0.35 0.38 0.36 0.38 0.21 0.19 0.25 0.26 0.23 0.23 0.23 0.27 0.28 0.34 0.36 0.32 0.37 0.45 0.42 0.43 0.48 0.48 0.45 0.36 0.28 0.32 0.28 0.29 0.29 0.23
0.09 0.14 0.20 0.27 0.35 0.43 0.48 0.48 0.49 0.46 0.41 0.38 0.43 0.40 0.37 0.41 0.46 0.34 0.27 0.27 0.30 0.30 0.30 0.31 0.31 0.32 0.35 0.40 0.41 0.48 0.63 0.56 0.41 0.41 0.44 0.39 0.28 0.22 0.23 0.25 0.25 0.26 0.26
0.05 0.10 0.16 0.25 0.32 0.40 0.48 0.50 0.50 0.49 0.48 0.48 0.47 0.49 0.47 0.43 0.45 0.44 0.35 0.30 0.28 0.28 0.35 0.37 0.36 0.34 0.27 0.29 0.30 0.39 0.64 0.61 0.41 0.38 0.41 0.41 0.37 0.32 0.30 0.29 0.28 0.27 0.26
0.02 0.05 0.10 0.14 0.19 0.23 0.29 0.37 0.44 0.48 0.48 0.48 0.50 0.57 0.59 0.53 0.52 0.57 0.36 0.26 0.22 0.25 0.29 0.35 0.35 0.30 0.24 0.20 0.22 0.29 0.44 0.58 0.51 0.39 0.35 0.36 0.41 0.41 0.38 0.32 0.26 0.23 0.22
0.01 0.02 0.04 0.05 0.06 0.09 0.18 0.26 0.33 0.40 0.44 0.50 0.55 0.62 0.70 0.64 0.56 0.47 0.35 0.27 0.24 0.21 0.19 0.18 0.19 0.21 0.21 0.20 0.18 0.21 0.34 0.52 0.56 0.47 0.39 0.40 0.44 0.41 0.34 0.29 0.27 0.25 0.22
0.01 0.01 0.02 0.03 0.04 0.07 0.13 0.22 0.26 0.34 0.35 0.38 0.47 0.58 0.61 0.60 0.59 0.61 0.55 0.47 0.40 0.35 0.28 0.20 0.17 0.17 0.19 0.22 0.22 0.22 0.29 0.41 0.45 0.42 0.38 0.34 0.36 0.39 0.36 0.30 0.26 0.23 0.21
0.06 0.03 0.02 0.02 0.05 0.07 0.09 0.11 0.12 0.15 0.15 0.18 0.23 0.27 0.31 0.34 0.35 0.32 0.35 0.38 0.34 0.28 0.29 0.33 0.34 0.33 0.32 0.29 0.26 0.22 0.21 0.26 0.34 0.35 0.35 0.32 0.31 0.35 0.37 0.33 0.29 0.25 0.21
0.14 0.11 0.06 0.05 0.04 0.05 0.05 0.06 0.06 0.05 0.04 0.06 0.07 0.12 0.19 0.20 0.19 0.18 0.20 0.24 0.30 0.28 0.33 0.39 0.38 0.33 0.29 0.26 0.24 0.21 0.20 0.20 0.24 0.27 0.30 0.32 0.32 0.34 0.39 0.40 0.37 0.33 0.29
0.03 0.03 0.04 0.07 0.05 0.04 0.06 0.12 0.16 0.15 0.10 0.05 0.03 0.05 0.09 0.12 0.14 0.14 0.16 0.17 0.17 0.19 0.26 0.33 0.31 0.27 0.22 0.18 0.16 0.15 0.15 0.16 0.18 0.22 0.26 0.30 0.34 0.37 0.39 0.44 0.46 0.44 0.41
0.01 0.02 0.08 0.10 0.06 0.05 0.10 0.17 0.19 0.16 0.14 0.07 0.02 0.01 0.02 0.04 0.06 0.07 0.09 0.11 0.11 0.10 0.13 0.20 0.22 0.21 0.17 0.12 0.09 0.08 0.07 0.07 0.09 0.13 0.18 0.23 0.28 0.33 0.38 0.40 0.43 0.48 0.48
0.02 0.02 0.08 0.14 0.08 0.08 0.10 0.10 0.10 0.10 0.08 0.04 0.03 0.02 0.01 0.02 0.03 0.03 0.03 0.05 0.06 0.06 0.07 0.11 0.14 0.16 0.14 0.12 0.09 0.07 0.06 0.06 0.06 0.07 0.10 0.15 0.19 0.22 0.27 0.33 0.39 0.41 0.40
0.06 0.03 0.02 0.14 0.17 0.14 0.12 0.10 0.11 0.12 0.08 0.04 0.03 0.01 0.02 0.04 0.05 0.05 0.03 0.03 0.04 0.06 0.07 0.07 0.09 0.13 0.12 0.10 0.09 0.09 0.07 0.06 0.06 0.06 0.07 0.08 0.11 0.14 0.17 0.19 0.23 0.28 0.32
0.02 0.03 0.04 0.13 0.18 0.14 0.11 0.11 0.11 0.10 0.07 0.04 0.03 0.01 0.01 0.03 0.04 0.05 0.04 0.05 0.05 0.05 0.05 0.05 0.08 0.11 0.12 0.10 0.09 0.10 0.09 0.08 0.06 0.07 0.08 0.09 0.09 0.09 0.09 0.11 0.12 0.14 0.17
0.01 0.02 0.03 0.07 0.08 0.04 0.05 0.08 0.09 0.08 0.06 0.03 0.02 0.02 0.02 0.03 0.03 0.04 0.04 0.07 0.10 0.10 0.08 0.06 0.08 0.12 0.14 0.14 0.12 0.12 0.12 0.12 0.10 0.08 0.08 0.10 0.11 0.11 0.10 0.10 0.11 0.12 0.14
0.01 0.01 0.02 0.04 0.04 0.05 0.07 0.08 0.07 0.06 0.06 0.04 0.02 0.02 0.03 0.04 0.04 0.03 0.04 0.07 0.10 0.11 0.08 0.07 0.07 0.09 0.12 0.14 0.16 0.16 0.15 0.14 0.11 0.08 0.08 0.08 0.09 0.10 0.10 0.11 0.12 0.14 0.17
0.02 0.01 0.02 0.03 0.04 0.05 0.05 0.06 0.07 0.06 0.07 0.06 0.05 0.03 0.04 0.05 0.06 0.04 0.03 0.04 0.06 0.06 0.05 0.05 0.07 0.11 0.13 0.14 0.16 0.18 0.23 0.22 0.16 0.11 0.09 0.09 0.09 0.11 0.12 0.15 0.17 0.20 0.23
0.02 0.01 0.02 0.04 0.05 0.05 0.06 0.06 0.06 0.06 0.06 0.06 0.06 0.05 0.06 0.06 0.05 0.04 0.03 0.04 0.04 0.04 0.07 0.07 0.08 0.11 0.13 0.14 0.12 0.12 0.14 0.14 0.13 0.13 0.10 0.08 0.09 0.11 0.14 0.17 0.21 0.25 0.30

GEFSGL_prec_meanprecacc_048.txt.gz
Total_Precipitation_Accumulation
0.40 0.41 0.41 0.48 0.54 0.73 0.91 0.80 0.56 0.46 0.44 0.43 0.40 0.43 0.50 0.56 0.67 0.76 0.82 0.84 0.83 0.88 0.81 0.79 0.87 0.91 1.06 1.07 1.03 0.91 0.80 0.72 0.69 0.52 0.29 0.16 0.08 0.05 0.03 0.02 0.00 0.00 0.00
0.33 0.31 0.33 0.39 0.49 0.52 0.52 0.54 0.44 0.29 0.23 0.26 0.28 0.28 0.35 0.44 0.49 0.53 0.60 0.64 0.66 0.70 0.68 0.63 0.67 0.75 0.82 0.93 1.00 0.98 0.92 0.80 0.75 0.67 0.40 0.23 0.16 0.10 0.07 0.03 0.02 0.01 0.00
0.34 0.35 0.33 0.31 0.32 0.30 0.24 0.19 0.19 0.18 0.15 0.17 0.22 0.27 0.34 0.40 0.50 0.51 0.52 0.54 0.55 0.53 0.55 0.55 0.56 0.62 0.73 0.81 0.78 0.85 0.90 0.90 0.85 0.79 0.58 0.36 0.26 0.17 0.11 0.06 0.03 0.02 0.01
0.52 0.54 0.50 0.45 0.38 0.33 0.27 0.20 0.16 0.13 0.13 0.18 0.24 0.30 0.33 0.35 0.41 0.42 0.45 0.49 0.46 0.42 0.43 0.42 0.41 0.43 0.52 0.71 0.71 0.69 0.76 0.82 0.94 0.93 0.77 0.50 0.36 0.26 0.18 0.13 0.09 0.05 0.03
0.52 0.61 0.59 0.56 0.51 0.45 0.35 0.26 0.23 0.19 0.17 0.21 0.26 0.36 0.38 0.37 0.34 0.40 0.42 0.47 0.45 0.39 0.37 0.38 0.37 0.43 0.58 0.62 0.60 0.68 0.76 0.76 0.84 0.89 0.86 0.69 0.50 0.36 0.25 0.20 0.15 0.12 0.06
0.47 0.56 0.69 0.70 0.58 0.48 0.39 0.33 0.30 0.28 0.25 0.25 0.28 0.37 0.41 0.34 0.59 0.65 0.48 0.43 0.42 0.36 0.34 0.32 0.29 0.31 0.47 0.66 0.69 0.68 0.73 0.82 0.83 0.81 0.78 0.71 0.59 0.50 0.44 0.36 0.24 0.15 0.10
0.42 0.52 0.71 0.71 0.57 0.49 0.50 0.47 0.42 0.39 0.38 0.33 0.31 0.30 0.33 0.43 0.42 0.35 0.31 0.28 0.36 0.33 0.27 0.23 0.19 0.18 0.24 0.34 0.44 0.46 0.61 0.81 0.91 0.87 0.74 0.69 0.73 0.65 0.53 0.43 0.34 0.26 0.21
0.36 0.42 0.54 0.55 0.52 0.53 0.52 0.49 0.43 0.39 0.38 0.36 0.35 0.34 0.37 0.40 0.30 0.24 0.24 0.21 0.29 0.27 0.21 0.19 0.19 0.18 0.20 0.28 0.39 0.44 0.48 0.60 0.77 0.75 0.65 0.67 0.71 0.66 0.58 0.53 0.50 0.42 0.31
0.25 0.32 0.39 0.41 0.45 0.46 0.45 0.45 0.42 0.38 0.38 0.36 0.37 0.41 0.44 0.40 0.34 0.24 0.21 0.25 0.30 0.25 0.18 0.18 0.18 0.20 0.28 0.32 0.32 0.37 0.47 0.52 0.66 0.72 0.79 0.77 0.63 0.50 0.48 0.50 0.51 0.47 0.40
0.17 0.23 0.29 0.32 0.36 0.39 0.44 0.46 0.45 0.41 0.38 0.36 0.35 0.36 0.40 0.38 0.40 0.23 0.23 0.32 0.34 0.31 0.28 0.25 0.29 0.30 0.37 0.38 0.33 0.40 0.51 0.45 0.44 0.49 0.49 0.48 0.40 0.32 0.37 0.36 0.41 0.44 0.39
0.09 0.14 0.20 0.27 0.35 0.43 0.48 0.48 0.49 0.46 0.41 0.39 0.43 0.40 0.38 0.42 0.48 0.36 0.30 0.31 0.38 0.39 0.37 0.37 0.34 0.37 0.39 0.43 0.43 0.51 0.66 0.58 0.42 0.42 0.45 0.40 0.30 0.25 0.27 0.30 0.33 0.36 0.37
0.05 0.10 0.16 0.25 0.32 0.40 0.48 0.50 0.50 0.50 0.48 0.48 0.48 0.50 0.47 0.44 0.47 0.45 0.38 0.34 0.33 0.35 0.41 0.42 0.40 0.39 0.32 0.33 0.33 0.43 0.66 0.63 0.42 0.39 0.43 0.43 0.39 0.34 0.32 0.30 0.30 0.31 0.32
0.02 0.05 0.10 0.14 0.19 0.23 0.29 0.37 0.44 0.48 0.48 0.48 0.50 0.58 0.59 0.53 0.53 0.59 0.39 0.29 0.25 0.27 0.32 0.39 0.39 0.34 0.28 0.23 0.26 0.32 0.46 0.60 0.53 0.43 0.39 0.39 0.43 0.43 0.40 0.34 0.27 0.25 0.24
0.01 0.02 0.04 0.05 0.06 0.09 0.18 0.26 0.33 0.40 0.44 0.50 0.55 0.63 0.71 0.65 0.57 0.49 0.37 0.29 0.25 0.22 0.20 0.20 0.22 0.25 0.25 0.23 0.21 0.23 0.37 0.54 0.58 0.50 0.42 0.41 0.45 0.42 0.36 0.31 0.29 0.26 0.24
0.01 0.01 0.02 0.03 0.04 0.07 0.13 0.22 0.26 0.34 0.36 0.39 0.48 0.59 0.62 0.62 0.60 0.62 0.56 0.49 0.42 0.37 0.30 0.22 0.19 0.20 0.23 0.25 0.24 0.24 0.31 0.43 0.46 0.43 0.39 0.36 0.38 0.40 0.37 0.31 0.27 0.24 0.22
0.06 0.03 0.02 0.02 0.05 0.07 0.09 0.11 0.12 0.15 0.16 0.18 0.23 0.28 0.31 0.34 0.36 0.32 0.36 0.40 0.37 0.31 0.32 0.36 0.37 0.36 0.35 0.32 0.29 0.24 0.23 0.28 0.36 0.37 0.36 0.34 0.33 0.36 0.39 0.34 0.30 0.27 0.23
0.14 0.11 0.06 0.05 0.04 0.05 0.05 0.06 0.07 0.05 0.04 0.06 0.08 0.13 0.19 0.20 0.20 0.19 0.21 0.27 0.33 0.31 0.37 0.42 0.41 0.36 0.32 0.28 0.26 0.23 0.21 0.21 0.25 0.29 0.31 0.33 0.32 0.35 0.40 0.41 0.38 0.34 0.31
0.03 0.03 0.04 0.07 0.05 0.04 0.06 0.12 0.16 0.15 0.10 0.06 0.03 0.05 0.09 0.13 0.14 0.15 0.17 0.19 0.19 0.21 0.28 0.35 0.32 0.29 0.24 0.22 0.19 0.17 0.16 0.17 0.20 0.23 0.27 0.30 0.34 0.37 0.40 0.45 0.48 0.46 0.42
0.01 0.03 0.08 0.10 0.06 0.05 0.10 0.17 0.19 0.17 0.14 0.08 0.03 0.01 0.02 0.04 0.06 0.08 0.09 0.12 0.12 0.11 0.13 0.20 0.23 0.23 0.19 0.14 0.11 0.09 0.08 0.08 0.10 0.14 0.19 0.23 0.28 0.34 0.38 0.41 0.43 0.48 0.49
0.02 0.02 0.08 0.14 0.08 0.08 0.10 0.10 0.10 0.11 0.08 0.04 0.03 0.03 0.02 0.03 0.04 0.04 0.04 0.06 0.07 0.07 0.08 0.12 0.15 0.16 0.14 0.12 0.10 0.07 0.06 0.06 0.06 0.07 0.11 0.16 0.20 0.23 0.28 0.34 0.40 0.42 0.41
0.06 0.03 0.02 0.14 0.17 0.14 0.12 0.10 0.11 0.12 0.08 0.05 0.03 0.01 0.02 0.04 0.06 0.06 0.04 0.04 0.05 0.07 0.07 0.08 0.09 0.13 0.12 0.11 0.10 0.09 0.07 0.07 0.07 0.07 0.07 0.09 0.11 0.15 0.18 0.20 0.24 0.28 0.33
0.02 0.03 0.04 0.13 0.18 0.14 0.11 0.11 0.11 0.10 0.07 0.04 0.03 0.01 0.01 0.03 0.05 0.06 0.04 0.05 0.05 0.06 0.06 0.06 0.08 0.11 0.12 0.10 0.09 0.10 0.09 0.08 0.06 0.07 0.09 0.09 0.09 0.09 0.10 0.11 0.13 0.15 0.18
0.01 0.02 0.03 0.07 0.08 0.04 0.05 0.08 0.09 0.08 0.06 0.03 0.02 0.02 0.02 0.03 0.03 0.04 0.04 0.07 0.10 0.11 0.08 0.06 0.08 0.12 0.14 0.14 0.12 0.12 0.12 0.12 0.10 0.08 0.08 0.10 0.11 0.12 0.11 0.11 0.11 0.12 0.15
0.01 0.01 0.02 0.04 0.04 0.05 0.07 0.08 0.07 0.06 0.06 0.04 0.03 0.03 0.03 0.04 0.04 0.03 0.05 0.07 0.10 0.11 0.08 0.07 0.07 0.09 0.12 0.14 0.16 0.16 0.15 0.14 0.11 0.08 0.08 0.08 0.09 0.10 0.11 0.11 0.13 0.14 0.17
0.02 0.01 0.02 0.03 0.04 0.05 0.05 0.06 0.07 0.06 0.07 0.06 0.05 0.04 0.04 0.05 0.06 0.04 0.03 0.04 0.06 0.06 0.05 0.05 0.07 0.11 0.13 0.14 0.16 0.18 0.23 0.22 0.16 0.11 0.09 0.09 0.10 0.11 0.13 0.15 0.17 0.20 0.24
0.02 0.01 0.02 0.04 0.05 0.05 0.06 0.06 0.06 0.06 0.06 0.06 0.06 0.06 0.06 0.06 0.05 0.04 0.04 0.04 0.04 0.04 0.07 0.07 0.08 0.11 0.13 0.14 0.12 0.12 0.14 0.14 0.13 0.13 0.10 0.08 0.09 0.11 0.14 0.17 0.21 0.26 0.30

GEFSGL_prec_meanprecacc_054.txt.gz
Total_Precipitation_Accumulation
0.55 0.55 0.54 0.62 0.70 0.93 1.08 0.95 0.70 0.58 0.56 0.52 0.48 0.52 0.60 0.66 0.76 0.84 0.88 0.89 0.88 0.93 0.87 0.85 0.93 0.97 1.11 1.13 1.10 1.01 0.92 0.84 0.79 0.65 0.44 0.25 0.16 0.12 0.08 0.04 0.02 0.01 0.00
0.47 0.44 0.47 0.54 0.63 0.70 0.69 0.66 0.55 0.39 0.32 0.33 0.35 0.36 0.44 0.52 0.57 0.61 0.66 0.70 0.72 0.75 0.73 0.67 0.71 0.79 0.86 1.01 1.08 1.07 1.02 0.92 0.88 0.79 0.57 0.38 0.26 0.19 0.14 0.08 0.04 0.02 0.01
0.46 0.49 0.50 0.51 0.51 0.46 0.39 0.32 0.29 0.27 0.25 0.25 0.31 0.36 0.41 0.46 0.55 0.55 0.55 0.57 0.58 0.56 0.57 0.57 0.58 0.65 0.78 0.88 0.85 0.93 0.99 1.01 0.99 0.92 0.73 0.54 0.39 0.26 0.17 0.12 0.08 0.07 0.05
0.63 0.67 0.67 0.62 0.58 0.52 0.43 0.34 0.28 0.24 0.23 0.27 0.32 0.38 0.39 0.42 0.46 0.45 0.47 0.51 0.48 0.44 0.44 0.43 0.42 0.46 0.57 0.77 0.76 0.76 0.85 0.92 1.05 1.05 0.89 0.63 0.48 0.36 0.26 0.21 0.19 0.16 0.12
0.59 0.69 0.69 0.67 0.63 0.60 0.50 0.39 0.35 0.29 0.25 0.28 0.32 0.41 0.43 0.42 0.39 0.46 0.45 0.49 0.46 0.41 0.39 0.39 0.39 0.45 0.60 0.65 0.63 0.72 0.83 0.85 0.94 0.99 0.97 0.82 0.62 0.46 0.33 0.29 0.26 0.26 0.22
0.50 0.59 0.74 0.76 0.65 0.57 0.48 0.41 0.37 0.35 0.31 0.30 0.34 0.44 0.50 0.41 0.69 0.73 0.53 0.46 0.44 0.38 0.35 0.34 0.31 0.32 0.48 0.67 0.70 0.70 0.77 0.87 0.92 0.91 0.90 0.83 0.73 0.62 0.55 0.47 0.36 0.29 0.25
0.44 0.54 0.74 0.74 0.61 0.53 0.56 0.55 0.48 0.46 0.45 0.41 0.39 0.40 0.45 0.56 0.51 0.38 0.34 0.30 0.38 0.35 0.29 0.25 0.20 0.19 0.25 0.36 0.45 0.47 0.62 0.83 0.94 0.92 0.82 0.80 0.84 0.76 0.63 0.51 0.43 0.37 0.35
0.37 0.44 0.57 0.58 0.55 0.57 0.57 0.54 0.48 0.44 0.45 0.44 0.43 0.43 0.47 0.49 0.37 0.26 0.25 0.22 0.31 0.30 0.24 0.21 0.21 0.21 0.24 0.33 0.43 0.48 0.53 0.64 0.80 0.77 0.69 0.72 0.75 0.71 0.64 0.59 0.57 0.51 0.41
0.25 0.32 0.40 0.42 0.45 0.47 0.47 0.48 0.45 0.41 0.41 0.41 0.42 0.48 0.52 0.47 0.37 0.26 0.22 0.29 0.36 0.29 0.22 0.23 0.24 0.26 0.36 0.41 0.38 0.42 0.53 0.56 0.70 0.74 0.80 0.79 0.64 0.52 0.51 0.54 0.57 0.55 0.49
0.18 0.23 0.30 0.33 0.36 0.39 0.44 0.47 0.47 0.44 0.40 0.38 0.37 0.38 0.43 0.42 0.44 0.24 0.25 0.39 0.42 0.40 0.38 0.33 0.37 0.37 0.45 0.44 0.36 0.45 0.59 0.50 0.46 0.52 0.52 0.51 0.43 0.37 0.40 0.40 0.50 0.55 0.51
0.09 0.14 0.20 0.28 0.35 0.43 0.48 0.49 0.50 0.48 0.43 0.40 0.44 0.42 0.39 0.45 0.50 0.37 0.33 0.37 0.48 0.49 0.48 0.47 0.40 0.42 0.42 0.45 0.45 0.54 0.72 0.61 0.45 0.46 0.51 0.48 0.37 0.32 0.34 0.37 0.42 0.48 0.49
0.06 0.10 0.17 0.25 0.32 0.40 0.48 0.50 0.50 0.50 0.49 0.50 0.50 0.51 0.49 0.46 0.48 0.46 0.39 0.38 0.41 0.46 0.53 0.50 0.46 0.43 0.33 0.34 0.35 0.45 0.69 0.64 0.46 0.47 0.52 0.52 0.46 0.39 0.37 0.35 0.36 0.38 0.39
0.02 0.06 0.10 0.15 0.19 0.23 0.29 0.37 0.44 0.48 0.49 0.49 0.53 0.60 0.61 0.55 0.55 0.60 0.41 0.30 0.30 0.34 0.38 0.45 0.43 0.37 0.29 0.24 0.26 0.33 0.48 0.65 0.61 0.52 0.47 0.45 0.46 0.44 0.42 0.36 0.30 0.29 0.28
0.01 0.03 0.04 0.06 0.06 0.09 0.18 0.27 0.33 0.40 0.45 0.51 0.57 0.65 0.73 0.67 0.59 0.51 0.40 0.32 0.29 0.25 0.22 0.22 0.24 0.26 0.26 0.25 0.23 0.26 0.40 0.58 0.63 0.55 0.47 0.46 0.47 0.44 0.38 0.34 0.32 0.30 0.28
0.01 0.01 0.02 0.03 0.05 0.07 0.14 0.22 0.26 0.34 0.36 0.39 0.49 0.61 0.64 0.64 0.62 0.65 0.60 0.53 0.46 0.42 0.35 0.27 0.24 0.27 0.30 0.32 0.31 0.30 0.36 0.47 0.51 0.48 0.43 0.40 0.41 0.44 0.40 0.33 0.29 0.26 0.25
0.06 0.03 0.02 0.03 0.05 0.08 0.11 0.12 0.12 0.15 0.16 0.19 0.24 0.29 0.33 0.36 0.37 0.34 0.38 0.43 0.40 0.34 0.41 0.47 0.47 0.47 0.45 0.41 0.38 0.31 0.27 0.32 0.40 0.42 0.40 0.37 0.35 0.39 0.41 0.36 0.32 0.29 0.26
0.14 0.11 0.07 0.05 0.05 0.06 0.07 0.09 0.09 0.06 0.05 0.06 0.08 0.13 0.19 0.21 0.20 0.19 0.21 0.28 0.34 0.35 0.45 0.50 0.47 0.42 0.38 0.34 0.32 0.28 0.25 0.25 0.29 0.33 0.34 0.35 0.35 0.38 0.43 0.44 0.40 0.37 0.33
0.03 0.03 0.05 0.08 0.05 0.04 0.07 0.13 0.18 0.20 0.14 0.07 0.03 0.05 0.10 0.14 0.15 0.16 0.18 0.21 0.21 0.25 0.33 0.41 0.37 0.34 0.28 0.25 0.22 0.20 0.19 0.20 0.22 0.25 0.28 0.31 0.36 0.39 0.42 0.46 0.50 0.47 0.44
0.01 0.03 0.09 0.10 0.06 0.05 0.10 0.18 0.20 0.19 0.18 0.11 0.05 0.03 0.03 0.05 0.07 0.09 0.11 0.15 0.14 0.13 0.16 0.23 0.26 0.25 0.21 0.16 0.12 0.10 0.09 0.08 0.10 0.14 0.19 0.24 0.29 0.35 0.40 0.42 0.45 0.49 0.49
0.02 0.02 0.09 0.14 0.08 0.08 0.10 0.10 0.10 0.12 0.10 0.06 0.05 0.05 0.04 0.05 0.06 0.04 0.05 0.06 0.07 0.07 0.08 0.12 0.15 0.17 0.15 0.13 0.10 0.08 0.06 0.07 0.06 0.07 0.11 0.16 0.20 0.24 0.29 0.35 0.41 0.43 0.42
0.06 0.03 0.03 0.14 0.17 0.14 0.12 0.10 0.11 0.13 0.09 0.05 0.03 0.01 0.02 0.05 0.07 0.06 0.04 0.05 0.06 0.08 0.08 0.08 0.09 0.14 0.12 0.11 0.10 0.09 0.07 0.07 0.07 0.07 0.08 0.09 0.12 0.16 0.19 0.21 0.24 0.29 0.34
0.02 0.03 0.04 0.13 0.18 0.14 0.11 0.11 0.12 0.10 0.08 0.05 0.03 0.01 0.02 0.04 0.05 0.06 0.05 0.06 0.07 0.08 0.07 0.06 0.08 0.11 0.12 0.10 0.09 0.10 0.09 0.08 0.07 0.08 0.09 0.10 0.10 0.09 0.10 0.12 0.13 0.15 0.18
0.01 0.02 0.03 0.07 0.08 0.04 0.05 0.08 0.09 0.09 0.06 0.04 0.03 0.02 0.02 0.03 0.04 0.04 0.04 0.07 0.10 0.11 0.08 0.06 0.08 0.12 0.14 0.14 0.12 0.12 0.12 0.12 0.10 0.08 0.08 0.10 0.12 0.12 0.11 0.11 0.11 0.13 0.15
0.01 0.01 0.02 0.04 0.04 0.05 0.07 0.08 0.07 0.06 0.06 0.04 0.03 0.03 0.04 0.05 0.04 0.04 0.05 0.07 0.10 0.11 0.08 0.07 0.07 0.09 0.12 0.15 0.16 0.16 0.15 0.14 0.11 0.08 0.08 0.09 0.10 0.10 0.11 0.11 0.13 0.15 0.17
0.02 0.01 0.02 0.03 0.04 0.05 0.05 0.07 0.07 0.06 0.07 0.06 0.05 0.04 0.04 0.05 0.06 0.04 0.03 0.04 0.06 0.06 0.05 0.05 0.07 0.11 0.13 0.14 0.16 0.18 0.23 0.22 0.16 0.11 0.09 0.09 0.10 0.11 0.13 0.15 0.18 0.20 0.24
0.02 0.01 0.02 0.04 0.05 0.05 0.06 0.07 0.06 0.06 0.07 0.06 0.06 0.06 0.06 0.06 0.05 0.04 0.04 0.04 0.04 0.04 0.07 0.07 0.08 0.11 0.13 0.14 0.12 0.12 0.14 0.14 0.13 0.13 0.10 0.09 0.09 0.11 0.14 0.17 0.21 0.26 0.30

GEFSGL_prec_meanprecacc_060.txt.gz
Total_Precipitation_Accumulation
0.67 0.64 0.61 0.69 0.79 1.04 1.23 1.13 0.87 0.78 0.76 0.72 0.65 0.69 0.79 0.84 0.93 1.02 1.06 1.07 1.05 1.08 1.00 0.97 1.05 1.08 1.21 1.20 1.17 1.08 0.97 0.87 0.80 0.67 0.47 0.28 0.19 0.14 0.11 0.06 0.03 0.02 0.02
0.54 0.52 0.55 0.60 0.70 0.79 0.83 0.82 0.71 0.57 0.51 0.51 0.54 0.54 0.62 0.70 0.75 0.76 0.80 0.83 0.83 0.86 0.82 0.76 0.79 0.86 0.93 1.07 1.13 1.11 1.06 0.94 0.89 0.81 0.60 0.41 0.29 0.21 0.15 0.10 0.06 0.04 0.03
0.52 0.56 0.58 0.57 0.58 0.54 0.49 0.45 0.45 0.45 0.44 0.45 0.53 0.53 0.56 0.62 0.72 0.69 0.68 0.68 0.68 0.65 0.65 0.64 0.64 0.70 0.83 0.91 0.88 0.95 1.01 1.04 1.01 0.93 0.76 0.56 0.41 0.28 0.19 0.14 0.09 0.08 0.07
0.68 0.74 0.75 0.71 0.66 0.62 0.55 0.47 0.43 0.45 0.47 0.51 0.58 0.61 0.59 0.65 0.66 0.63 0.63 0.64 0.59 0.53 0.51 0.48 0.46 0.49 0.60 0.79 0.78 0.77 0.86 0.95 1.07 1.06 0.92 0.65 0.49 0.37 0.27 0.22 0.21 0.18 0.14
0.61 0.73 0.76 0.74 0.71 0.67 0.58 0.49 0.47 0.44 0.42 0.47 0.53 0.63 0.66 0.67 0.61 0.65 0.65 0.65 0.60 0.50 0.46 0.45 0.44 0.49 0.62 0.66 0.64 0.74 0.85 0.87 0.95 1.00 0.98 0.83 0.63 0.47 0.34 0.30 0.28 0.28 0.24
0.51 0.61 0.76 0.80 0.70 0.63 0.55 0.49 0.47 0.45 0.41 0.42 0.47 0.59 0.67 0.58 0.83 0.85 0.67 0.60 0.57 0.48 0.43 0.40 0.36 0.36 0.50 0.70 0.73 0.73 0.79 0.89 0.93 0.92 0.90 0.83 0.73 0.63 0.56 0.48 0.37 0.30 0.28
0.46 0.57 0.76 0.76 0.63 0.57 0.61 0.61 0.54 0.51 0.51 0.50 0.49 0.50 0.55 0.66 0.58 0.44 0.40 0.37 0.46 0.45 0.37 0.31 0.24 0.22 0.29 0.39 0.48 0.50 0.64 0.84 0.95 0.92 0.82 0.80 0.84 0.77 0.65 0.54 0.46 0.39 0.39
0.37 0.45 0.59 0.61 0.57 0.60 0.62 0.58 0.50 0.46 0.46 0.47 0.47 0.48 0.51 0.54 0.41 0.29 0.28 0.24 0.35 0.35 0.29 0.27 0.27 0.25 0.27 0.36 0.45 0.51 0.55 0.65 0.82 0.77 0.69 0.73 0.76 0.72 0.65 0.60 0.59 0.53 0.44
0.25 0.32 0.40 0.43 0.46 0.49 0.49 0.51 0.47 0.43 0.43 0.42 0.44 0.50 0.54 0.49 0.40 0.28 0.24 0.31 0.40 0.33 0.28 0.30 0.30 0.31 0.43 0.46 0.41 0.45 0.56 0.58 0.72 0.76 0.82 0.80 0.65 0.53 0.52 0.55 0.58 0.55 0.51
0.18 0.23 0.30 0.33 0.36 0.39 0.45 0.48 0.48 0.44 0.41 0.39 0.38 0.40 0.45 0.44 0.45 0.26 0.27 0.42 0.47 0.46 0.43 0.38 0.45 0.45 0.52 0.48 0.39 0.48 0.63 0.54 0.49 0.54 0.55 0.53 0.45 0.38 0.41 0.41 0.50 0.55 0.53
0.09 0.14 0.21 0.28 0.35 0.44 0.49 0.49 0.52 0.49 0.43 0.41 0.45 0.42 0.40 0.46 0.52 0.38 0.35 0.41 0.53 0.54 0.52 0.51 0.47 0.49 0.47 0.49 0.48 0.56 0.75 0.64 0.48 0.49 0.53 0.50 0.39 0.33 0.34 0.38 0.43 0.49 0.51
0.06 0.10 0.17 0.25 0.32 0.41 0.49 0.50 0.51 0.51 0.50 0.50 0.50 0.52 0.50 0.47 0.49 0.47 0.40 0.41 0.45 0.49 0.56 0.53 0.50 0.48 0.36 0.38 0.37 0.47 0.71 0.66 0.48 0.49 0.53 0.53 0.47 0.40 0.38 0.36 0.36 0.39 0.41
0.02 0.06 0.11 0.15 0.19 0.24 0.30 0.37 0.44 0.48 0.50 0.50 0.53 0.61 0.62 0.55 0.55 0.60 0.41 0.32 0.32 0.36 0.40 0.48 0.46 0.40 0.30 0.26 0.28 0.34 0.48 0.66 0.62 0.52 0.47 0.45 0.46 0.45 0.42 0.36 0.30 0.29 0.29
0.01 0.03 0.05 0.06 0.07 0.09 0.18 0.27 0.33 0.40 0.45 0.52 0.58 0.67 0.74 0.67 0.59 0.52 0.41 0.33 0.30 0.27 0.24 0.24 0.25 0.27 0.27 0.26 0.24 0.27 0.41 0.59 0.64 0.56 0.47 0.46 0.47 0.44 0.38 0.34 0.32 0.31 0.29
0.01 0.01 0.02 0.04 0.05 0.08 0.14 0.22 0.26 0.34 0.36 0.40 0.50 0.62 0.66 0.64 0.63 0.65 0.61 0.54 0.48 0.44 0.37 0.29 0.25 0.28 0.32 0.34 0.33 0.31 0.36 0.48 0.51 0.48 0.44 0.40 0.41 0.44 0.40 0.33 0.29 0.26 0.25
0.06 0.03 0.02 0.03 0.06 0.08 0.11 0.12 0.12 0.15 0.16 0.19 0.25 0.30 0.34 0.36 0.37 0.34 0.39 0.44 0.42 0.36 0.43 0.50 0.48 0.48 0.46 0.42 0.40 0.32 0.27 0.32 0.40 0.43 0.41 0.37 0.35 0.39 0.41 0.36 0.32 0.30 0.26
0.14 0.11 0.07 0.05 0.05 0.06 0.07 0.09 0.09 0.06 0.05 0.06 0.08 0.13 0.19 0.21 0.20 0.20 0.22 0.29 0.36 0.36 0.46 0.52 0.49 0.43 0.38 0.34 0.33 0.30 0.26 0.26 0.30 0.34 0.35 0.36 0.35 0.38 0.43 0.44 0.40 0.37 0.33
0.03 0.03 0.05 0.08 0.05 0.04 0.07 0.13 0.18 0.20 0.14 0.08 0.03 0.05 0.10 0.14 0.15 0.16 0.18 0.22 0.22 0.26 0.34 0.42 0.39 0.35 0.29 0.26 0.23 0.21 0.21 0.21 0.23 0.26 0.29 0.31 0.36 0.39 0.42 0.46 0.50 0.47 0.44
0.01 0.03 0.09 0.10 0.06 0.05 0.10 0.18 0.20 0.19 0.18 0.12 0.05 0.03 0.04 0.06 0.08 0.09 0.12 0.15 0.14 0.13 0.16 0.24 0.27 0.26 0.22 0.17 0.12 0.10 0.09 0.09 0.11 0.14 0.19 0.24 0.29 0.35 0.40 0.42 0.45 0.49 0.49
0.02 0.02 0.09 0.14 0.08 0.08 0.10 0.10 0.10 0.12 0.10 0.07 0.05 0.05 0.04 0.05 0.06 0.05 0.05 0.07 0.07 0.07 0.09 0.13 0.15 0.17 0.15 0.13 0.10 0.08 0.06 0.07 0.07 0.07 0.11 0.16 0.20 0.24 0.29 0.35 0.41 0.43 0.42
0.06 0.03 0.03 0.14 0.17 0.14 0.12 0.10 0.11 0.13 0.09 0.05 0.03 0.01 0.02 0.05 0.07 0.06 0.04 0.06 0.07 0.08 0.08 0.08 0.09 0.14 0.12 0.11 0.10 0.09 0.07 0.07 0.07 0.07 0.08 0.09 0.12 0.16 0.19 0.21 0.24 0.29 0.34
0.02 0.03 0.04 0.13 0.18 0.14 0.11 0.11 0.12 0.10 0.08 0.05 0.03 0.01 0.02 0.04 0.05 0.06 0.05 0.06 0.07 0.08 0.08 0.06 0.08 0.11 0.12 0.10 0.09 0.10 0.09 0.08 0.07 0.08 0.09 0.10 0.10 0.10 0.10 0.12 0.13 0.15 0.18
0.01 0.02 0.03 0.07 0.08 0.04 0.05 0.08 0.09 0.09 0.06 0.04 0.03 0.02 0.02 0.03 0.04 0.04 0.04 0.07 0.10 0.11 0.08 0.06 0.08 0.12 0.14 0.14 0.12 0.12 0.12 0.12 0.10 0.08 0.08 0.10 0.12 0.12 0.11 0.11 0.11 0.13 0.15
0.01 0.01 0.02 0.04 0.04 0.05 0.07 0.08 0.07 0.06 0.06 0.04 0.03 0.03 0.04 0.05 0.04 0.04 0.05 0.07 0.10 0.11 0.08 0.07 0.07 0.09 0.12 0.15 0.16 0.16 0.15 0.14 0.11 0.08 0.08 0.09 0.10 0.10 0.11 0.11 0.13 0.15 0.17
0.02 0.01 0.02 0.03 0.04 0.05 0.05 0.07 0.07 0.06 0.07 0.06 0.05 0.04 0.04 0.05 0.06 0.04 0.03 0.04 0.06 0.06 0.05 0.05 0.07 0.11 0.13 0.14 0.16 0.18 0.23 0.22 0.16 0.11 0.09 0.09 0.10 0.11 0.13 0.15 0.18 0.20 0.24
0.02 0.01 0.02 0.04 0.05 0.05 0.06 0.07 0.06 0.06 0.07 0.06 0.06 0.06 0.06 0.06 0.05 0.04 0.04 0.04 0.04 0.04 0.07 0.07 0.08 0.11 0.13 0.14 0.12 0.12 0.14 0.14 0.13 0.13 0.10 0.09 0.09 0.11 0.14 0.17 0.21 0.26 0.30

GEFSGL_prec_meanprecacc_066.txt.gz
Total_Precipitation_Accumulation
0.77 0.78 0.74 0.79 0.86 1.10 1.29 1.20 0.96 0.86 0.85 0.79 0.73 0.79 0.92 0.99 1.10 1.19 1.23 1.24 1.22 1.26 1.16 1.11 1.18 1.19 1.30 1.29 1.27 1.18 1.07 0.94 0.84 0.70 0.48 0.29 0.19 0.14 0.11 0.06 0.03 0.02 0.02
0.59 0.62 0.67 0.68 0.76 0.85 0.91 0.91 0.78 0.65 0.60 0.60 0.66 0.68 0.74 0.83 0.90 0.92 0.97 1.02 1.01 1.02 0.98 0.90 0.91 0.98 1.03 1.16 1.22 1.21 1.15 1.02 0.94 0.85 0.62 0.42 0.30 0.21 0.15 0.10 0.06 0.04 0.04
0.56 0.60 0.64 0.65 0.65 0.62 0.57 0.53 0.54 0.53 0.51 0.51 0.61 0.67 0.71 0.75 0.86 0.83 0.81 0.82 0.83 0.80 0.79 0.77 0.75 0.81 0.93 1.00 0.96 1.02 1.09 1.11 1.07 0.97 0.79 0.58 0.41 0.28 0.19 0.14 0.09 0.08 0.07
0.71 0.77 0.80 0.78 0.73 0.68 0.62 0.55 0.53 0.55 0.56 0.58 0.67 0.71 0.71 0.78 0.79 0.77 0.76 0.75 0.70 0.64 0.62 0.59 0.56 0.58 0.67 0.86 0.85 0.83 0.93 1.01 1.12 1.10 0.94 0.66 0.49 0.37 0.27 0.22 0.21 0.18 0.15
0.63 0.74 0.78 0.78 0.76 0.71 0.63 0.55 0.54 0.51 0.48 0.54 0.62 0.71 0.76 0.78 0.72 0.75 0.77 0.78 0.71 0.61 0.55 0.53 0.51 0.55 0.68 0.72 0.69 0.78 0.90 0.92 0.98 1.02 0.99 0.83 0.63 0.47 0.34 0.30 0.28 0.28 0.24
0.53 0.62 0.77 0.82 0.73 0.67 0.58 0.54 0.53 0.50 0.46 0.48 0.53 0.66 0.76 0.68 0.94 0.94 0.77 0.71 0.68 0.57 0.51 0.47 0.41 0.40 0.55 0.74 0.78 0.77 0.82 0.91 0.93 0.92 0.91 0.84 0.73 0.63 0.56 0.49 0.37 0.30 0.28
0.47 0.58 0.77 0.77 0.65 0.60 0.64 0.64 0.57 0.54 0.54 0.54 0.52 0.54 0.59 0.73 0.65 0.51 0.48 0.44 0.53 0.51 0.43 0.37 0.30 0.27 0.34 0.44 0.52 0.53 0.66 0.85 0.96 0.93 0.82 0.80 0.84 0.77 0.65 0.54 0.46 0.40 0.39
0.37 0.46 0.61 0.64 0.62 0.64 0.64 0.60 0.51 0.47 0.47 0.49 0.49 0.49 0.53 0.57 0.44 0.35 0.33 0.29 0.39 0.40 0.35 0.33 0.32 0.28 0.30 0.39 0.47 0.52 0.56 0.66 0.82 0.77 0.69 0.73 0.76 0.72 0.65 0.60 0.59 0.53 0.44
0.25 0.33 0.42 0.45 0.50 0.52 0.51 0.52 0.48 0.43 0.43 0.43 0.45 0.50 0.55 0.50 0.42 0.31 0.26 0.33 0.42 0.37 0.32 0.34 0.33 0.33 0.45 0.48 0.42 0.46 0.57 0.59 0.72 0.76 0.82 0.80 0.66 0.53 0.52 0.55 0.58 0.56 0.51
0.18 0.25 0.32 0.34 0.38 0.41 0.46 0.49 0.49 0.45 0.41 0.39 0.39 0.40 0.46 0.45 0.47 0.27 0.29 0.44 0.49 0.49 0.46 0.41 0.48 0.47 0.54 0.50 0.40 0.49 0.64 0.54 0.50 0.55 0.56 0.54 0.45 0.38 0.41 0.41 0.50 0.55 0.53
0.10 0.15 0.22 0.29 0.36 0.44 0.50 0.51 0.52 0.49 0.43 0.41 0.45 0.43 0.41 0.47 0.53 0.41 0.37 0.43 0.56 0.57 0.54 0.53 0.48 0.51 0.49 0.50 0.49 0.57 0.76 0.65 0.49 0.50 0.54 0.51 0.39 0.33 0.34 0.38 0.43 0.49 0.51
0.06 0.10 0.17 0.25 0.33 0.41 0.50 0.52 0.51 0.52 0.50 0.51 0.51 0.52 0.50 0.47 0.50 0.48 0.42 0.43 0.49 0.53 0.58 0.55 0.52 0.49 0.37 0.39 0.38 0.48 0.71 0.66 0.49 0.49 0.54 0.53 0.47 0.40 0.38 0.36 0.36 0.39 0.41
0.02 0.06 0.11 0.15 0.19 0.24 0.31 0.39 0.45 0.49 0.50 0.50 0.54 0.61 0.62 0.56 0.56 0.61 0.43 0.35 0.36 0.40 0.43 0.50 0.48 0.41 0.32 0.27 0.29 0.35 0.49 0.66 0.62 0.53 0.48 0.46 0.46 0.45 0.42 0.36 0.30 0.29 0.29
0.01 0.03 0.05 0.06 0.07 0.10 0.19 0.27 0.34 0.41 0.46 0.53 0.59 0.67 0.74 0.68 0.60 0.53 0.42 0.35 0.33 0.30 0.27 0.26 0.28 0.29 0.29 0.27 0.26 0.29 0.42 0.60 0.64 0.56 0.47 0.46 0.47 0.44 0.38 0.34 0.32 0.31 0.29
0.01 0.01 0.02 0.04 0.05 0.08 0.14 0.22 0.26 0.34 0.36 0.40 0.50 0.62 0.66 0.65 0.63 0.66 0.61 0.55 0.50 0.46 0.40 0.31 0.27 0.29 0.33 0.36 0.35 0.33 0.38 0.49 0.52 0.48 0.44 0.40 0.41 0.44 0.40 0.33 0.29 0.26 0.26
0.06 0.03 0.02 0.03 0.06 0.08 0.11 0.12 0.12 0.16 0.16 0.20 0.25 0.30 0.34 0.36 0.37 0.35 0.40 0.46 0.44 0.38 0.45 0.51 0.49 0.48 0.47 0.44 0.42 0.34 0.29 0.33 0.41 0.43 0.41 0.37 0.35 0.39 0.41 0.36 0.32 0.30 0.26
0.14 0.11 0.07 0.05 0.05 0.06 0.07 0.09 0.09 0.06 0.05 0.07 0.08 0.13 0.20 0.21 0.21 0.20 0.23 0.30 0.36 0.37 0.48 0.53 0.49 0.43 0.39 0.35 0.34 0.31 0.27 0.27 0.30 0.34 0.35 0.36 0.35 0.38 0.43 0.44 0.40 0.37 0.33
0.03 0.03 0.05 0.08 0.05 0.04 0.07 0.13 0.18 0.20 0.14 0.08 0.04 0.06 0.11 0.14 0.16 0.17 0.19 0.23 0.22 0.26 0.35 0.42 0.39 0.35 0.29 0.26 0.23 0.21 0.21 0.22 0.23 0.26 0.29 0.31 0.36 0.39 0.42 0.46 0.50 0.47 0.44
0.01 0.03 0.09 0.10 0.06 0.05 0.10 0.18 0.20 0.19 0.18 0.12 0.05 0.03 0.04 0.06 0.08 0.09 0.12 0.16 0.14 0.13 0.17 0.24 0.27 0.26 0.22 0.17 0.13 0.10 0.09 0.09 0.11 0.14 0.19 0.24 0.29 0.35 0.40 0.42 0.45 0.49 0.49
0.02 0.02 0.09 0.14 0.08 0.08 0.10 0.10 0.10 0.12 0.10 0.07 0.05 0.05 0.04 0.06 0.06 0.05 0.05 0.07 0.08 0.07 0.09 0.13 0.15 0.17 0.15 0.13 0.10 0.08 0.07 0.07 0.07 0.08 0.11 0.16 0.20 0.24 0.29 0.35 0.41 0.43 0.42
0.06 0.03 0.03 0.14 0.17 0.14 0.12 0.10 0.11 0.13 0.09 0.05 0.03 0.01 0.02 0.05 0.07 0.06 0.05 0.06 0.07 0.08 0.08 0.08 0.10 0.14 0.12 0.11 0.10 0.10 0.08 0.07 0.07 0.08 0.08 0.09 0.12 0.16 0.19 0.21 0.24 0.29 0.34
0.02 0.03 0.04 0.13 0.18 0.14 0.11 0.11 0.12 0.10 0.08 0.05 0.03 0.01 0.02 0.04 0.05 0.06 0.05 0.06 0.07 0.08 0.08 0.06 0.08 0.11 0.12 0.10 0.09 0.10 0.09 0.08 0.07 0.08 0.09 0.10 0.10 0.10 0.10 0.12 0.13 0.15 0.18
0.01 0.02 0.03 0.07 0.08 0.04 0.05 0.08 0.09 0.09 0.06 0.04 0.03 0.02 0.02 0.03 0.04 0.04 0.04 0.07 0.10 0.11 0.08 0.06 0.08 0.12 0.14 0.14 0.12 0.12 0.12 0.12 0.10 0.08 0.08 0.10 0.12 0.12 0.11 0.11 0.11 0.13 0.15
0.01 0.01 0.02 0.04 0.04 0.05 0.07 0.08 0.07 0.06 0.06 0.04 0.03 0.03 0.04 0.05 0.04 0.04 0.05 0.07 0.10 0.11 0.08 0.07 0.07 0.09 0.12 0.15 0.16 0.16 0.15 0.14 0.11 0.08 0.08 0.09 0.10 0.10 0.11 0.11 0.13 0.15 0.17
0.02 0.01 0.02 0.03 0.04 0.05 0.05 0.07 0.07 0.06 0.07 0.06 0.05 0.04 0.04 0.05 0.06 0.04 0.03 0.04 0.06 0.06 0.05 0.05 0.07 0.11 0.13 0.14 0.16 0.18 0.23 0.22 0.16 0.11 0.09 0.09 0.10 0.11 0.13 0.15 0.18 0.20 0.24
0.02 0.01 0.02 0.04 0.05 0.06 0.06 0.07 0.06 0.06 0.07 0.06 0.06 0.06 0.06 0.06 0.05 0.04 0.04 0.04 0.04 0.04 0.07 0.07 0.08 0.11 0.13 0.14 0.12 0.12 0.14 0.14 0.13 0.13 0.10 0.09 0.09 0.11 0.14 0.17 0.21 0.26 0.30

GEFSGL_prec_meanprecacc_072.txt.gz
Total_Precipitation_Accumulation
0.82 0.87 0.84 0.85 0.93 1.18 1.37 1.27 1.05 0.98 0.97 0.91 0.84 0.91 1.02 1.11 1.21 1.30 1.35 1.37 1.37 1.41 1.28 1.23 1.31 1.34 1.45 1.43 1.40 1.31 1.20 1.08 1.00 0.83 0.56 0.33 0.22 0.16 0.12 0.07 0.04 0.03 0.03
0.63 0.70 0.75 0.74 0.82 0.93 0.99 0.97 0.86 0.74 0.70 0.71 0.77 0.78 0.84 0.93 1.01 1.04 1.07 1.14 1.15 1.17 1.17 1.08 1.07 1.14 1.20 1.33 1.38 1.36 1.29 1.15 1.08 0.99 0.72 0.48 0.33 0.24 0.17 0.11 0.06 0.05 0.04
0.58 0.64 0.71 0.71 0.71 0.70 0.67 0.59 0.60 0.60 0.59 0.60 0.70 0.75 0.78 0.83 0.97 0.98 0.95 0.95 0.97 0.94 0.96 0.97 0.98 1.01 1.10 1.16 1.11 1.16 1.21 1.21 1.17 1.06 0.86 0.64 0.47 0.31 0.21 0.15 0.10 0.09 0.08
0.72 0.79 0.82 0.82 0.78 0.74 0.70 0.62 0.60 0.61 0.63 0.67 0.76 0.79 0.78 0.84 0.87 0.89 0.92 0.90 0.83 0.77 0.76 0.75 0.75 0.77 0.84 1.02 0.99 0.95 1.03 1.11 1.22 1.18 1.02 0.73 0.54 0.41 0.29 0.23 0.22 0.20 0.15
0.64 0.75 0.80 0.81 0.80 0.75 0.67 0.61 0.61 0.57 0.54 0.61 0.68 0.78 0.85 0.87 0.81 0.86 0.91 0.91 0.83 0.72 0.68 0.66 0.66 0.71 0.83 0.85 0.80 0.89 1.00 1.02 1.08 1.11 1.07 0.89 0.67 0.50 0.36 0.31 0.29 0.29 0.25
0.54 0.63 0.78 0.83 0.75 0.70 0.61 0.57 0.58 0.54 0.50 0.53 0.57 0.72 0.86 0.80 1.07 1.08 0.94 0.88 0.82 0.69 0.63 0.59 0.53 0.53 0.68 0.86 0.89 0.87 0.92 1.01 1.02 1.00 0.97 0.88 0.76 0.65 0.57 0.49 0.38 0.31 0.29
0.48 0.59 0.78 0.78 0.67 0.62 0.66 0.67 0.61 0.58 0.58 0.59 0.58 0.60 0.67 0.85 0.78 0.66 0.66 0.63 0.70 0.65 0.55 0.49 0.40 0.38 0.46 0.55 0.60 0.59 0.72 0.92 1.03 1.00 0.88 0.83 0.86 0.78 0.65 0.54 0.47 0.41 0.40
0.40 0.49 0.63 0.65 0.63 0.66 0.66 0.63 0.56 0.52 0.51 0.51 0.52 0.53 0.58 0.64 0.53 0.45 0.45 0.43 0.54 0.54 0.48 0.44 0.41 0.38 0.41 0.48 0.55 0.58 0.61 0.71 0.86 0.81 0.72 0.75 0.77 0.73 0.66 0.61 0.59 0.53 0.45
0.27 0.35 0.44 0.47 0.51 0.54 0.54 0.54 0.50 0.44 0.44 0.44 0.47 0.52 0.57 0.54 0.47 0.38 0.35 0.43 0.53 0.49 0.43 0.44 0.42 0.42 0.54 0.57 0.50 0.51 0.61 0.62 0.75 0.78 0.83 0.80 0.66 0.53 0.53 0.55 0.58 0.56 0.52
0.19 0.25 0.33 0.36 0.40 0.42 0.47 0.50 0.49 0.45 0.41 0.39 0.39 0.41 0.48 0.48 0.51 0.33 0.36 0.50 0.57 0.57 0.55 0.51 0.57 0.55 0.62 0.58 0.47 0.54 0.67 0.56 0.51 0.56 0.56 0.54 0.45 0.38 0.42 0.42 0.52 0.58 0.54
0.11 0.15 0.22 0.30 0.37 0.45 0.50 0.51 0.53 0.49 0.44 0.42 0.46 0.44 0.43 0.50 0.56 0.45 0.43 0.48 0.63 0.64 0.61 0.59 0.54 0.56 0.54 0.55 0.54 0.61 0.78 0.66 0.50 0.51 0.55 0.51 0.39 0.33 0.35 0.38 0.43 0.50 0.52
0.06 0.11 0.18 0.26 0.33 0.41 0.50 0.52 0.52 0.52 0.51 0.51 0.51 0.53 0.51 0.49 0.51 0.50 0.46 0.49 0.54 0.58 0.63 0.59 0.55 0.52 0.40 0.41 0.41 0.51 0.73 0.67 0.49 0.50 0.55 0.54 0.47 0.40 0.38 0.36 0.36 0.39 0.41
0.02 0.06 0.11 0.15 0.19 0.24 0.32 0.39 0.45 0.49 0.51 0.51 0.55 0.62 0.63 0.56 0.56 0.63 0.45 0.38 0.41 0.45 0.48 0.56 0.53 0.44 0.34 0.28 0.31 0.38 0.51 0.67 0.63 0.54 0.50 0.47 0.47 0.45 0.42 0.36 0.30 0.29 0.29
0.01 0.03 0.05 0.06 0.07 0.10 0.19 0.27 0.34 0.41 0.46 0.54 0.59 0.68 0.75 0.68 0.60 0.54 0.43 0.37 0.36 0.34 0.31 0.32 0.33 0.32 0.30 0.28 0.27 0.30 0.43 0.61 0.66 0.58 0.49 0.47 0.48 0.45 0.39 0.34 0.32 0.31 0.29
0.01 0.01 0.02 0.04 0.05 0.08 0.14 0.22 0.27 0.34 0.36 0.41 0.51 0.62 0.66 0.65 0.63 0.67 0.63 0.57 0.53 0.50 0.43 0.34 0.29 0.30 0.34 0.37 0.36 0.34 0.39 0.50 0.53 0.49 0.44 0.41 0.42 0.44 0.40 0.33 0.29 0.27 0.26
0.06 0.03 0.02 0.03 0.06 0.08 0.11 0.13 0.12 0.16 0.16 0.20 0.25 0.30 0.34 0.37 0.38 0.36 0.42 0.47 0.45 0.41 0.49 0.54 0.51 0.49 0.48 0.45 0.44 0.34 0.29 0.34 0.41 0.43 0.41 0.37 0.36 0.39 0.41 0.36 0.33 0.30 0.26
0.14 0.11 0.07 0.05 0.05 0.06 0.07 0.09 0.10 0.07 0.05 0.07 0.08 0.14 0.20 0.21 0.21 0.21 0.24 0.30 0.38 0.39 0.50 0.55 0.50 0.43 0.39 0.36 0.36 0.32 0.27 0.28 0.31 0.34 0.35 0.36 0.36 0.38 0.43 0.44 0.41 0.38 0.34
0.03 0.03 0.05 0.08 0.05 0.04 0.07 0.13 0.18 0.20 0.15 0.08 0.04 0.06 0.11 0.14 0.16 0.17 0.20 0.24 0.24 0.27 0.36 0.43 0.40 0.35 0.29 0.27 0.24 0.22 0.22 0.23 0.24 0.26 0.29 0.32 0.36 0.39 0.42 0.47 0.50 0.47 0.44
0.01 0.03 0.09 0.10 0.06 0.05 0.10 0.18 0.20 0.19 0.18 0.12 0.05 0.03 0.04 0.06 0.08 0.10 0.13 0.17 0.15 0.13 0.17 0.24 0.27 0.26 0.22 0.17 0.13 0.11 0.10 0.10 0.11 0.15 0.20 0.24 0.29 0.35 0.40 0.42 0.45 0.49 0.50
0.02 0.02 0.09 0.14 0.08 0.08 0.10 0.10 0.10 0.12 0.10 0.07 0.05 0.05 0.04 0.06 0.06 0.05 0.05 0.07 0.08 0.07 0.09 0.13 0.16 0.17 0.15 0.13 0.10 0.08 0.07 0.08 0.07 0.08 0.11 0.16 0.20 0.24 0.29 0.35 0.41 0.43 0.42
0.06 0.03 0.03 0.14 0.17 0.14 0.12 0.10 0.11 0.13 0.09 0.05 0.03 0.01 0.02 0.05 0.07 0.06 0.05 0.06 0.07 0.08 0.08 0.09 0.10 0.14 0.12 0.11 0.10 0.10 0.08 0.07 0.07 0.08 0.08 0.09 0.12 0.16 0.19 0.21 0.24 0.29 0.34
0.02 0.03 0.04 0.13 0.18 0.14 0.11 0.11 0.12 0.10 0.08 0.05 0.03 0.01 0.02 0.04 0.05 0.06 0.05 0.06 0.07 0.08 0.08 0.06 0.08 0.11 0.12 0.10 0.09 0.10 0.09 0.08 0.07 0.08 0.09 0.10 0.10 0.10 0.11 0.12 0.13 0.15 0.18
0.01 0.02 0.03 0.07 0.08 0.04 0.05 0.08 0.09 0.09 0.06 0.04 0.03 0.02 0.02 0.03 0.04 0.04 0.04 0.07 0.10 0.11 0.08 0.06 0.08 0.12 0.14 0.14 0.12 0.12 0.12 0.12 0.10 0.08 0.09 0.10 0.12 0.12 0.11 0.11 0.11 0.13 0.15
0.01 0.01 0.02 0.04 0.04 0.05 0.08 0.09 0.07 0.06 0.06 0.04 0.03 0.03 0.04 0.05 0.04 0.04 0.05 0.07 0.10 0.11 0.08 0.07 0.07 0.09 0.12 0.15 0.16 0.16 0.15 0.14 0.11 0.08 0.08 0.09 0.10 0.10 0.11 0.12 0.13 0.15 0.17
0.02 0.01 0.02 0.03 0.04 0.05 0.05 0.07 0.07 0.06 0.07 0.06 0.05 0.04 0.04 0.05 0.06 0.04 0.03 0.04 0.06 0.06 0.05 0.05 0.07 0.11 0.13 0.14 0.16 0.18 0.23 0.22 0.16 0.11 0.09 0.09 0.10 0.11 0.13 0.15 0.18 0.20 0.24
0.02 0.01 0.02 0.04 0.05 0.06 0.06 0.07 0.06 0.06 0.07 0.06 0.06 0.06 0.06 0.06 0.05 0.04 0.04 0.04 0.04 0.04 0.07 0.07 0.08 0.11 0.13 0.14 0.12 0.12 0.14 0.14 0.13 0.13 0.10 0.09 0.09 0.11 0.14 0.17 0.21 0.26 0.30

GEFSGL_prec_meanprecacc_078.txt.gz
Total_Precipitation_Accumulation
0.86 0.91 0.89 0.91 0.99 1.27 1.48 1.38 1.19 1.14 1.13 1.08 1.02 1.09 1.20 1.29 1.38 1.46 1.53 1.56 1.57 1.62 1.52 1.44 1.48 1.49 1.64 1.62 1.57 1.47 1.36 1.24 1.16 0.99 0.69 0.42 0.29 0.21 0.16 0.10 0.07 0.06 0.05
0.69 0.74 0.80 0.79 0.87 0.99 1.08 1.08 0.98 0.88 0.85 0.88 0.93 0.92 0.98 1.09 1.16 1.17 1.23 1.30 1.33 1.37 1.40 1.30 1.24 1.27 1.34 1.49 1.55 1.52 1.46 1.31 1.24 1.17 0.88 0.60 0.41 0.29 0.21 0.15 0.09 0.08 0.07
0.62 0.67 0.74 0.75 0.75 0.75 0.75 0.68 0.69 0.70 0.72 0.74 0.87 0.91 0.95 0.97 1.11 1.11 1.08 1.08 1.13 1.12 1.16 1.18 1.18 1.17 1.23 1.30 1.25 1.30 1.35 1.36 1.31 1.21 1.02 0.77 0.56 0.38 0.26 0.20 0.14 0.12 0.09
0.74 0.80 0.84 0.84 0.81 0.79 0.76 0.70 0.67 0.67 0.72 0.80 0.92 0.98 1.00 1.00 0.99 1.01 1.04 1.03 0.96 0.91 0.90 0.90 0.93 0.98 1.04 1.19 1.15 1.10 1.17 1.25 1.38 1.35 1.16 0.85 0.65 0.49 0.37 0.31 0.29 0.26 0.19
0.65 0.76 0.81 0.83 0.83 0.79 0.70 0.66 0.68 0.63 0.60 0.70 0.81 0.93 1.02 1.04 0.94 0.98 1.02 1.04 0.97 0.85 0.78 0.77 0.77 0.85 1.01 1.04 0.98 1.08 1.17 1.17 1.25 1.28 1.23 1.03 0.79 0.60 0.44 0.38 0.37 0.38 0.30
0.54 0.64 0.79 0.85 0.77 0.72 0.65 0.63 0.64 0.60 0.55 0.59 0.67 0.82 0.95 0.90 1.19 1.20 1.06 1.02 0.97 0.84 0.75 0.71 0.66 0.66 0.82 1.03 1.05 1.06 1.12 1.20 1.21 1.16 1.12 1.01 0.89 0.76 0.66 0.55 0.44 0.37 0.34
0.48 0.60 0.78 0.79 0.68 0.63 0.68 0.71 0.66 0.62 0.62 0.63 0.64 0.66 0.73 0.92 0.90 0.76 0.79 0.78 0.86 0.82 0.70 0.61 0.53 0.52 0.60 0.68 0.73 0.72 0.87 1.08 1.18 1.14 1.01 0.94 0.94 0.84 0.70 0.60 0.53 0.46 0.44
0.40 0.49 0.64 0.66 0.64 0.67 0.68 0.66 0.60 0.55 0.52 0.54 0.55 0.58 0.63 0.70 0.63 0.58 0.62 0.57 0.69 0.71 0.64 0.58 0.53 0.50 0.54 0.61 0.67 0.69 0.71 0.79 0.93 0.87 0.77 0.80 0.82 0.77 0.70 0.65 0.63 0.56 0.48
0.27 0.36 0.45 0.48 0.53 0.55 0.55 0.56 0.52 0.47 0.46 0.46 0.48 0.55 0.62 0.59 0.55 0.51 0.52 0.60 0.71 0.69 0.60 0.58 0.53 0.51 0.64 0.68 0.62 0.61 0.69 0.68 0.79 0.83 0.87 0.85 0.71 0.58 0.56 0.58 0.61 0.59 0.54
0.20 0.26 0.34 0.37 0.41 0.43 0.48 0.51 0.51 0.47 0.43 0.41 0.41 0.43 0.50 0.51 0.56 0.44 0.51 0.67 0.76 0.76 0.70 0.62 0.67 0.63 0.70 0.68 0.59 0.64 0.73 0.60 0.54 0.59 0.58 0.56 0.48 0.41 0.45 0.46 0.56 0.62 0.57
0.11 0.16 0.22 0.30 0.37 0.45 0.51 0.52 0.54 0.51 0.46 0.43 0.48 0.46 0.44 0.51 0.59 0.52 0.54 0.61 0.78 0.81 0.77 0.71 0.62 0.63 0.61 0.64 0.63 0.68 0.84 0.69 0.52 0.54 0.58 0.54 0.41 0.35 0.36 0.40 0.45 0.53 0.55
0.06 0.11 0.18 0.26 0.33 0.41 0.51 0.54 0.53 0.53 0.52 0.53 0.53 0.54 0.52 0.49 0.53 0.54 0.52 0.59 0.66 0.69 0.73 0.69 0.62 0.60 0.46 0.47 0.47 0.56 0.79 0.71 0.52 0.53 0.58 0.57 0.49 0.42 0.39 0.36 0.36 0.39 0.41
0.02 0.06 0.11 0.15 0.19 0.25 0.32 0.41 0.47 0.51 0.52 0.53 0.57 0.63 0.64 0.57 0.58 0.65 0.49 0.45 0.48 0.51 0.53 0.61 0.57 0.48 0.38 0.31 0.34 0.41 0.55 0.72 0.68 0.57 0.51 0.48 0.48 0.46 0.42 0.36 0.30 0.29 0.29
0.01 0.03 0.05 0.06 0.07 0.10 0.20 0.28 0.35 0.42 0.47 0.55 0.61 0.69 0.76 0.70 0.62 0.56 0.45 0.40 0.39 0.37 0.35 0.36 0.35 0.34 0.33 0.31 0.30 0.33 0.46 0.65 0.71 0.62 0.51 0.48 0.49 0.45 0.39 0.34 0.33 0.31 0.30
0.01 0.01 0.02 0.04 0.06 0.08 0.14 0.22 0.27 0.34 0.37 0.41 0.51 0.63 0.67 0.65 0.64 0.68 0.65 0.60 0.55 0.52 0.46 0.38 0.33 0.34 0.38 0.40 0.39 0.36 0.41 0.52 0.55 0.51 0.46 0.43 0.44 0.46 0.41 0.34 0.31 0.28 0.27
0.06 0.03 0.02 0.03 0.06 0.08 0.11 0.13 0.13 0.16 0.16 0.20 0.25 0.30 0.34 0.37 0.38 0.37 0.43 0.49 0.48 0.45 0.56 0.59 0.54 0.54 0.52 0.49 0.47 0.37 0.31 0.35 0.43 0.45 0.43 0.39 0.37 0.40 0.41 0.37 0.34 0.32 0.27
0.14 0.11 0.07 0.05 0.05 0.06 0.07 0.09 0.11 0.07 0.05 0.07 0.08 0.14 0.20 0.21 0.21 0.21 0.24 0.31 0.39 0.43 0.57 0.60 0.53 0.45 0.41 0.38 0.39 0.34 0.29 0.28 0.32 0.36 0.37 0.37 0.36 0.38 0.43 0.45 0.42 0.38 0.35
0.03 0.03 0.05 0.08 0.05 0.04 0.07 0.13 0.19 0.21 0.15 0.08 0.04 0.06 0.11 0.14 0.16 0.17 0.20 0.24 0.25 0.30 0.39 0.46 0.42 0.36 0.30 0.29 0.27 0.24 0.23 0.23 0.25 0.27 0.30 0.32 0.36 0.40 0.42 0.47 0.51 0.48 0.44
0.01 0.03 0.09 0.10 0.06 0.05 0.10 0.18 0.20 0.19 0.18 0.12 0.06 0.03 0.04 0.06 0.08 0.10 0.13 0.18 0.18 0.15 0.18 0.25 0.28 0.27 0.23 0.18 0.14 0.11 0.11 0.10 0.12 0.16 0.21 0.25 0.29 0.35 0.40 0.43 0.45 0.49 0.50
0.02 0.02 0.09 0.14 0.08 0.08 0.10 0.10 0.10 0.12 0.10 0.07 0.06 0.05 0.04 0.06 0.07 0.05 0.05 0.07 0.08 0.08 0.10 0.14 0.16 0.18 0.16 0.14 0.11 0.08 0.08 0.09 0.08 0.09 0.13 0.18 0.21 0.25 0.29 0.36 0.41 0.43 0.42
0.06 0.03 0.03 0.14 0.17 0.14 0.12 0.10 0.11 0.13 0.09 0.05 0.03 0.01 0.02 0.05 0.07 0.06 0.05 0.06 0.07 0.08 0.09 0.09 0.10 0.14 0.13 0.12 0.11 0.10 0.08 0.08 0.08 0.09 0.09 0.11 0.13 0.16 0.19 0.21 0.24 0.29 0.34
0.02 0.03 0.04 0.13 0.18 0.14 0.11 0.11 0.12 0.10 0.08 0.05 0.03 0.01 0.02 0.04 0.05 0.06 0.05 0.06 0.07 0.08 0.08 0.06 0.08 0.11 0.12 0.10 0.09 0.10 0.10 0.08 0.07 0.08 0.10 0.11 0.11 0.10 0.11 0.12 0.13 0.15 0.18
0.01 0.02 0.03 0.07 0.08 0.04 0.05 0.08 0.09 0.09 0.06 0.04 0.03 0.02 0.02 0.03 0.04 0.04 0.04 0.07 0.10 0.11 0.08 0.06 0.08 0.12 0.14 0.14 0.12 0.13 0.13 0.12 0.10 0.08 0.09 0.11 0.12 0.13 0.12 0.12 0.12 0.13 0.15
0.01 0.01 0.02 0.04 0.04 0.05 0.08 0.09 0.07 0.06 0.06 0.04 0.03 0.03 0.04 0.05 0.04 0.04 0.05 0.07 0.10 0.11 0.08 0.07 0.07 0.09 0.12 0.15 0.16 0.16 0.15 0.14 0.11 0.08 0.08 0.09 0.10 0.11 0.12 0.12 0.14 0.15 0.18
0.02 0.01 0.02 0.03 0.04 0.05 0.05 0.07 0.07 0.06 0.07 0.06 0.05 0.04 0.04 0.05 0.06 0.04 0.03 0.04 0.06 0.06 0.05 0.05 0.07 0.11 0.13 0.14 0.16 0.18 0.23 0.22 0.16 0.11 0.09 0.09 0.10 0.11 0.13 0.15 0.18 0.20 0.24
0.02 0.01 0.02 0.04 0.05 0.06 0.06 0.07 0.06 0.06 0.07 0.06 0.06 0.06 0.06 0.06 0.05 0.04 0.04 0.04 0.04 0.04 0.07 0.07 0.08 0.11 0.13 0.14 0.12 0.12 0.14 0.14 0.13 0.13 0.10 0.09 0.09 0.11 0.14 0.17 0.21 0.26 0.30

GEFSGL_prec_meanprecacc_084.txt.gz
Total_Precipitation_Accumulation
0.86 0.92 0.91 0.94 1.04 1.32 1.53 1.45 1.25 1.20 1.19 1.14 1.07 1.14 1.27 1.39 1.50 1.57 1.64 1.68 1.69 1.77 1.70 1.62 1.65 1.68 1.83 1.78 1.74 1.64 1.52 1.36 1.27 1.09 0.79 0.58 0.50 0.42 0.34 0.22 0.14 0.10 0.08
0.70 0.76 0.82 0.82 0.91 1.04 1.15 1.15 1.06 0.95 0.90 0.93 0.99 0.98 1.05 1.18 1.25 1.26 1.33 1.41 1.45 1.51 1.55 1.48 1.44 1.46 1.52 1.67 1.74 1.69 1.61 1.44 1.36 1.28 0.99 0.70 0.53 0.44 0.37 0.29 0.18 0.14 0.11
0.63 0.68 0.75 0.76 0.77 0.78 0.79 0.72 0.73 0.74 0.78 0.80 0.92 0.97 1.03 1.05 1.20 1.21 1.18 1.18 1.24 1.25 1.32 1.38 1.41 1.41 1.39 1.45 1.40 1.44 1.48 1.50 1.45 1.33 1.13 0.89 0.68 0.49 0.38 0.32 0.25 0.20 0.15
0.74 0.80 0.84 0.84 0.83 0.81 0.79 0.75 0.72 0.72 0.78 0.86 1.00 1.07 1.09 1.08 1.08 1.11 1.14 1.14 1.08 1.03 1.04 1.05 1.13 1.22 1.23 1.34 1.27 1.23 1.30 1.39 1.51 1.47 1.26 0.96 0.77 0.61 0.47 0.42 0.42 0.35 0.26
0.65 0.76 0.81 0.84 0.84 0.80 0.72 0.69 0.72 0.67 0.64 0.74 0.90 1.04 1.10 1.12 1.06 1.09 1.12 1.16 1.10 0.96 0.91 0.90 0.89 0.99 1.17 1.21 1.13 1.21 1.30 1.28 1.36 1.40 1.33 1.12 0.90 0.72 0.57 0.50 0.47 0.46 0.37
0.54 0.64 0.80 0.85 0.79 0.74 0.66 0.64 0.66 0.63 0.58 0.62 0.73 0.91 1.01 1.01 1.35 1.32 1.14 1.11 1.09 0.95 0.85 0.81 0.76 0.75 0.92 1.15 1.19 1.19 1.26 1.31 1.31 1.26 1.23 1.12 0.99 0.87 0.78 0.67 0.54 0.45 0.42
0.48 0.60 0.79 0.80 0.69 0.64 0.69 0.73 0.67 0.64 0.64 0.66 0.68 0.71 0.78 1.01 1.01 0.83 0.86 0.86 0.97 0.90 0.78 0.68 0.59 0.59 0.68 0.76 0.83 0.85 1.01 1.21 1.30 1.24 1.09 1.03 1.04 0.92 0.79 0.68 0.60 0.53 0.51
0.41 0.50 0.65 0.67 0.66 0.69 0.69 0.66 0.61 0.56 0.53 0.55 0.58 0.62 0.67 0.77 0.72 0.64 0.68 0.65 0.79 0.78 0.70 0.66 0.60 0.56 0.61 0.68 0.74 0.78 0.82 0.90 1.04 0.96 0.86 0.86 0.87 0.82 0.75 0.70 0.68 0.62 0.53
0.28 0.36 0.46 0.49 0.54 0.56 0.55 0.56 0.52 0.47 0.47 0.47 0.51 0.59 0.66 0.65 0.64 0.61 0.62 0.71 0.84 0.79 0.69 0.67 0.62 0.58 0.72 0.77 0.70 0.69 0.77 0.77 0.88 0.90 0.94 0.90 0.75 0.61 0.60 0.61 0.64 0.63 0.59
0.20 0.27 0.34 0.37 0.41 0.43 0.48 0.51 0.51 0.47 0.44 0.43 0.44 0.47 0.55 0.58 0.67 0.54 0.63 0.79 0.87 0.85 0.80 0.73 0.77 0.73 0.80 0.78 0.68 0.72 0.82 0.67 0.59 0.63 0.62 0.60 0.51 0.44 0.49 0.49 0.58 0.65 0.61
0.11 0.16 0.23 0.30 0.37 0.45 0.51 0.52 0.55 0.52 0.47 0.44 0.50 0.49 0.49 0.57 0.67 0.61 0.64 0.70 0.85 0.88 0.86 0.83 0.72 0.75 0.71 0.74 0.73 0.77 0.92 0.75 0.57 0.57 0.61 0.57 0.44 0.38 0.39 0.43 0.48 0.55 0.57
0.06 0.11 0.18 0.26 0.33 0.41 0.51 0.54 0.54 0.54 0.53 0.53 0.53 0.55 0.54 0.53 0.58 0.60 0.60 0.64 0.70 0.74 0.82 0.78 0.69 0.69 0.56 0.56 0.55 0.62 0.84 0.76 0.56 0.56 0.60 0.59 0.51 0.44 0.42 0.39 0.39 0.42 0.43
0.02 0.06 0.11 0.15 0.19 0.25 0.32 0.41 0.47 0.51 0.53 0.53 0.57 0.64 0.65 0.59 0.62 0.70 0.55 0.49 0.52 0.55 0.58 0.66 0.61 0.54 0.44 0.38 0.40 0.47 0.60 0.75 0.71 0.59 0.52 0.49 0.49 0.47 0.44 0.38 0.32 0.31 0.30
0.01 0.03 0.05 0.06 0.07 0.10 0.20 0.28 0.35 0.42 0.47 0.55 0.61 0.69 0.77 0.71 0.64 0.57 0.47 0.42 0.41 0.39 0.38 0.38 0.38 0.38 0.37 0.35 0.34 0.37 0.49 0.67 0.73 0.64 0.52 0.49 0.50 0.47 0.40 0.35 0.34 0.32 0.30
0.01 0.01 0.02 0.04 0.06 0.08 0.14 0.22 0.27 0.34 0.37 0.41 0.51 0.63 0.67 0.66 0.64 0.69 0.66 0.61 0.56 0.53 0.47 0.39 0.35 0.36 0.41 0.43 0.41 0.37 0.42 0.53 0.56 0.52 0.47 0.43 0.44 0.46 0.41 0.35 0.31 0.28 0.27
0.06 0.03 0.02 0.03 0.06 0.08 0.11 0.13 0.13 0.16 0.16 0.20 0.25 0.30 0.34 0.37 0.38 0.37 0.43 0.50 0.49 0.46 0.57 0.60 0.55 0.55 0.54 0.51 0.49 0.38 0.32 0.37 0.45 0.46 0.44 0.39 0.38 0.41 0.42 0.37 0.34 0.32 0.27
0.14 0.11 0.07 0.05 0.05 0.06 0.07 0.10 0.11 0.07 0.05 0.07 0.08 0.14 0.20 0.21 0.21 0.21 0.25 0.32 0.40 0.44 0.58 0.61 0.54 0.46 0.42 0.40 0.40 0.35 0.30 0.30 0.33 0.37 0.38 0.38 0.36 0.38 0.43 0.45 0.42 0.39 0.35
0.03 0.03 0.05 0.08 0.05 0.04 0.07 0.13 0.19 0.21 0.15 0.08 0.04 0.06 0.11 0.14 0.16 0.18 0.20 0.25 0.26 0.31 0.40 0.47 0.43 0.37 0.31 0.29 0.28 0.24 0.23 0.24 0.26 0.28 0.31 0.33 0.36 0.40 0.42 0.47 0.51 0.48 0.44
0.01 0.03 0.09 0.10 0.06 0.05 0.10 0.18 0.20 0.19 0.18 0.12 0.06 0.03 0.04 0.06 0.08 0.10 0.13 0.19 0.18 0.15 0.18 0.26 0.30 0.28 0.23 0.18 0.14 0.13 0.12 0.11 0.13 0.16 0.21 0.25 0.29 0.35 0.40 0.43 0.45 0.49 0.50
0.02 0.02 0.09 0.14 0.08 0.08 0.10 0.10 0.10 0.12 0.10 0.07 0.06 0.05 0.04 0.06 0.07 0.05 0.05 0.08 0.09 0.08 0.10 0.14 0.17 0.18 0.16 0.14 0.11 0.09 0.09 0.09 0.09 0.10 0.14 0.19 0.22 0.25 0.29 0.36 0.41 0.43 0.42
0.06 0.03 0.03 0.14 0.17 0.14 0.12 0.10 0.11 0.13 0.09 0.05 0.03 0.01 0.02 0.05 0.07 0.06 0.05 0.06 0.07 0.08 0.09 0.09 0.10 0.14 0.13 0.12 0.11 0.10 0.09 0.08 0.08 0.09 0.10 0.11 0.13 0.16 0.19 0.21 0.24 0.29 0.34
0.02 0.03 0.04 0.13 0.18 0.14 0.11 0.11 0.12 0.10 0.08 0.05 0.03 0.01 0.02 0.04 0.05 0.06 0.05 0.06 0.07 0.08 0.08 0.06 0.08 0.11 0.12 0.10 0.09 0.10 0.10 0.09 0.07 0.08 0.11 0.12 0.11 0.11 0.11 0.12 0.13 0.15 0.18
0.01 0.02 0.03 0.07 0.08 0.04 0.05 0.08 0.09 0.09 0.06 0.04 0.03 0.02 0.02 0.03 0.04 0.04 0.04 0.07 0.10 0.11 0.08 0.06 0.08 0.12 0.14 0.14 0.12 0.13 0.13 0.12 0.10 0.08 0.09 0.12 0.13 0.14 0.12 0.12 0.12 0.14 0.16
0.01 0.01 0.02 0.04 0.04 0.05 0.08 0.09 0.07 0.06 0.06 0.04 0.03 0.03 0.04 0.05 0.04 0.04 0.05 0.07 0.10 0.11 0.08 0.07 0.07 0.09 0.12 0.15 0.16 0.16 0.15 0.14 0.11 0.08 0.08 0.09 0.10 0.12 0.13 0.13 0.14 0.16 0.18
0.02 0.01 0.02 0.03 0.04 0.05 0.05 0.07 0.07 0.06 0.07 0.06 0.05 0.04 0.04 0.05 0.06 0.04 0.03 0.04 0.06 0.06 0.05 0.05 0.07 0.11 0.13 0.14 0.16 0.18 0.23 0.22 0.16 0.11 0.09 0.09 0.10 0.11 0.13 0.16 0.18 0.21 0.24
0.02 0.01 0.02 0.04 0.05 0.06 0.06 0.07 0.06 0.06 0.07 0.06 0.06 0.06 0.06 0.06 0.05 0.04 0.04 0.04 0.04 0.04 0.07 0.07 0.08 0.11 0.13 0.14 0.12 0.12 0.14 0.14 0.13 0.13 0.10 0.09 0.09 0.11 0.14 0.17 0.21 0.26 0.30

GEFSGL_prec_meanprecacc_090.txt.gz
Total_Precipitation_Accumulation
0.86 0.93 0.91 0.95 1.05 1.33 1.54 1.47 1.27 1.24 1.24 1.20 1.11 1.16 1.29 1.41 1.52 1.61 1.68 1.72 1.73 1.83 1.78 1.71 1.75 1.81 1.98 1.94 1.88 1.78 1.65 1.47 1.33 1.16 0.85 0.64 0.58 0.52 0.45 0.34 0.26 0.21 0.15
0.70 0.76 0.82 0.83 0.92 1.04 1.16 1.17 1.09 0.98 0.93 0.97 1.02 1.01 1.08 1.21 1.28 1.30 1.37 1.44 1.49 1.57 1.62 1.55 1.54 1.57 1.64 1.81 1.88 1.82 1.75 1.60 1.47 1.36 1.07 0.79 0.62 0.54 0.50 0.43 0.32 0.26 0.21
0.63 0.68 0.75 0.77 0.78 0.79 0.80 0.74 0.77 0.78 0.81 0.82 0.95 1.00 1.06 1.09 1.23 1.25 1.23 1.23 1.30 1.32 1.40 1.46 1.49 1.52 1.50 1.56 1.53 1.57 1.62 1.66 1.62 1.47 1.26 1.02 0.81 0.62 0.52 0.48 0.40 0.36 0.29
0.74 0.80 0.84 0.85 0.84 0.82 0.80 0.76 0.74 0.77 0.81 0.88 1.03 1.11 1.12 1.11 1.11 1.14 1.17 1.17 1.12 1.07 1.09 1.12 1.22 1.33 1.36 1.47 1.42 1.35 1.41 1.53 1.69 1.64 1.44 1.15 0.96 0.78 0.63 0.58 0.60 0.54 0.45
0.65 0.77 0.81 0.84 0.86 0.81 0.73 0.71 0.74 0.71 0.68 0.78 0.94 1.12 1.16 1.15 1.09 1.12 1.16 1.20 1.14 1.01 0.95 0.94 0.97 1.08 1.29 1.35 1.28 1.35 1.43 1.42 1.51 1.56 1.50 1.31 1.08 0.88 0.72 0.64 0.63 0.67 0.58
0.54 0.64 0.80 0.86 0.79 0.74 0.67 0.65 0.67 0.66 0.61 0.65 0.78 0.99 1.08 1.06 1.41 1.38 1.20 1.19 1.16 1.02 0.91 0.87 0.82 0.82 1.00 1.24 1.31 1.34 1.41 1.47 1.46 1.41 1.39 1.29 1.16 1.03 0.94 0.84 0.71 0.63 0.63
0.48 0.60 0.79 0.80 0.69 0.64 0.70 0.74 0.70 0.68 0.67 0.69 0.71 0.74 0.82 1.07 1.09 0.91 0.96 0.99 1.07 0.99 0.86 0.76 0.67 0.65 0.75 0.83 0.92 0.98 1.16 1.38 1.47 1.39 1.23 1.16 1.20 1.09 0.97 0.87 0.79 0.70 0.65
0.41 0.50 0.65 0.67 0.66 0.69 0.69 0.67 0.62 0.58 0.56 0.58 0.60 0.64 0.69 0.82 0.80 0.74 0.82 0.76 0.88 0.87 0.78 0.72 0.67 0.64 0.69 0.76 0.83 0.89 0.95 1.05 1.19 1.11 0.99 0.99 1.04 1.03 0.96 0.89 0.86 0.79 0.68
0.28 0.36 0.46 0.49 0.54 0.56 0.55 0.56 0.52 0.48 0.50 0.50 0.54 0.61 0.68 0.68 0.69 0.66 0.69 0.78 0.91 0.86 0.75 0.73 0.68 0.67 0.82 0.87 0.79 0.79 0.90 0.91 1.03 1.07 1.12 1.07 0.93 0.83 0.80 0.77 0.78 0.77 0.74
0.20 0.27 0.34 0.37 0.41 0.43 0.48 0.51 0.51 0.48 0.46 0.45 0.46 0.48 0.57 0.61 0.72 0.59 0.67 0.83 0.93 0.91 0.86 0.79 0.84 0.81 0.89 0.89 0.77 0.81 0.93 0.79 0.73 0.78 0.80 0.77 0.66 0.59 0.63 0.61 0.69 0.75 0.71
0.11 0.16 0.23 0.30 0.37 0.45 0.51 0.52 0.55 0.52 0.47 0.46 0.51 0.50 0.50 0.61 0.72 0.66 0.68 0.74 0.92 0.94 0.93 0.89 0.78 0.82 0.78 0.82 0.84 0.86 1.02 0.85 0.70 0.70 0.74 0.69 0.56 0.50 0.52 0.55 0.59 0.64 0.65
0.06 0.11 0.18 0.26 0.33 0.41 0.51 0.54 0.54 0.54 0.53 0.54 0.54 0.56 0.56 0.55 0.60 0.63 0.64 0.69 0.79 0.83 0.89 0.84 0.75 0.76 0.63 0.62 0.65 0.76 0.96 0.86 0.66 0.67 0.72 0.72 0.63 0.55 0.52 0.50 0.50 0.51 0.51
0.02 0.06 0.11 0.15 0.19 0.25 0.32 0.41 0.47 0.51 0.53 0.53 0.57 0.65 0.67 0.61 0.63 0.71 0.57 0.53 0.60 0.64 0.66 0.72 0.68 0.62 0.53 0.46 0.51 0.60 0.71 0.84 0.79 0.69 0.63 0.60 0.59 0.56 0.51 0.45 0.40 0.38 0.36
0.01 0.03 0.05 0.06 0.07 0.10 0.20 0.28 0.35 0.42 0.47 0.55 0.61 0.69 0.77 0.72 0.65 0.58 0.48 0.44 0.46 0.45 0.42 0.42 0.43 0.44 0.44 0.43 0.43 0.47 0.59 0.76 0.81 0.71 0.59 0.55 0.55 0.52 0.46 0.40 0.39 0.38 0.35
0.01 0.01 0.02 0.04 0.06 0.08 0.14 0.22 0.27 0.34 0.37 0.41 0.51 0.63 0.67 0.66 0.65 0.70 0.67 0.62 0.57 0.55 0.50 0.42 0.37 0.39 0.44 0.48 0.48 0.46 0.50 0.60 0.64 0.58 0.51 0.48 0.49 0.50 0.45 0.38 0.34 0.31 0.29
0.06 0.03 0.02 0.03 0.06 0.08 0.11 0.13 0.13 0.16 0.16 0.20 0.25 0.30 0.34 0.37 0.38 0.37 0.43 0.50 0.49 0.46 0.57 0.61 0.56 0.56 0.56 0.53 0.52 0.43 0.38 0.41 0.49 0.51 0.47 0.42 0.41 0.43 0.44 0.39 0.35 0.33 0.29
0.14 0.11 0.07 0.05 0.05 0.06 0.07 0.10 0.11 0.07 0.05 0.07 0.08 0.14 0.20 0.21 0.21 0.21 0.25 0.32 0.40 0.44 0.58 0.61 0.54 0.47 0.43 0.40 0.41 0.37 0.32 0.32 0.35 0.40 0.40 0.40 0.38 0.39 0.44 0.46 0.43 0.39 0.35
0.03 0.03 0.05 0.08 0.05 0.04 0.07 0.13 0.19 0.21 0.15 0.08 0.04 0.06 0.11 0.14 0.16 0.18 0.20 0.25 0.26 0.31 0.40 0.47 0.43 0.37 0.31 0.30 0.28 0.25 0.24 0.26 0.27 0.30 0.32 0.34 0.37 0.40 0.43 0.47 0.51 0.48 0.45
0.01 0.03 0.09 0.10 0.06 0.05 0.10 0.18 0.20 0.19 0.18 0.12 0.06 0.03 0.04 0.06 0.08 0.10 0.13 0.19 0.18 0.15 0.18 0.27 0.30 0.28 0.23 0.18 0.15 0.13 0.12 0.12 0.13 0.17 0.22 0.26 0.30 0.35 0.40 0.43 0.45 0.49 0.50
0.02 0.02 0.09 0.14 0.08 0.08 0.10 0.10 0.10 0.12 0.10 0.07 0.06 0.05 0.04 0.06 0.07 0.05 0.05 0.08 0.09 0.08 0.10 0.14 0.17 0.18 0.16 0.14 0.11 0.09 0.09 0.10 0.09 0.11 0.14 0.19 0.22 0.25 0.29 0.36 0.41 0.43 0.42
0.06 0.03 0.03 0.14 0.17 0.14 0.12 0.10 0.11 0.13 0.09 0.05 0.03 0.01 0.02 0.05 0.07 0.06 0.05 0.06 0.07 0.08 0.09 0.09 0.10 0.14 0.13 0.12 0.11 0.10 0.09 0.09 0.08 0.09 0.10 0.11 0.13 0.16 0.19 0.21 0.24 0.29 0.34
0.02 0.03 0.04 0.13 0.18 0.14 0.11 0.11 0.12 0.10 0.08 0.05 0.03 0.01 0.02 0.04 0.05 0.06 0.05 0.06 0.07 0.08 0.08 0.06 0.08 0.11 0.12 0.10 0.09 0.10 0.10 0.09 0.07 0.09 0.11 0.12 0.11 0.11 0.11 0.12 0.13 0.15 0.18
0.01 0.02 0.03 0.07 0.08 0.04 0.05 0.08 0.09 0.09 0.06 0.04 0.03 0.02 0.02 0.03 0.04 0.04 0.04 0.07 0.10 0.11 0.08 0.06 0.08 0.12 0.14 0.14 0.12 0.13 0.13 0.12 0.10 0.08 0.09 0.12 0.13 0.14 0.12 0.12 0.12 0.14 0.16
0.01 0.01 0.02 0.04 0.04 0.05 0.08 0.09 0.07 0.06 0.06 0.04 0.03 0.03 0.04 0.05 0.04 0.04 0.05 0.07 0.10 0.11 0.08 0.07 0.07 0.09 0.12 0.15 0.16 0.16 0.15 0.14 0.11 0.08 0.08 0.09 0.10 0.12 0.13 0.13 0.14 0.16 0.18
0.02 0.01 0.02 0.03 0.04 0.05 0.05 0.07 0.07 0.06 0.07 0.06 0.05 0.04 0.04 0.05 0.06 0.04 0.03 0.04 0.06 0.06 0.05 0.05 0.07 0.11 0.13 0.14 0.16 0.18 0.23 0.22 0.16 0.12 0.09 0.09 0.10 0.11 0.13 0.16 0.18 0.21 0.24
0.02 0.01 0.02 0.04 0.05 0.06 0.06 0.07 0.06 0.06 0.07 0.06 0.06 0.06 0.06 0.06 0.05 0.04 0.04 0.04 0.04 0.04 0.07 0.07 0.08 0.11 0.13 0.14 0.12 0.12 0.14 0.14 0.13 0.13 0.10 0.09 0.10 0.11 0.14 0.17 0.21 0.26 0.30

GEFSGL_prec_meanprecacc_096.txt.gz
Total_Precipitation_Accumulation
0.87 0.93 0.91 0.95 1.05 1.34 1.55 1.48 1.30 1.28 1.28 1.23 1.14 1.19 1.33 1.46 1.56 1.64 1.72 1.75 1.76 1.87 1.82 1.75 1.81 1.89 2.09 2.04 1.99 1.91 1.78 1.62 1.48 1.25 0.91 0.69 0.64 0.57 0.52 0.41 0.32 0.27 0.21
0.70 0.76 0.83 0.83 0.92 1.05 1.17 1.19 1.12 1.03 0.98 1.01 1.04 1.03 1.11 1.25 1.33 1.34 1.41 1.47 1.52 1.61 1.67 1.60 1.60 1.65 1.75 1.92 1.98 1.93 1.88 1.74 1.62 1.49 1.17 0.87 0.69 0.61 0.57 0.51 0.40 0.32 0.26
0.63 0.68 0.75 0.77 0.79 0.81 0.82 0.76 0.79 0.81 0.85 0.87 0.98 1.04 1.10 1.14 1.29 1.30 1.27 1.27 1.33 1.37 1.47 1.53 1.56 1.58 1.58 1.66 1.63 1.68 1.74 1.81 1.78 1.62 1.40 1.12 0.91 0.72 0.62 0.57 0.50 0.45 0.37
0.74 0.80 0.85 0.86 0.85 0.84 0.82 0.78 0.77 0.79 0.85 0.93 1.09 1.16 1.17 1.17 1.15 1.19 1.22 1.21 1.15 1.11 1.15 1.19 1.30 1.41 1.44 1.55 1.51 1.46 1.52 1.65 1.83 1.81 1.61 1.29 1.09 0.93 0.78 0.72 0.74 0.66 0.54
0.65 0.77 0.82 0.85 0.86 0.82 0.75 0.72 0.76 0.74 0.72 0.84 1.00 1.16 1.20 1.19 1.13 1.17 1.21 1.24 1.17 1.04 1.00 1.02 1.04 1.17 1.40 1.45 1.38 1.47 1.56 1.54 1.62 1.70 1.66 1.47 1.24 1.03 0.84 0.75 0.74 0.78 0.70
0.54 0.64 0.80 0.87 0.80 0.75 0.67 0.66 0.69 0.67 0.64 0.70 0.84 1.03 1.12 1.10 1.48 1.44 1.26 1.24 1.20 1.05 0.95 0.94 0.90 0.91 1.09 1.34 1.42 1.46 1.56 1.62 1.59 1.54 1.53 1.41 1.29 1.17 1.08 0.97 0.83 0.75 0.78
0.48 0.60 0.80 0.81 0.70 0.65 0.70 0.74 0.71 0.68 0.68 0.71 0.74 0.78 0.87 1.14 1.19 0.98 1.00 1.03 1.10 1.02 0.90 0.82 0.72 0.70 0.82 0.90 1.01 1.08 1.28 1.55 1.65 1.56 1.38 1.29 1.31 1.21 1.12 1.02 0.92 0.84 0.80
0.41 0.50 0.65 0.67 0.66 0.69 0.69 0.67 0.62 0.58 0.56 0.59 0.61 0.65 0.72 0.86 0.86 0.80 0.87 0.81 0.93 0.91 0.82 0.77 0.72 0.68 0.74 0.81 0.90 0.98 1.04 1.14 1.30 1.25 1.15 1.14 1.17 1.18 1.11 1.05 1.04 0.98 0.89
0.28 0.36 0.46 0.49 0.54 0.56 0.55 0.56 0.52 0.48 0.50 0.51 0.54 0.62 0.70 0.70 0.72 0.69 0.74 0.83 0.97 0.91 0.79 0.78 0.73 0.71 0.87 0.93 0.86 0.87 1.00 1.03 1.14 1.21 1.30 1.28 1.13 1.03 1.01 0.97 0.99 0.98 0.97
0.20 0.27 0.34 0.37 0.41 0.43 0.48 0.51 0.51 0.48 0.46 0.46 0.47 0.51 0.60 0.63 0.75 0.62 0.69 0.86 0.97 0.97 0.92 0.84 0.90 0.87 0.96 0.93 0.84 0.90 1.02 0.90 0.85 0.91 0.97 0.99 0.88 0.80 0.85 0.81 0.87 0.91 0.86
0.11 0.16 0.23 0.30 0.37 0.45 0.51 0.52 0.55 0.52 0.47 0.46 0.52 0.54 0.54 0.63 0.75 0.70 0.71 0.78 0.96 0.98 0.99 0.96 0.85 0.90 0.87 0.90 0.93 0.97 1.13 0.95 0.81 0.84 0.93 0.92 0.80 0.72 0.71 0.72 0.76 0.81 0.79
0.06 0.11 0.18 0.26 0.33 0.42 0.51 0.54 0.54 0.54 0.53 0.54 0.55 0.58 0.57 0.56 0.62 0.66 0.67 0.73 0.84 0.86 0.93 0.89 0.81 0.83 0.70 0.72 0.76 0.90 1.11 0.98 0.78 0.81 0.88 0.90 0.82 0.75 0.71 0.67 0.66 0.66 0.66
0.02 0.06 0.11 0.15 0.19 0.25 0.32 0.41 0.47 0.51 0.53 0.53 0.58 0.66 0.68 0.61 0.64 0.73 0.59 0.56 0.63 0.67 0.68 0.75 0.71 0.66 0.59 0.55 0.62 0.72 0.83 0.94 0.90 0.82 0.77 0.74 0.73 0.70 0.67 0.60 0.56 0.54 0.51
0.01 0.03 0.05 0.06 0.07 0.10 0.20 0.28 0.35 0.42 0.47 0.55 0.62 0.70 0.78 0.72 0.65 0.59 0.50 0.47 0.49 0.48 0.44 0.44 0.46 0.48 0.47 0.49 0.53 0.56 0.67 0.84 0.92 0.84 0.72 0.68 0.68 0.65 0.62 0.53 0.51 0.53 0.50
0.01 0.01 0.02 0.04 0.06 0.08 0.14 0.22 0.27 0.34 0.37 0.41 0.52 0.64 0.68 0.66 0.65 0.70 0.67 0.63 0.60 0.58 0.53 0.45 0.41 0.43 0.48 0.52 0.54 0.54 0.60 0.69 0.74 0.71 0.64 0.59 0.60 0.63 0.61 0.53 0.46 0.42 0.40
0.06 0.03 0.02 0.03 0.06 0.08 0.11 0.13 0.13 0.16 0.16 0.20 0.25 0.30 0.34 0.37 0.39 0.38 0.44 0.51 0.51 0.49 0.60 0.63 0.60 0.62 0.61 0.59 0.59 0.53 0.48 0.51 0.60 0.63 0.59 0.52 0.51 0.54 0.56 0.51 0.47 0.43 0.38
0.14 0.11 0.07 0.05 0.05 0.06 0.07 0.10 0.11 0.07 0.05 0.07 0.08 0.14 0.20 0.21 0.22 0.22 0.25 0.32 0.40 0.45 0.60 0.62 0.55 0.48 0.46 0.44 0.47 0.46 0.44 0.42 0.44 0.49 0.49 0.48 0.45 0.47 0.53 0.55 0.52 0.47 0.42
0.03 0.03 0.05 0.08 0.05 0.04 0.07 0.13 0.19 0.21 0.15 0.08 0.04 0.06 0.11 0.14 0.16 0.18 0.20 0.25 0.27 0.31 0.41 0.48 0.43 0.37 0.32 0.31 0.30 0.28 0.30 0.33 0.35 0.37 0.40 0.41 0.43 0.45 0.47 0.53 0.57 0.53 0.48
0.01 0.03 0.09 0.10 0.06 0.05 0.10 0.18 0.20 0.19 0.18 0.12 0.06 0.03 0.04 0.06 0.08 0.10 0.13 0.19 0.18 0.16 0.18 0.27 0.30 0.28 0.24 0.19 0.15 0.14 0.14 0.15 0.18 0.23 0.28 0.32 0.34 0.39 0.43 0.46 0.48 0.52 0.52
0.02 0.02 0.09 0.14 0.08 0.08 0.10 0.10 0.10 0.12 0.10 0.07 0.06 0.05 0.04 0.06 0.07 0.05 0.05 0.08 0.09 0.08 0.10 0.14 0.17 0.18 0.16 0.15 0.12 0.09 0.10 0.11 0.11 0.14 0.18 0.24 0.26 0.27 0.31 0.37 0.42 0.44 0.43
0.06 0.03 0.03 0.14 0.17 0.14 0.12 0.10 0.11 0.13 0.09 0.05 0.03 0.01 0.02 0.05 0.07 0.06 0.05 0.06 0.07 0.08 0.09 0.09 0.10 0.14 0.13 0.12 0.11 0.11 0.10 0.10 0.09 0.11 0.12 0.14 0.16 0.18 0.20 0.22 0.25 0.30 0.34
0.02 0.03 0.04 0.13 0.18 0.14 0.11 0.11 0.12 0.10 0.08 0.05 0.03 0.01 0.02 0.04 0.05 0.06 0.05 0.06 0.07 0.08 0.08 0.06 0.08 0.11 0.12 0.10 0.09 0.11 0.11 0.10 0.08 0.09 0.11 0.13 0.13 0.12 0.12 0.13 0.14 0.16 0.19
0.01 0.02 0.03 0.07 0.08 0.04 0.05 0.08 0.09 0.09 0.06 0.04 0.03 0.02 0.02 0.03 0.04 0.04 0.04 0.07 0.10 0.11 0.08 0.06 0.08 0.12 0.14 0.14 0.12 0.13 0.13 0.12 0.11 0.09 0.10 0.12 0.13 0.14 0.13 0.12 0.12 0.14 0.16
0.01 0.01 0.02 0.04 0.04 0.05 0.08 0.09 0.07 0.06 0.06 0.04 0.03 0.03 0.04 0.05 0.04 0.04 0.05 0.07 0.10 0.11 0.08 0.07 0.07 0.09 0.12 0.15 0.16 0.16 0.15 0.14 0.11 0.08 0.08 0.09 0.11 0.12 0.13 0.13 0.15 0.16 0.19
0.02 0.01 0.02 0.03 0.04 0.05 0.05 0.07 0.07 0.06 0.07 0.06 0.05 0.04 0.04 0.05 0.06 0.04 0.03 0.04 0.06 0.06 0.05 0.05 0.07 0.11 0.13 0.14 0.16 0.18 0.23 0.22 0.16 0.12 0.09 0.09 0.10 0.12 0.13 0.16 0.18 0.21 0.24
0.02 0.01 0.02 0.04 0.05 0.06 0.06 0.07 0.06 0.06 0.07 0.07 0.06 0.06 0.06 0.06 0.05 0.04 0.04 0.04 0.04 0.04 0.07 0.07 0.08 0.11 0.14 0.14 0.12 0.12 0.14 0.14 0.13 0.13 0.10 0.09 0.10 0.12 0.14 0.17 0.21 0.26 0.30

GEFSGL_prec_meanprecacc_102.txt.gz
Total_Precipitation_Accumulation
0.87 0.93 0.92 0.97 1.06 1.35 1.56 1.50 1.32 1.31 1.34 1.30 1.20 1.26 1.41 1.55 1.64 1.73 1.79 1.82 1.83 1.94 1.89 1.83 1.89 1.99 2.21 2.14 2.09 2.01 1.89 1.76 1.63 1.41 1.06 0.80 0.78 0.74 0.66 0.53 0.41 0.35 0.27
0.70 0.77 0.84 0.85 0.94 1.07 1.18 1.21 1.14 1.06 1.02 1.06 1.09 1.09 1.17 1.33 1.41 1.43 1.48 1.54 1.59 1.68 1.73 1.67 1.67 1.74 1.86 2.04 2.09 2.03 1.98 1.87 1.76 1.63 1.31 0.97 0.79 0.75 0.70 0.65 0.51 0.41 0.34
0.64 0.69 0.77 0.79 0.82 0.84 0.85 0.78 0.81 0.84 0.89 0.93 1.05 1.09 1.17 1.23 1.37 1.39 1.35 1.33 1.38 1.43 1.53 1.58 1.61 1.65 1.66 1.76 1.73 1.78 1.85 1.93 1.93 1.76 1.54 1.25 1.02 0.85 0.76 0.71 0.61 0.54 0.44
0.74 0.81 0.86 0.87 0.87 0.87 0.85 0.80 0.80 0.82 0.87 0.97 1.14 1.21 1.22 1.22 1.21 1.26 1.30 1.28 1.21 1.18 1.21 1.24 1.34 1.46 1.49 1.62 1.58 1.54 1.64 1.79 1.99 1.94 1.75 1.44 1.22 1.05 0.91 0.86 0.86 0.76 0.63
0.65 0.77 0.83 0.86 0.87 0.84 0.77 0.75 0.79 0.76 0.74 0.88 1.04 1.20 1.24 1.21 1.16 1.22 1.27 1.29 1.23 1.11 1.06 1.07 1.09 1.22 1.45 1.52 1.43 1.54 1.65 1.67 1.77 1.82 1.78 1.60 1.36 1.15 0.95 0.86 0.85 0.89 0.80
0.55 0.65 0.81 0.87 0.80 0.76 0.69 0.68 0.70 0.69 0.66 0.75 0.89 1.06 1.14 1.12 1.49 1.46 1.29 1.28 1.24 1.11 1.01 1.00 0.95 0.95 1.15 1.40 1.47 1.51 1.63 1.71 1.71 1.66 1.64 1.51 1.36 1.24 1.16 1.06 0.94 0.85 0.87
0.48 0.60 0.80 0.81 0.70 0.65 0.71 0.75 0.71 0.69 0.70 0.74 0.78 0.80 0.89 1.17 1.20 1.00 1.03 1.06 1.15 1.08 0.95 0.86 0.76 0.73 0.87 0.96 1.07 1.14 1.33 1.61 1.73 1.66 1.50 1.40 1.40 1.30 1.21 1.11 1.01 0.92 0.88
0.41 0.50 0.65 0.68 0.66 0.69 0.70 0.68 0.63 0.59 0.57 0.61 0.63 0.67 0.74 0.88 0.88 0.82 0.90 0.85 0.97 0.96 0.88 0.81 0.77 0.73 0.79 0.86 0.96 1.05 1.10 1.19 1.35 1.32 1.24 1.25 1.30 1.31 1.24 1.18 1.17 1.12 1.03
0.28 0.37 0.46 0.50 0.54 0.57 0.56 0.56 0.52 0.49 0.50 0.52 0.56 0.63 0.71 0.71 0.74 0.71 0.76 0.86 0.99 0.94 0.83 0.83 0.79 0.77 0.92 0.98 0.93 0.95 1.06 1.10 1.21 1.28 1.39 1.40 1.27 1.17 1.16 1.13 1.16 1.16 1.14
0.20 0.27 0.34 0.37 0.41 0.43 0.48 0.51 0.51 0.48 0.46 0.46 0.48 0.53 0.61 0.64 0.76 0.63 0.71 0.88 0.99 0.99 0.94 0.85 0.93 0.92 1.02 0.99 0.92 0.98 1.08 0.97 0.91 0.96 1.03 1.08 0.97 0.91 0.97 0.93 1.00 1.04 0.98
0.11 0.16 0.23 0.30 0.38 0.45 0.51 0.52 0.55 0.52 0.47 0.46 0.53 0.55 0.54 0.64 0.76 0.70 0.72 0.79 0.98 1.00 1.01 0.97 0.86 0.92 0.90 0.94 1.00 1.05 1.20 1.03 0.88 0.92 1.00 1.00 0.90 0.83 0.81 0.84 0.89 0.94 0.91
0.06 0.11 0.18 0.26 0.33 0.42 0.51 0.54 0.54 0.54 0.53 0.54 0.56 0.59 0.57 0.56 0.63 0.66 0.67 0.73 0.84 0.87 0.95 0.91 0.82 0.84 0.72 0.75 0.81 0.94 1.17 1.06 0.87 0.91 0.97 0.98 0.91 0.85 0.83 0.80 0.81 0.82 0.81
0.03 0.06 0.11 0.15 0.19 0.25 0.33 0.41 0.47 0.51 0.53 0.54 0.58 0.66 0.68 0.61 0.65 0.74 0.60 0.57 0.64 0.68 0.70 0.77 0.73 0.68 0.60 0.57 0.66 0.78 0.90 1.03 1.00 0.91 0.87 0.84 0.81 0.78 0.78 0.74 0.71 0.69 0.65
0.01 0.03 0.05 0.06 0.07 0.10 0.20 0.28 0.35 0.42 0.48 0.55 0.62 0.70 0.78 0.73 0.65 0.59 0.50 0.48 0.51 0.49 0.45 0.45 0.47 0.50 0.50 0.51 0.56 0.62 0.75 0.92 1.00 0.92 0.81 0.78 0.78 0.75 0.71 0.64 0.63 0.65 0.63
0.01 0.01 0.02 0.04 0.06 0.08 0.14 0.22 0.27 0.34 0.37 0.41 0.52 0.64 0.68 0.66 0.65 0.70 0.68 0.63 0.60 0.58 0.53 0.47 0.43 0.45 0.50 0.55 0.58 0.60 0.67 0.77 0.81 0.79 0.72 0.68 0.70 0.74 0.72 0.63 0.55 0.53 0.51
0.06 0.03 0.02 0.03 0.06 0.08 0.11 0.13 0.13 0.16 0.16 0.20 0.25 0.30 0.34 0.37 0.39 0.38 0.45 0.51 0.51 0.49 0.60 0.65 0.61 0.64 0.63 0.61 0.62 0.56 0.52 0.56 0.65 0.69 0.67 0.61 0.59 0.62 0.67 0.64 0.59 0.55 0.50
0.14 0.11 0.07 0.05 0.05 0.06 0.07 0.10 0.11 0.07 0.05 0.07 0.08 0.14 0.20 0.21 0.22 0.22 0.25 0.33 0.40 0.46 0.61 0.63 0.56 0.50 0.49 0.47 0.49 0.49 0.47 0.46 0.48 0.55 0.57 0.58 0.54 0.56 0.64 0.66 0.62 0.59 0.55
0.03 0.03 0.05 0.08 0.05 0.04 0.07 0.13 0.19 0.21 0.15 0.08 0.04 0.06 0.11 0.14 0.16 0.18 0.20 0.25 0.27 0.33 0.42 0.49 0.45 0.40 0.35 0.34 0.33 0.31 0.33 0.37 0.39 0.42 0.47 0.49 0.51 0.53 0.57 0.63 0.66 0.62 0.58
0.01 0.03 0.09 0.10 0.06 0.05 0.10 0.18 0.20 0.19 0.18 0.12 0.06 0.03 0.04 0.06 0.08 0.10 0.13 0.19 0.19 0.17 0.20 0.28 0.31 0.30 0.26 0.21 0.17 0.16 0.16 0.18 0.22 0.28 0.34 0.39 0.42 0.46 0.50 0.54 0.56 0.59 0.60
0.02 0.02 0.09 0.14 0.08 0.08 0.10 0.10 0.10 0.12 0.10 0.07 0.06 0.05 0.04 0.06 0.07 0.05 0.05 0.08 0.09 0.09 0.11 0.15 0.18 0.19 0.17 0.16 0.13 0.10 0.11 0.13 0.14 0.17 0.22 0.29 0.32 0.33 0.36 0.42 0.47 0.49 0.48
0.06 0.03 0.03 0.14 0.17 0.14 0.12 0.10 0.11 0.13 0.09 0.05 0.03 0.01 0.02 0.05 0.07 0.07 0.05 0.06 0.07 0.09 0.09 0.10 0.11 0.15 0.14 0.12 0.11 0.11 0.11 0.11 0.10 0.13 0.15 0.18 0.21 0.23 0.25 0.26 0.28 0.33 0.37
0.02 0.03 0.04 0.13 0.18 0.14 0.11 0.11 0.12 0.10 0.08 0.05 0.03 0.01 0.02 0.04 0.05 0.06 0.05 0.06 0.08 0.09 0.08 0.07 0.09 0.12 0.13 0.11 0.10 0.11 0.12 0.10 0.09 0.10 0.13 0.16 0.16 0.16 0.16 0.17 0.18 0.20 0.21
0.01 0.02 0.03 0.07 0.08 0.04 0.05 0.08 0.09 0.09 0.06 0.04 0.03 0.02 0.03 0.04 0.04 0.04 0.05 0.08 0.11 0.11 0.09 0.07 0.09 0.13 0.15 0.15 0.13 0.13 0.13 0.13 0.11 0.10 0.11 0.14 0.16 0.17 0.16 0.15 0.16 0.18 0.20
0.01 0.01 0.02 0.04 0.04 0.05 0.08 0.09 0.07 0.06 0.06 0.04 0.03 0.04 0.04 0.05 0.05 0.04 0.05 0.08 0.11 0.12 0.09 0.08 0.09 0.10 0.14 0.17 0.18 0.17 0.15 0.14 0.11 0.09 0.09 0.10 0.12 0.14 0.15 0.15 0.17 0.19 0.21
0.02 0.01 0.02 0.03 0.04 0.05 0.05 0.07 0.07 0.06 0.07 0.06 0.05 0.04 0.04 0.05 0.06 0.05 0.04 0.05 0.07 0.07 0.07 0.07 0.09 0.13 0.16 0.17 0.18 0.20 0.25 0.23 0.17 0.12 0.10 0.10 0.11 0.13 0.15 0.17 0.20 0.23 0.26
0.02 0.01 0.02 0.04 0.05 0.06 0.06 0.07 0.06 0.06 0.07 0.07 0.06 0.06 0.07 0.07 0.06 0.05 0.05 0.05 0.05 0.06 0.08 0.09 0.10 0.14 0.16 0.17 0.15 0.16 0.18 0.16 0.15 0.14 0.11 0.10 0.11 0.13 0.16 0.19 0.22 0.27 0.31

GEFSGL_prec_meanprecacc_108.txt.gz
Total_Precipitation_Accumulation
0.87 0.93 0.92 0.97 1.07 1.35 1.57 1.50 1.32 1.32 1.36 1.32 1.23 1.30 1.45 1.60 1.70 1.80 1.85 1.86 1.87 1.98 1.93 1.85 1.91 2.01 2.24 2.18 2.14 2.07 1.95 1.81 1.69 1.48 1.14 0.91 0.93 0.95 0.89 0.73 0.57 0.47 0.35
0.70 0.77 0.84 0.85 0.94 1.07 1.19 1.21 1.14 1.06 1.03 1.08 1.11 1.12 1.21 1.37 1.46 1.49 1.54 1.59 1.63 1.72 1.77 1.69 1.69 1.76 1.88 2.07 2.13 2.07 2.02 1.92 1.82 1.69 1.39 1.06 0.89 0.87 0.87 0.87 0.71 0.54 0.44
0.64 0.69 0.77 0.80 0.82 0.84 0.85 0.78 0.81 0.84 0.90 0.95 1.06 1.12 1.21 1.27 1.40 1.42 1.40 1.37 1.41 1.45 1.55 1.60 1.63 1.67 1.68 1.78 1.76 1.82 1.89 1.99 1.99 1.82 1.61 1.32 1.11 0.96 0.87 0.86 0.78 0.71 0.58
0.74 0.81 0.86 0.87 0.87 0.87 0.85 0.81 0.80 0.82 0.88 0.97 1.15 1.22 1.24 1.24 1.24 1.29 1.35 1.32 1.23 1.20 1.22 1.26 1.36 1.47 1.50 1.64 1.60 1.58 1.68 1.87 2.06 2.00 1.80 1.51 1.31 1.16 1.01 0.96 0.98 0.89 0.77
0.65 0.77 0.83 0.86 0.87 0.84 0.77 0.75 0.79 0.76 0.75 0.88 1.04 1.21 1.25 1.23 1.18 1.25 1.31 1.32 1.25 1.13 1.08 1.09 1.12 1.24 1.48 1.54 1.46 1.57 1.70 1.73 1.83 1.88 1.82 1.66 1.43 1.24 1.05 0.94 0.93 0.99 0.92
0.55 0.65 0.81 0.87 0.80 0.76 0.69 0.68 0.70 0.69 0.66 0.75 0.90 1.06 1.15 1.14 1.52 1.50 1.33 1.31 1.27 1.14 1.04 1.03 0.99 0.99 1.18 1.43 1.50 1.54 1.67 1.76 1.75 1.70 1.68 1.56 1.40 1.29 1.24 1.15 1.03 0.95 0.96
0.48 0.60 0.80 0.81 0.70 0.65 0.71 0.75 0.71 0.69 0.70 0.74 0.78 0.80 0.89 1.17 1.22 1.02 1.06 1.10 1.19 1.09 0.97 0.90 0.80 0.77 0.90 0.98 1.10 1.18 1.37 1.65 1.78 1.70 1.53 1.44 1.46 1.35 1.28 1.19 1.09 0.99 0.93
0.41 0.50 0.65 0.68 0.66 0.69 0.70 0.68 0.63 0.59 0.57 0.61 0.63 0.67 0.74 0.89 0.88 0.82 0.92 0.87 1.00 0.99 0.90 0.84 0.79 0.76 0.82 0.89 0.99 1.08 1.12 1.21 1.38 1.35 1.27 1.30 1.35 1.37 1.31 1.26 1.27 1.22 1.12
0.28 0.37 0.46 0.50 0.54 0.57 0.56 0.56 0.52 0.49 0.50 0.52 0.56 0.63 0.72 0.72 0.74 0.72 0.77 0.87 1.00 0.96 0.86 0.84 0.80 0.78 0.94 1.01 0.96 0.97 1.09 1.11 1.22 1.30 1.42 1.43 1.31 1.22 1.22 1.21 1.26 1.25 1.21
0.20 0.27 0.34 0.37 0.41 0.43 0.48 0.51 0.51 0.48 0.46 0.46 0.49 0.53 0.61 0.64 0.76 0.63 0.72 0.89 0.99 1.00 0.95 0.86 0.95 0.93 1.04 1.01 0.94 1.02 1.12 1.00 0.94 0.98 1.05 1.10 1.00 0.95 1.04 1.00 1.08 1.13 1.05
0.11 0.16 0.23 0.30 0.38 0.45 0.51 0.52 0.55 0.52 0.47 0.46 0.54 0.55 0.54 0.64 0.76 0.71 0.72 0.80 0.99 1.01 1.01 0.97 0.87 0.93 0.91 0.95 1.02 1.07 1.24 1.09 0.94 0.97 1.03 1.03 0.93 0.86 0.85 0.89 0.95 1.02 0.98
0.06 0.11 0.18 0.26 0.33 0.42 0.51 0.54 0.54 0.54 0.53 0.54 0.56 0.59 0.57 0.56 0.63 0.67 0.67 0.74 0.85 0.88 0.95 0.91 0.83 0.86 0.74 0.76 0.83 0.97 1.21 1.10 0.92 0.96 1.02 1.01 0.95 0.88 0.86 0.84 0.87 0.89 0.88
0.03 0.06 0.11 0.15 0.19 0.25 0.33 0.41 0.47 0.51 0.53 0.54 0.58 0.66 0.68 0.62 0.65 0.75 0.61 0.57 0.64 0.68 0.70 0.78 0.74 0.69 0.62 0.59 0.68 0.80 0.93 1.05 1.02 0.96 0.91 0.88 0.86 0.84 0.84 0.80 0.78 0.79 0.76
0.01 0.03 0.05 0.06 0.07 0.10 0.20 0.28 0.35 0.42 0.48 0.55 0.62 0.70 0.78 0.73 0.65 0.60 0.52 0.49 0.51 0.49 0.45 0.45 0.47 0.52 0.52 0.53 0.57 0.63 0.77 0.94 1.02 0.94 0.83 0.81 0.83 0.80 0.77 0.70 0.70 0.73 0.72
0.01 0.01 0.02 0.04 0.06 0.08 0.14 0.22 0.27 0.34 0.37 0.41 0.52 0.64 0.68 0.66 0.65 0.71 0.68 0.64 0.61 0.58 0.53 0.47 0.43 0.46 0.52 0.56 0.59 0.61 0.68 0.80 0.84 0.81 0.75 0.71 0.75 0.79 0.77 0.68 0.60 0.60 0.60
0.06 0.03 0.02 0.03 0.06 0.08 0.11 0.13 0.13 0.16 0.16 0.20 0.25 0.30 0.34 0.37 0.39 0.38 0.45 0.51 0.51 0.49 0.60 0.65 0.61 0.64 0.63 0.61 0.62 0.57 0.53 0.58 0.68 0.72 0.70 0.65 0.63 0.68 0.73 0.71 0.65 0.62 0.58
0.14 0.11 0.07 0.05 0.05 0.06 0.07 0.10 0.11 0.07 0.05 0.07 0.09 0.14 0.20 0.21 0.22 0.22 0.25 0.33 0.41 0.46 0.61 0.63 0.56 0.50 0.49 0.47 0.49 0.49 0.48 0.47 0.50 0.58 0.61 0.62 0.58 0.61 0.69 0.73 0.70 0.68 0.66
0.03 0.03 0.05 0.08 0.05 0.04 0.07 0.13 0.19 0.21 0.15 0.08 0.04 0.06 0.11 0.14 0.16 0.18 0.20 0.25 0.28 0.33 0.42 0.49 0.45 0.40 0.35 0.34 0.33 0.31 0.34 0.37 0.40 0.44 0.49 0.52 0.55 0.57 0.62 0.68 0.72 0.68 0.66
0.01 0.03 0.09 0.10 0.06 0.05 0.10 0.18 0.20 0.19 0.18 0.12 0.06 0.03 0.04 0.06 0.08 0.10 0.13 0.19 0.19 0.18 0.20 0.28 0.31 0.30 0.27 0.22 0.18 0.16 0.17 0.18 0.22 0.29 0.35 0.41 0.44 0.49 0.54 0.58 0.60 0.65 0.66
0.02 0.02 0.09 0.14 0.08 0.08 0.10 0.10 0.10 0.12 0.10 0.07 0.06 0.05 0.04 0.06 0.07 0.05 0.06 0.08 0.09 0.09 0.11 0.16 0.18 0.20 0.18 0.16 0.13 0.11 0.12 0.14 0.14 0.18 0.24 0.31 0.34 0.35 0.38 0.44 0.50 0.53 0.53
0.06 0.03 0.03 0.14 0.17 0.14 0.12 0.10 0.11 0.13 0.09 0.05 0.03 0.01 0.02 0.05 0.07 0.07 0.05 0.06 0.08 0.09 0.10 0.10 0.11 0.15 0.14 0.13 0.12 0.12 0.12 0.12 0.11 0.14 0.16 0.20 0.23 0.25 0.26 0.28 0.31 0.36 0.41
0.02 0.03 0.04 0.13 0.18 0.14 0.11 0.11 0.12 0.10 0.08 0.05 0.03 0.01 0.02 0.04 0.06 0.07 0.05 0.07 0.08 0.09 0.09 0.08 0.10 0.13 0.15 0.12 0.12 0.13 0.14 0.13 0.11 0.12 0.15 0.17 0.18 0.18 0.19 0.20 0.21 0.22 0.24
0.01 0.02 0.03 0.07 0.08 0.04 0.05 0.08 0.09 0.09 0.06 0.04 0.03 0.02 0.03 0.04 0.04 0.04 0.05 0.08 0.11 0.12 0.09 0.07 0.10 0.14 0.17 0.17 0.16 0.17 0.18 0.17 0.15 0.13 0.14 0.17 0.19 0.20 0.19 0.18 0.19 0.21 0.24
0.01 0.01 0.02 0.04 0.04 0.05 0.08 0.09 0.07 0.06 0.06 0.04 0.03 0.04 0.04 0.05 0.05 0.04 0.06 0.08 0.11 0.12 0.10 0.09 0.10 0.12 0.15 0.19 0.22 0.22 0.21 0.20 0.16 0.14 0.14 0.15 0.16 0.17 0.18 0.19 0.21 0.23 0.26
0.02 0.01 0.02 0.03 0.04 0.05 0.05 0.07 0.07 0.06 0.07 0.06 0.05 0.04 0.04 0.05 0.06 0.05 0.04 0.06 0.08 0.09 0.08 0.09 0.11 0.15 0.18 0.20 0.22 0.25 0.31 0.30 0.24 0.19 0.16 0.16 0.17 0.18 0.20 0.22 0.25 0.28 0.31
0.02 0.01 0.02 0.04 0.05 0.06 0.06 0.07 0.06 0.06 0.07 0.07 0.06 0.06 0.07 0.07 0.06 0.05 0.05 0.06 0.06 0.07 0.10 0.11 0.13 0.16 0.19 0.20 0.19 0.20 0.23 0.22 0.21 0.21 0.17 0.16 0.17 0.20 0.23 0.26 0.29 0.33 0.38

GEFSGL_prec_meanprecacc_114.txt.gz
Total_Precipitation_Accumulation
0.87 0.93 0.92 0.97 1.07 1.35 1.57 1.50 1.32 1.32 1.36 1.32 1.24 1.32 1.47 1.61 1.72 1.82 1.87 1.87 1.88 1.99 1.94 1.87 1.93 2.03 2.25 2.20 2.18 2.11 1.99 1.87 1.76 1.56 1.22 1.01 1.03 1.04 0.97 0.82 0.67 0.59 0.50
0.70 0.77 0.84 0.85 0.94 1.07 1.19 1.21 1.14 1.06 1.03 1.08 1.12 1.13 1.22 1.38 1.49 1.53 1.56 1.61 1.65 1.73 1.77 1.70 1.70 1.78 1.90 2.09 2.16 2.10 2.06 1.96 1.88 1.78 1.47 1.16 1.00 0.99 0.97 0.97 0.80 0.63 0.53
0.64 0.69 0.77 0.80 0.82 0.84 0.85 0.78 0.81 0.84 0.90 0.95 1.06 1.13 1.21 1.28 1.42 1.45 1.44 1.40 1.43 1.47 1.57 1.62 1.64 1.68 1.70 1.80 1.78 1.84 1.92 2.04 2.05 1.91 1.69 1.42 1.24 1.10 1.00 0.95 0.87 0.80 0.67
0.74 0.81 0.86 0.87 0.87 0.87 0.85 0.81 0.80 0.82 0.88 0.98 1.15 1.23 1.24 1.26 1.26 1.32 1.38 1.34 1.25 1.21 1.24 1.27 1.38 1.48 1.52 1.66 1.62 1.60 1.72 1.91 2.12 2.08 1.90 1.62 1.44 1.31 1.16 1.07 1.06 0.95 0.84
0.65 0.77 0.83 0.86 0.87 0.84 0.77 0.75 0.79 0.76 0.75 0.88 1.05 1.21 1.25 1.23 1.19 1.27 1.33 1.34 1.27 1.14 1.09 1.11 1.14 1.26 1.50 1.57 1.49 1.61 1.74 1.77 1.88 1.94 1.90 1.77 1.56 1.38 1.17 1.05 1.05 1.07 0.98
0.55 0.65 0.81 0.87 0.80 0.76 0.69 0.68 0.70 0.69 0.66 0.75 0.90 1.07 1.16 1.15 1.53 1.52 1.35 1.33 1.29 1.15 1.05 1.05 1.01 1.00 1.20 1.45 1.53 1.57 1.70 1.79 1.79 1.75 1.76 1.67 1.52 1.40 1.34 1.26 1.16 1.07 1.02
0.48 0.60 0.80 0.81 0.70 0.65 0.71 0.75 0.71 0.69 0.70 0.74 0.78 0.80 0.89 1.18 1.23 1.03 1.08 1.12 1.21 1.11 0.98 0.91 0.82 0.79 0.92 1.00 1.13 1.21 1.40 1.68 1.82 1.75 1.61 1.52 1.56 1.45 1.37 1.29 1.20 1.12 1.03
0.41 0.50 0.65 0.68 0.66 0.69 0.70 0.68 0.63 0.59 0.57 0.61 0.63 0.67 0.74 0.89 0.89 0.83 0.93 0.88 1.01 1.01 0.91 0.86 0.82 0.78 0.84 0.90 1.01 1.11 1.14 1.23 1.41 1.40 1.33 1.36 1.43 1.48 1.41 1.36 1.39 1.35 1.26
0.28 0.37 0.46 0.50 0.54 0.57 0.56 0.56 0.52 0.49 0.50 0.52 0.56 0.63 0.72 0.72 0.74 0.72 0.78 0.88 1.02 0.98 0.88 0.86 0.83 0.81 0.96 1.03 0.98 0.99 1.10 1.13 1.25 1.34 1.47 1.48 1.38 1.31 1.32 1.30 1.35 1.35 1.31
0.20 0.27 0.34 0.37 0.41 0.43 0.48 0.51 0.51 0.48 0.46 0.46 0.49 0.53 0.61 0.64 0.76 0.64 0.72 0.89 1.00 1.01 0.97 0.89 0.97 0.95 1.05 1.03 0.96 1.03 1.13 1.02 0.96 1.01 1.09 1.15 1.06 1.03 1.13 1.07 1.14 1.19 1.11
0.11 0.16 0.23 0.30 0.38 0.45 0.51 0.52 0.55 0.52 0.47 0.46 0.54 0.55 0.54 0.64 0.76 0.71 0.73 0.80 0.99 1.01 1.02 0.98 0.88 0.93 0.91 0.96 1.03 1.09 1.27 1.11 0.96 0.99 1.05 1.05 0.96 0.91 0.91 0.95 1.01 1.07 1.03
0.06 0.11 0.18 0.26 0.33 0.42 0.51 0.54 0.54 0.54 0.53 0.54 0.56 0.59 0.57 0.56 0.63 0.67 0.68 0.75 0.86 0.88 0.96 0.91 0.84 0.87 0.75 0.77 0.84 0.98 1.25 1.13 0.94 0.98 1.03 1.03 0.97 0.90 0.89 0.88 0.93 0.96 0.94
0.03 0.06 0.11 0.15 0.19 0.25 0.33 0.41 0.47 0.51 0.53 0.54 0.58 0.66 0.68 0.62 0.65 0.75 0.61 0.58 0.65 0.69 0.70 0.78 0.74 0.71 0.64 0.61 0.69 0.81 0.95 1.07 1.03 0.97 0.93 0.90 0.88 0.86 0.86 0.82 0.82 0.85 0.84
0.01 0.03 0.05 0.06 0.07 0.10 0.20 0.28 0.35 0.42 0.48 0.55 0.62 0.70 0.78 0.73 0.65 0.60 0.52 0.49 0.52 0.49 0.45 0.45 0.48 0.53 0.52 0.53 0.59 0.64 0.78 0.96 1.04 0.96 0.85 0.83 0.85 0.83 0.81 0.75 0.75 0.78 0.78
0.01 0.01 0.02 0.04 0.06 0.08 0.14 0.22 0.27 0.34 0.37 0.41 0.52 0.64 0.68 0.66 0.65 0.71 0.69 0.65 0.61 0.58 0.53 0.47 0.44 0.47 0.52 0.57 0.60 0.61 0.69 0.81 0.86 0.83 0.77 0.73 0.77 0.81 0.80 0.72 0.66 0.67 0.66
0.06 0.03 0.02 0.03 0.06 0.08 0.11 0.13 0.13 0.16 0.16 0.20 0.25 0.30 0.34 0.37 0.39 0.38 0.45 0.52 0.51 0.49 0.60 0.65 0.62 0.64 0.64 0.61 0.62 0.57 0.53 0.58 0.69 0.73 0.71 0.66 0.65 0.70 0.76 0.74 0.69 0.67 0.64
0.14 0.11 0.07 0.05 0.05 0.06 0.07 0.10 0.11 0.07 0.05 0.07 0.09 0.14 0.20 0.21 0.22 0.22 0.25 0.33 0.41 0.46 0.61 0.64 0.56 0.50 0.49 0.47 0.49 0.49 0.48 0.47 0.50 0.58 0.61 0.62 0.59 0.63 0.72 0.77 0.75 0.75 0.73
0.03 0.03 0.05 0.08 0.05 0.04 0.07 0.13 0.19 0.21 0.15 0.08 0.04 0.06 0.11 0.14 0.16 0.18 0.20 0.25 0.28 0.33 0.42 0.49 0.45 0.40 0.35 0.34 0.33 0.31 0.34 0.38 0.41 0.44 0.49 0.52 0.56 0.59 0.65 0.72 0.75 0.72 0.71
0.01 0.03 0.09 0.10 0.06 0.05 0.10 0.18 0.20 0.19 0.18 0.12 0.06 0.03 0.04 0.07 0.08 0.10 0.13 0.19 0.19 0.18 0.20 0.28 0.31 0.31 0.27 0.22 0.18 0.16 0.17 0.18 0.22 0.29 0.36 0.41 0.45 0.50 0.55 0.61 0.65 0.70 0.70
0.02 0.02 0.09 0.14 0.08 0.08 0.10 0.10 0.10 0.12 0.10 0.07 0.06 0.05 0.04 0.06 0.07 0.05 0.06 0.08 0.09 0.09 0.11 0.16 0.19 0.20 0.18 0.17 0.14 0.11 0.12 0.14 0.15 0.18 0.25 0.32 0.35 0.36 0.39 0.46 0.53 0.56 0.55
0.06 0.03 0.03 0.14 0.17 0.14 0.12 0.10 0.11 0.13 0.09 0.05 0.03 0.01 0.02 0.05 0.07 0.07 0.05 0.07 0.08 0.09 0.10 0.10 0.11 0.16 0.14 0.13 0.13 0.13 0.12 0.12 0.12 0.14 0.17 0.21 0.25 0.27 0.29 0.31 0.33 0.38 0.43
0.02 0.03 0.04 0.13 0.18 0.14 0.11 0.11 0.12 0.10 0.08 0.05 0.03 0.01 0.02 0.04 0.06 0.07 0.05 0.07 0.08 0.09 0.09 0.08 0.10 0.13 0.15 0.12 0.12 0.13 0.15 0.13 0.12 0.13 0.16 0.19 0.20 0.20 0.21 0.22 0.24 0.26 0.28
0.01 0.02 0.03 0.07 0.08 0.04 0.05 0.08 0.09 0.09 0.06 0.04 0.03 0.02 0.03 0.04 0.04 0.05 0.06 0.09 0.12 0.12 0.10 0.08 0.10 0.14 0.17 0.18 0.16 0.18 0.18 0.17 0.15 0.14 0.15 0.18 0.20 0.22 0.21 0.21 0.22 0.25 0.28
0.01 0.01 0.02 0.04 0.04 0.05 0.08 0.09 0.07 0.06 0.06 0.04 0.03 0.04 0.04 0.05 0.05 0.05 0.06 0.09 0.12 0.13 0.10 0.09 0.10 0.12 0.16 0.20 0.22 0.23 0.22 0.21 0.16 0.14 0.14 0.16 0.18 0.19 0.20 0.22 0.24 0.26 0.29
0.02 0.01 0.02 0.03 0.04 0.05 0.05 0.07 0.07 0.06 0.07 0.06 0.06 0.04 0.05 0.06 0.07 0.05 0.04 0.06 0.08 0.09 0.08 0.09 0.11 0.15 0.18 0.20 0.23 0.26 0.32 0.31 0.25 0.20 0.17 0.17 0.18 0.20 0.23 0.25 0.28 0.32 0.36
0.02 0.01 0.02 0.04 0.05 0.06 0.06 0.07 0.06 0.06 0.07 0.07 0.06 0.06 0.07 0.07 0.06 0.05 0.05 0.06 0.06 0.07 0.10 0.11 0.13 0.16 0.19 0.20 0.19 0.21 0.24 0.23 0.22 0.22 0.18 0.17 0.19 0.22 0.25 0.29 0.32 0.37 0.42

GEFSGL_prec_meanprecacc_120.txt.gz
Total_Precipitation_Accumulation
0.87 0.93 0.92 0.97 1.07 1.35 1.57 1.50 1.32 1.33 1.37 1.34 1.26 1.33 1.49 1.63 1.73 1.84 1.90 1.90 1.90 2.01 1.96 1.89 1.95 2.05 2.27 2.23 2.21 2.14 2.03 1.91 1.82 1.62 1.28 1.07 1.08 1.08 1.01 0.85 0.70 0.65 0.56
0.70 0.77 0.84 0.85 0.94 1.07 1.19 1.21 1.14 1.07 1.05 1.10 1.14 1.14 1.23 1.41 1.52 1.56 1.59 1.63 1.67 1.75 1.79 1.72 1.72 1.80 1.92 2.11 2.17 2.12 2.09 1.99 1.92 1.84 1.54 1.22 1.07 1.05 1.02 1.01 0.84 0.68 0.60
0.64 0.69 0.77 0.80 0.82 0.84 0.85 0.78 0.81 0.84 0.91 0.97 1.08 1.13 1.22 1.30 1.44 1.47 1.45 1.42 1.45 1.49 1.59 1.63 1.65 1.70 1.72 1.82 1.79 1.87 1.95 2.06 2.07 1.95 1.75 1.49 1.29 1.16 1.07 1.00 0.91 0.85 0.72
0.74 0.81 0.86 0.87 0.87 0.87 0.85 0.81 0.80 0.83 0.88 0.98 1.16 1.24 1.25 1.27 1.29 1.34 1.40 1.36 1.27 1.23 1.26 1.30 1.40 1.51 1.54 1.68 1.64 1.62 1.75 1.94 2.15 2.12 1.95 1.68 1.50 1.37 1.23 1.14 1.12 1.00 0.89
0.65 0.77 0.83 0.86 0.87 0.84 0.77 0.75 0.79 0.76 0.75 0.89 1.05 1.21 1.26 1.24 1.21 1.29 1.35 1.36 1.29 1.15 1.11 1.13 1.16 1.28 1.52 1.58 1.50 1.63 1.77 1.80 1.91 1.98 1.96 1.83 1.63 1.45 1.25 1.12 1.11 1.13 1.04
0.55 0.65 0.81 0.87 0.80 0.76 0.69 0.68 0.71 0.69 0.66 0.75 0.90 1.07 1.16 1.15 1.54 1.53 1.37 1.34 1.31 1.16 1.07 1.07 1.03 1.02 1.22 1.47 1.55 1.60 1.73 1.82 1.82 1.80 1.81 1.71 1.58 1.47 1.44 1.35 1.24 1.15 1.09
0.48 0.60 0.80 0.81 0.70 0.65 0.71 0.75 0.72 0.69 0.70 0.74 0.78 0.81 0.90 1.19 1.24 1.03 1.09 1.13 1.23 1.13 1.00 0.93 0.84 0.81 0.94 1.02 1.14 1.23 1.42 1.71 1.86 1.81 1.66 1.55 1.60 1.50 1.46 1.40 1.32 1.22 1.11
0.41 0.50 0.65 0.68 0.66 0.69 0.70 0.68 0.63 0.59 0.57 0.61 0.63 0.68 0.75 0.89 0.89 0.84 0.93 0.89 1.02 1.02 0.93 0.88 0.85 0.80 0.86 0.92 1.03 1.14 1.17 1.26 1.44 1.44 1.38 1.41 1.48 1.53 1.48 1.45 1.51 1.47 1.38
0.28 0.37 0.46 0.50 0.54 0.57 0.56 0.56 0.52 0.49 0.51 0.52 0.56 0.64 0.72 0.72 0.75 0.74 0.79 0.89 1.03 1.00 0.90 0.90 0.87 0.84 0.98 1.05 1.01 1.03 1.14 1.17 1.28 1.37 1.51 1.53 1.42 1.37 1.40 1.38 1.45 1.47 1.43
0.20 0.27 0.34 0.37 0.41 0.43 0.48 0.51 0.51 0.48 0.46 0.46 0.49 0.53 0.61 0.64 0.77 0.64 0.73 0.91 1.01 1.02 0.99 0.92 1.02 0.99 1.08 1.05 0.98 1.07 1.18 1.06 0.99 1.03 1.12 1.18 1.10 1.09 1.21 1.16 1.24 1.30 1.23
0.11 0.16 0.23 0.30 0.38 0.45 0.51 0.52 0.55 0.52 0.47 0.46 0.54 0.55 0.54 0.64 0.76 0.71 0.73 0.81 1.00 1.02 1.04 1.00 0.90 0.95 0.93 0.98 1.06 1.13 1.31 1.16 1.00 1.02 1.08 1.08 0.99 0.97 0.99 1.03 1.10 1.18 1.16
0.06 0.11 0.18 0.26 0.33 0.42 0.51 0.54 0.54 0.54 0.53 0.54 0.56 0.59 0.57 0.56 0.63 0.67 0.68 0.75 0.86 0.89 0.97 0.93 0.86 0.90 0.77 0.79 0.86 1.01 1.27 1.16 0.98 1.01 1.05 1.05 1.00 0.95 0.97 0.97 1.01 1.05 1.03
0.03 0.06 0.11 0.15 0.19 0.25 0.33 0.41 0.47 0.51 0.53 0.54 0.58 0.66 0.68 0.62 0.65 0.75 0.61 0.58 0.65 0.69 0.70 0.78 0.75 0.73 0.67 0.64 0.74 0.86 0.98 1.10 1.07 1.00 0.95 0.92 0.91 0.90 0.93 0.91 0.90 0.93 0.91
0.01 0.03 0.05 0.06 0.07 0.10 0.20 0.28 0.35 0.42 0.48 0.55 0.62 0.70 0.78 0.73 0.65 0.60 0.52 0.49 0.52 0.49 0.45 0.45 0.48 0.53 0.52 0.54 0.61 0.67 0.80 0.99 1.09 1.00 0.89 0.87 0.88 0.86 0.86 0.81 0.81 0.84 0.85
0.01 0.01 0.02 0.04 0.06 0.08 0.14 0.22 0.27 0.34 0.37 0.41 0.52 0.64 0.68 0.66 0.65 0.71 0.69 0.65 0.61 0.58 0.53 0.47 0.44 0.47 0.53 0.57 0.60 0.63 0.71 0.83 0.89 0.86 0.80 0.76 0.80 0.84 0.83 0.77 0.71 0.73 0.73
0.06 0.03 0.02 0.03 0.06 0.08 0.11 0.13 0.13 0.16 0.16 0.20 0.25 0.30 0.34 0.37 0.39 0.38 0.45 0.52 0.51 0.49 0.61 0.66 0.62 0.65 0.64 0.61 0.63 0.58 0.55 0.60 0.71 0.76 0.74 0.69 0.67 0.73 0.78 0.76 0.72 0.71 0.69
0.14 0.11 0.07 0.05 0.05 0.06 0.07 0.10 0.11 0.07 0.05 0.07 0.09 0.14 0.20 0.21 0.22 0.22 0.25 0.33 0.41 0.46 0.61 0.64 0.56 0.50 0.49 0.48 0.50 0.50 0.49 0.48 0.51 0.60 0.64 0.64 0.60 0.64 0.74 0.79 0.77 0.77 0.75
0.03 0.03 0.05 0.08 0.05 0.04 0.07 0.13 0.19 0.21 0.15 0.08 0.04 0.06 0.11 0.15 0.16 0.18 0.20 0.26 0.28 0.33 0.42 0.49 0.45 0.40 0.35 0.34 0.33 0.32 0.35 0.38 0.41 0.45 0.50 0.53 0.57 0.60 0.65 0.73 0.76 0.74 0.74
0.01 0.03 0.09 0.10 0.06 0.05 0.10 0.18 0.20 0.19 0.18 0.12 0.06 0.03 0.05 0.07 0.09 0.10 0.14 0.19 0.19 0.18 0.20 0.28 0.32 0.31 0.27 0.22 0.18 0.16 0.17 0.19 0.23 0.30 0.37 0.42 0.46 0.51 0.56 0.61 0.66 0.71 0.72
0.02 0.02 0.09 0.14 0.08 0.08 0.10 0.10 0.10 0.12 0.10 0.07 0.06 0.05 0.04 0.06 0.07 0.06 0.06 0.08 0.09 0.10 0.12 0.16 0.19 0.20 0.19 0.17 0.14 0.11 0.12 0.14 0.15 0.19 0.26 0.34 0.36 0.37 0.40 0.47 0.54 0.57 0.57
0.06 0.03 0.03 0.14 0.17 0.14 0.12 0.10 0.11 0.13 0.09 0.05 0.03 0.01 0.02 0.05 0.07 0.07 0.05 0.07 0.08 0.10 0.11 0.11 0.12 0.16 0.15 0.14 0.13 0.13 0.12 0.13 0.12 0.14 0.17 0.21 0.25 0.28 0.30 0.32 0.35 0.40 0.45
0.02 0.03 0.04 0.13 0.18 0.14 0.11 0.11 0.12 0.10 0.08 0.05 0.03 0.01 0.02 0.04 0.06 0.07 0.05 0.07 0.08 0.09 0.09 0.08 0.10 0.14 0.15 0.12 0.12 0.14 0.15 0.14 0.12 0.13 0.16 0.19 0.20 0.21 0.22 0.23 0.25 0.27 0.29
0.01 0.02 0.03 0.07 0.08 0.04 0.05 0.08 0.09 0.09 0.06 0.04 0.03 0.02 0.03 0.04 0.04 0.05 0.06 0.09 0.12 0.12 0.10 0.08 0.10 0.15 0.17 0.18 0.16 0.18 0.18 0.18 0.16 0.14 0.16 0.19 0.21 0.22 0.22 0.22 0.23 0.26 0.30
0.01 0.01 0.02 0.04 0.04 0.05 0.08 0.09 0.07 0.06 0.06 0.04 0.03 0.04 0.05 0.05 0.05 0.05 0.06 0.09 0.12 0.13 0.10 0.09 0.10 0.12 0.16 0.20 0.23 0.23 0.22 0.21 0.17 0.15 0.15 0.17 0.19 0.20 0.21 0.23 0.26 0.27 0.31
0.02 0.01 0.02 0.03 0.04 0.05 0.05 0.07 0.07 0.06 0.07 0.06 0.06 0.04 0.05 0.06 0.07 0.05 0.04 0.06 0.08 0.09 0.08 0.09 0.11 0.15 0.18 0.20 0.23 0.26 0.32 0.32 0.25 0.20 0.18 0.18 0.20 0.22 0.24 0.27 0.30 0.33 0.37
0.02 0.01 0.02 0.04 0.05 0.06 0.06 0.07 0.06 0.06 0.07 0.07 0.06 0.06 0.07 0.07 0.06 0.05 0.05 0.06 0.06 0.07 0.10 0.11 0.13 0.16 0.19 0.20 0.19 0.21 0.24 0.23 0.22 0.22 0.19 0.19 0.21 0.23 0.28 0.32 0.35 0.39 0.44

GEFSGL_prec_meanprecacc_126.txt.gz
Total_Precipitation_Accumulation
0.87 0.93 0.92 0.97 1.07 1.35 1.57 1.51 1.33 1.34 1.38 1.35 1.29 1.37 1.53 1.66 1.76 1.87 1.93 1.94 1.94 2.06 2.00 1.94 1.99 2.09 2.33 2.27 2.25 2.20 2.11 2.00 1.92 1.70 1.35 1.14 1.17 1.17 1.07 0.92 0.80 0.75 0.63
0.70 0.77 0.84 0.85 0.95 1.07 1.19 1.21 1.15 1.08 1.06 1.12 1.17 1.18 1.27 1.44 1.56 1.59 1.62 1.66 1.70 1.79 1.84 1.76 1.77 1.85 1.97 2.15 2.21 2.16 2.14 2.05 1.98 1.91 1.59 1.27 1.13 1.13 1.09 1.09 0.93 0.76 0.66
0.64 0.69 0.77 0.80 0.83 0.84 0.85 0.78 0.82 0.85 0.92 0.99 1.10 1.15 1.24 1.33 1.48 1.50 1.48 1.44 1.48 1.52 1.62 1.67 1.69 1.75 1.76 1.85 1.82 1.89 1.98 2.09 2.11 1.99 1.81 1.54 1.33 1.23 1.16 1.09 0.99 0.93 0.78
0.74 0.81 0.86 0.87 0.87 0.87 0.85 0.81 0.80 0.83 0.89 1.01 1.19 1.25 1.27 1.29 1.31 1.37 1.43 1.39 1.29 1.25 1.28 1.32 1.43 1.55 1.58 1.72 1.67 1.65 1.77 1.96 2.18 2.15 1.99 1.72 1.55 1.44 1.32 1.23 1.21 1.09 0.98
0.65 0.77 0.83 0.86 0.87 0.84 0.78 0.75 0.79 0.76 0.75 0.90 1.06 1.22 1.27 1.26 1.23 1.31 1.38 1.40 1.33 1.19 1.14 1.16 1.20 1.31 1.55 1.62 1.53 1.67 1.80 1.82 1.94 2.01 2.00 1.88 1.69 1.50 1.32 1.21 1.19 1.22 1.15
0.55 0.65 0.81 0.87 0.80 0.76 0.69 0.68 0.71 0.70 0.67 0.76 0.91 1.08 1.17 1.16 1.55 1.55 1.39 1.37 1.34 1.20 1.11 1.10 1.06 1.05 1.24 1.49 1.58 1.62 1.75 1.85 1.85 1.83 1.85 1.75 1.64 1.53 1.51 1.43 1.32 1.23 1.17
0.48 0.60 0.80 0.81 0.70 0.65 0.71 0.75 0.72 0.70 0.70 0.75 0.79 0.81 0.90 1.19 1.24 1.04 1.09 1.14 1.25 1.16 1.04 0.96 0.87 0.84 0.97 1.04 1.16 1.24 1.43 1.73 1.88 1.86 1.71 1.59 1.64 1.55 1.51 1.45 1.37 1.27 1.17
0.41 0.50 0.65 0.68 0.66 0.69 0.70 0.68 0.63 0.59 0.58 0.62 0.64 0.68 0.75 0.90 0.89 0.84 0.94 0.90 1.05 1.05 0.95 0.91 0.88 0.85 0.90 0.95 1.05 1.15 1.19 1.28 1.46 1.48 1.43 1.46 1.52 1.58 1.53 1.50 1.56 1.52 1.42
0.28 0.37 0.46 0.50 0.54 0.57 0.56 0.56 0.52 0.49 0.51 0.52 0.57 0.64 0.73 0.73 0.75 0.74 0.79 0.90 1.05 1.02 0.92 0.92 0.89 0.87 1.02 1.07 1.04 1.08 1.18 1.20 1.31 1.41 1.56 1.57 1.45 1.39 1.42 1.42 1.49 1.51 1.47
0.20 0.27 0.34 0.37 0.41 0.43 0.48 0.51 0.51 0.48 0.46 0.46 0.49 0.54 0.62 0.65 0.77 0.64 0.74 0.92 1.03 1.05 1.02 0.94 1.04 1.02 1.11 1.07 1.01 1.13 1.22 1.10 1.03 1.07 1.16 1.21 1.13 1.11 1.22 1.18 1.28 1.36 1.30
0.11 0.16 0.23 0.30 0.38 0.45 0.51 0.52 0.55 0.52 0.47 0.46 0.54 0.55 0.55 0.64 0.76 0.71 0.74 0.83 1.02 1.05 1.08 1.03 0.91 0.96 0.95 1.00 1.08 1.17 1.36 1.22 1.07 1.07 1.12 1.11 1.02 1.00 1.02 1.07 1.15 1.24 1.24
0.06 0.11 0.18 0.26 0.33 0.42 0.51 0.54 0.54 0.54 0.53 0.54 0.56 0.59 0.57 0.56 0.63 0.67 0.68 0.75 0.86 0.90 0.99 0.95 0.88 0.91 0.79 0.80 0.88 1.03 1.30 1.21 1.06 1.07 1.10 1.10 1.04 0.98 1.00 1.00 1.05 1.10 1.11
0.03 0.06 0.11 0.15 0.19 0.25 0.33 0.41 0.47 0.51 0.53 0.54 0.58 0.67 0.68 0.62 0.65 0.75 0.61 0.58 0.65 0.69 0.70 0.78 0.76 0.74 0.68 0.65 0.76 0.88 1.01 1.14 1.14 1.07 1.01 0.98 0.97 0.95 0.97 0.94 0.94 0.98 0.97
0.01 0.03 0.05 0.06 0.07 0.10 0.20 0.28 0.35 0.42 0.48 0.55 0.62 0.71 0.78 0.73 0.66 0.60 0.52 0.49 0.52 0.50 0.45 0.46 0.48 0.53 0.53 0.55 0.62 0.69 0.83 1.03 1.13 1.05 0.94 0.93 0.94 0.92 0.91 0.84 0.84 0.89 0.90
0.01 0.01 0.02 0.04 0.06 0.08 0.14 0.22 0.27 0.34 0.37 0.41 0.52 0.64 0.68 0.67 0.66 0.71 0.69 0.65 0.61 0.58 0.54 0.48 0.45 0.48 0.55 0.59 0.62 0.64 0.72 0.85 0.92 0.90 0.83 0.80 0.83 0.87 0.86 0.80 0.74 0.76 0.77
0.06 0.03 0.02 0.03 0.06 0.08 0.11 0.13 0.13 0.16 0.16 0.20 0.25 0.30 0.34 0.37 0.39 0.38 0.45 0.52 0.51 0.49 0.61 0.67 0.63 0.65 0.65 0.62 0.64 0.60 0.57 0.61 0.72 0.78 0.78 0.73 0.70 0.75 0.80 0.79 0.75 0.74 0.72
0.14 0.11 0.07 0.05 0.05 0.06 0.07 0.10 0.11 0.07 0.05 0.07 0.09 0.14 0.20 0.21 0.22 0.22 0.25 0.33 0.41 0.46 0.61 0.64 0.57 0.51 0.50 0.48 0.50 0.51 0.51 0.50 0.54 0.63 0.66 0.67 0.64 0.66 0.76 0.81 0.80 0.80 0.79
0.03 0.03 0.05 0.08 0.05 0.04 0.07 0.13 0.19 0.21 0.15 0.08 0.04 0.06 0.11 0.15 0.16 0.18 0.20 0.26 0.28 0.33 0.42 0.49 0.45 0.40 0.35 0.34 0.33 0.32 0.36 0.39 0.42 0.47 0.52 0.55 0.59 0.62 0.67 0.74 0.78 0.77 0.77
0.01 0.03 0.09 0.10 0.06 0.05 0.10 0.18 0.20 0.19 0.18 0.12 0.06 0.03 0.05 0.07 0.09 0.10 0.14 0.19 0.20 0.18 0.21 0.28 0.32 0.31 0.27 0.22 0.18 0.17 0.18 0.19 0.24 0.31 0.39 0.44 0.47 0.52 0.58 0.64 0.68 0.74 0.74
0.02 0.02 0.09 0.14 0.08 0.08 0.10 0.10 0.10 0.12 0.10 0.07 0.06 0.05 0.04 0.06 0.07 0.06 0.06 0.09 0.10 0.10 0.12 0.16 0.19 0.20 0.19 0.17 0.14 0.12 0.12 0.14 0.15 0.19 0.26 0.35 0.39 0.40 0.42 0.49 0.56 0.60 0.59
0.06 0.03 0.03 0.14 0.18 0.14 0.12 0.10 0.11 0.13 0.09 0.05 0.04 0.01 0.02 0.05 0.07 0.07 0.05 0.07 0.08 0.10 0.11 0.11 0.12 0.16 0.15 0.14 0.13 0.13 0.13 0.13 0.12 0.15 0.17 0.21 0.26 0.29 0.31 0.34 0.36 0.41 0.47
0.02 0.03 0.04 0.13 0.18 0.14 0.11 0.11 0.12 0.10 0.08 0.05 0.03 0.01 0.02 0.04 0.06 0.07 0.05 0.07 0.08 0.09 0.09 0.08 0.10 0.14 0.15 0.12 0.12 0.14 0.15 0.14 0.12 0.14 0.16 0.19 0.20 0.21 0.22 0.24 0.26 0.29 0.31
0.01 0.02 0.03 0.07 0.08 0.04 0.05 0.08 0.09 0.09 0.06 0.04 0.03 0.02 0.03 0.04 0.04 0.05 0.06 0.09 0.12 0.12 0.10 0.08 0.10 0.15 0.17 0.18 0.17 0.18 0.19 0.18 0.16 0.14 0.16 0.19 0.21 0.23 0.22 0.22 0.23 0.27 0.30
0.01 0.01 0.02 0.04 0.04 0.05 0.08 0.09 0.07 0.06 0.06 0.04 0.03 0.04 0.05 0.05 0.05 0.05 0.06 0.09 0.12 0.13 0.10 0.09 0.10 0.12 0.16 0.20 0.23 0.23 0.22 0.21 0.17 0.15 0.15 0.17 0.19 0.21 0.22 0.24 0.26 0.28 0.32
0.02 0.02 0.02 0.04 0.05 0.05 0.05 0.07 0.07 0.06 0.07 0.06 0.06 0.04 0.05 0.06 0.07 0.05 0.04 0.06 0.08 0.09 0.08 0.09 0.11 0.15 0.18 0.20 0.23 0.26 0.32 0.32 0.25 0.20 0.18 0.18 0.20 0.22 0.25 0.27 0.30 0.34 0.38
0.02 0.02 0.02 0.04 0.06 0.06 0.06 0.07 0.07 0.06 0.07 0.07 0.06 0.06 0.07 0.07 0.06 0.05 0.05 0.06 0.06 0.07 0.10 0.11 0.13 0.16 0.19 0.20 0.19 0.21 0.24 0.23 0.22 0.23 0.19 0.19 0.21 0.24 0.28 0.32 0.35 0.40 0.46

GEFSGL_prec_meanprecacc_132.txt.gz
Total_Precipitation_Accumulation
0.87 0.93 0.92 0.97 1.07 1.35 1.57 1.51 1.33 1.34 1.38 1.36 1.30 1.39 1.54 1.67 1.77 1.88 1.94 1.96 1.95 2.07 2.01 1.94 2.00 2.10 2.34 2.29 2.27 2.23 2.14 2.04 1.97 1.75 1.40 1.23 1.27 1.29 1.22 1.07 0.94 0.88 0.72
0.70 0.77 0.84 0.86 0.95 1.07 1.19 1.21 1.15 1.08 1.06 1.13 1.18 1.20 1.28 1.46 1.57 1.60 1.62 1.66 1.71 1.80 1.85 1.78 1.79 1.86 1.99 2.17 2.23 2.18 2.16 2.08 2.04 1.98 1.65 1.34 1.20 1.22 1.20 1.22 1.06 0.89 0.76
0.64 0.69 0.77 0.80 0.83 0.84 0.85 0.78 0.82 0.85 0.93 0.99 1.10 1.16 1.25 1.34 1.49 1.50 1.48 1.45 1.49 1.53 1.63 1.69 1.72 1.76 1.78 1.87 1.83 1.90 1.99 2.12 2.16 2.05 1.85 1.58 1.39 1.31 1.24 1.17 1.10 1.05 0.89
0.74 0.81 0.86 0.87 0.87 0.87 0.85 0.81 0.80 0.83 0.89 1.01 1.19 1.25 1.27 1.30 1.31 1.37 1.44 1.40 1.30 1.25 1.29 1.34 1.45 1.57 1.60 1.73 1.68 1.66 1.79 1.99 2.21 2.19 2.01 1.75 1.59 1.49 1.38 1.29 1.29 1.18 1.08
0.65 0.77 0.83 0.86 0.87 0.84 0.78 0.75 0.79 0.76 0.76 0.90 1.06 1.22 1.27 1.27 1.24 1.32 1.39 1.41 1.34 1.19 1.14 1.17 1.20 1.32 1.57 1.63 1.54 1.68 1.81 1.85 1.96 2.04 2.03 1.91 1.72 1.53 1.35 1.24 1.25 1.30 1.24
0.55 0.65 0.81 0.87 0.80 0.76 0.69 0.68 0.71 0.70 0.67 0.76 0.91 1.08 1.17 1.16 1.56 1.56 1.40 1.38 1.35 1.21 1.12 1.11 1.07 1.05 1.25 1.51 1.59 1.65 1.78 1.87 1.87 1.85 1.87 1.79 1.67 1.55 1.54 1.47 1.36 1.28 1.25
0.48 0.60 0.80 0.81 0.70 0.65 0.71 0.75 0.72 0.70 0.70 0.75 0.79 0.81 0.90 1.19 1.24 1.04 1.09 1.15 1.26 1.16 1.04 0.97 0.88 0.85 0.98 1.05 1.17 1.26 1.46 1.74 1.90 1.89 1.73 1.61 1.66 1.57 1.53 1.48 1.41 1.31 1.22
0.41 0.50 0.65 0.68 0.66 0.69 0.70 0.68 0.63 0.59 0.58 0.62 0.64 0.68 0.75 0.90 0.90 0.84 0.94 0.90 1.05 1.05 0.96 0.91 0.88 0.86 0.91 0.95 1.06 1.16 1.19 1.28 1.48 1.52 1.49 1.48 1.53 1.59 1.54 1.52 1.59 1.55 1.46
0.28 0.37 0.46 0.50 0.54 0.57 0.56 0.56 0.52 0.49 0.51 0.52 0.57 0.65 0.73 0.73 0.75 0.74 0.79 0.90 1.05 1.03 0.92 0.92 0.90 0.88 1.03 1.08 1.05 1.09 1.18 1.20 1.33 1.46 1.63 1.60 1.46 1.40 1.43 1.44 1.51 1.54 1.50
0.20 0.27 0.34 0.37 0.41 0.43 0.48 0.51 0.51 0.48 0.46 0.46 0.49 0.54 0.62 0.65 0.77 0.64 0.74 0.92 1.03 1.05 1.03 0.94 1.04 1.03 1.12 1.08 1.02 1.14 1.23 1.11 1.04 1.10 1.21 1.25 1.15 1.12 1.23 1.20 1.29 1.38 1.32
0.11 0.16 0.23 0.30 0.38 0.45 0.51 0.52 0.55 0.52 0.47 0.46 0.54 0.55 0.55 0.64 0.76 0.71 0.74 0.83 1.02 1.05 1.08 1.03 0.92 0.97 0.96 1.01 1.08 1.17 1.37 1.23 1.08 1.09 1.16 1.15 1.05 1.02 1.04 1.08 1.16 1.26 1.26
0.06 0.11 0.18 0.26 0.33 0.42 0.51 0.54 0.54 0.54 0.53 0.54 0.56 0.59 0.57 0.56 0.63 0.67 0.68 0.75 0.86 0.90 0.99 0.96 0.89 0.92 0.79 0.81 0.88 1.03 1.31 1.22 1.07 1.08 1.11 1.11 1.06 1.00 1.01 1.01 1.07 1.12 1.13
0.03 0.06 0.11 0.15 0.19 0.25 0.33 0.41 0.47 0.51 0.53 0.54 0.58 0.67 0.68 0.62 0.65 0.75 0.61 0.58 0.65 0.69 0.71 0.79 0.76 0.75 0.69 0.66 0.76 0.88 1.02 1.15 1.15 1.08 1.01 0.99 0.98 0.96 0.99 0.96 0.96 1.01 0.99
0.01 0.03 0.05 0.06 0.07 0.10 0.20 0.28 0.35 0.42 0.48 0.55 0.62 0.71 0.78 0.73 0.66 0.60 0.52 0.49 0.52 0.50 0.45 0.46 0.48 0.53 0.54 0.57 0.63 0.70 0.83 1.04 1.14 1.07 0.95 0.94 0.96 0.93 0.92 0.86 0.86 0.91 0.92
0.01 0.01 0.02 0.04 0.06 0.08 0.14 0.22 0.27 0.34 0.37 0.41 0.52 0.64 0.68 0.67 0.66 0.71 0.69 0.65 0.61 0.58 0.54 0.48 0.45 0.48 0.55 0.60 0.62 0.64 0.72 0.85 0.93 0.92 0.85 0.80 0.85 0.89 0.89 0.83 0.77 0.78 0.79
0.06 0.03 0.02 0.03 0.06 0.08 0.11 0.13 0.13 0.16 0.16 0.20 0.25 0.30 0.34 0.37 0.39 0.38 0.45 0.52 0.51 0.49 0.61 0.67 0.63 0.65 0.65 0.62 0.64 0.60 0.57 0.62 0.73 0.79 0.79 0.74 0.71 0.76 0.82 0.81 0.77 0.76 0.73
0.14 0.11 0.07 0.05 0.05 0.06 0.07 0.10 0.11 0.07 0.05 0.07 0.09 0.14 0.20 0.21 0.22 0.22 0.25 0.33 0.41 0.46 0.61 0.64 0.57 0.51 0.50 0.48 0.50 0.51 0.51 0.50 0.54 0.63 0.67 0.68 0.65 0.67 0.77 0.82 0.81 0.82 0.81
0.03 0.03 0.05 0.08 0.06 0.04 0.07 0.13 0.19 0.21 0.15 0.08 0.04 0.06 0.11 0.15 0.16 0.18 0.20 0.26 0.28 0.33 0.42 0.49 0.45 0.40 0.35 0.34 0.33 0.32 0.36 0.39 0.42 0.47 0.53 0.56 0.60 0.63 0.68 0.75 0.79 0.78 0.78
0.01 0.03 0.09 0.11 0.06 0.05 0.10 0.18 0.20 0.19 0.18 0.12 0.06 0.03 0.05 0.07 0.09 0.10 0.14 0.19 0.20 0.18 0.21 0.28 0.32 0.31 0.27 0.22 0.18 0.17 0.18 0.19 0.24 0.31 0.39 0.44 0.48 0.53 0.59 0.64 0.69 0.74 0.75
0.03 0.03 0.09 0.15 0.09 0.09 0.11 0.11 0.11 0.12 0.10 0.07 0.06 0.05 0.04 0.06 0.07 0.06 0.06 0.09 0.10 0.10 0.12 0.16 0.19 0.20 0.19 0.17 0.14 0.12 0.12 0.14 0.15 0.19 0.26 0.35 0.39 0.40 0.43 0.49 0.57 0.60 0.60
0.06 0.03 0.03 0.15 0.19 0.15 0.13 0.11 0.12 0.13 0.10 0.06 0.04 0.02 0.03 0.05 0.07 0.07 0.05 0.07 0.08 0.10 0.11 0.11 0.12 0.16 0.15 0.14 0.13 0.13 0.13 0.13 0.12 0.15 0.17 0.21 0.26 0.29 0.32 0.34 0.37 0.42 0.48
0.03 0.04 0.05 0.14 0.20 0.16 0.13 0.12 0.13 0.11 0.09 0.06 0.04 0.02 0.02 0.04 0.06 0.07 0.06 0.07 0.08 0.10 0.09 0.08 0.10 0.14 0.15 0.12 0.12 0.14 0.15 0.14 0.12 0.14 0.16 0.19 0.20 0.21 0.22 0.24 0.27 0.29 0.32
0.02 0.03 0.04 0.09 0.10 0.06 0.07 0.10 0.10 0.10 0.07 0.05 0.04 0.04 0.04 0.04 0.05 0.06 0.07 0.10 0.12 0.13 0.10 0.08 0.10 0.15 0.17 0.18 0.17 0.18 0.19 0.18 0.16 0.14 0.16 0.19 0.21 0.23 0.22 0.22 0.24 0.27 0.31
0.02 0.02 0.04 0.06 0.06 0.07 0.10 0.11 0.09 0.08 0.07 0.05 0.04 0.05 0.05 0.06 0.06 0.06 0.07 0.09 0.12 0.13 0.10 0.09 0.10 0.12 0.16 0.20 0.23 0.23 0.22 0.21 0.17 0.15 0.15 0.17 0.19 0.21 0.22 0.24 0.26 0.28 0.32
0.03 0.03 0.03 0.05 0.06 0.07 0.08 0.09 0.09 0.08 0.09 0.09 0.08 0.06 0.06 0.07 0.07 0.06 0.05 0.06 0.08 0.09 0.08 0.09 0.11 0.15 0.18 0.20 0.23 0.26 0.32 0.32 0.25 0.20 0.18 0.19 0.20 0.22 0.25 0.27 0.30 0.34 0.38
0.03 0.03 0.03 0.05 0.07 0.08 0.08 0.09 0.09 0.08 0.08 0.09 0.09 0.09 0.09 0.08 0.07 0.06 0.06 0.06 0.06 0.07 0.10 0.11 0.13 0.16 0.19 0.20 0.19 0.21 0.24 0.23 0.23 0.23 0.19 0.19 0.21 0.24 0.28 0.32 0.35 0.41 0.46

GEFSGL_prec_meanprecacc_138.txt.gz
Total_Precipitation_Accumulation
0.87 0.93 0.92 0.97 1.07 1.35 1.57 1.51 1.33 1.34 1.38 1.36 1.31 1.40 1.55 1.68 1.78 1.89 1.94 1.96 1.96 2.08 2.03 1.96 2.02 2.13 2.37 2.32 2.32 2.29 2.21 2.09 2.02 1.79 1.45 1.31 1.41 1.44 1.36 1.18 1.04 0.98 0.80
0.71 0.77 0.84 0.86 0.95 1.07 1.19 1.21 1.15 1.08 1.06 1.13 1.18 1.21 1.29 1.47 1.57 1.60 1.63 1.67 1.72 1.82 1.87 1.79 1.81 1.88 2.00 2.19 2.26 2.21 2.22 2.17 2.11 2.04 1.70 1.42 1.31 1.35 1.35 1.37 1.19 1.02 0.86
0.64 0.70 0.77 0.80 0.83 0.84 0.85 0.78 0.82 0.85 0.93 0.99 1.10 1.16 1.26 1.34 1.49 1.50 1.48 1.45 1.49 1.55 1.67 1.71 1.74 1.78 1.79 1.89 1.85 1.93 2.04 2.18 2.22 2.11 1.91 1.65 1.48 1.42 1.37 1.34 1.27 1.20 1.04
0.74 0.81 0.86 0.87 0.87 0.87 0.85 0.81 0.80 0.83 0.89 1.01 1.19 1.25 1.27 1.30 1.31 1.37 1.44 1.40 1.30 1.26 1.31 1.35 1.47 1.58 1.61 1.75 1.70 1.69 1.82 2.03 2.26 2.25 2.08 1.82 1.66 1.59 1.49 1.41 1.41 1.31 1.21
0.65 0.78 0.83 0.86 0.87 0.84 0.78 0.75 0.79 0.76 0.76 0.90 1.06 1.22 1.27 1.27 1.24 1.33 1.39 1.41 1.35 1.20 1.15 1.17 1.21 1.33 1.58 1.65 1.56 1.70 1.83 1.87 1.99 2.09 2.08 1.98 1.78 1.59 1.43 1.33 1.35 1.40 1.35
0.55 0.65 0.81 0.87 0.80 0.76 0.69 0.68 0.71 0.70 0.67 0.76 0.91 1.08 1.17 1.16 1.56 1.56 1.40 1.38 1.35 1.21 1.12 1.11 1.08 1.06 1.26 1.52 1.62 1.68 1.81 1.90 1.90 1.88 1.91 1.84 1.72 1.60 1.59 1.54 1.46 1.39 1.33
0.48 0.60 0.80 0.81 0.70 0.65 0.71 0.75 0.72 0.70 0.70 0.75 0.79 0.81 0.90 1.19 1.24 1.04 1.09 1.15 1.26 1.16 1.04 0.97 0.88 0.86 1.00 1.07 1.20 1.30 1.49 1.79 1.94 1.92 1.76 1.63 1.69 1.60 1.57 1.53 1.48 1.41 1.31
0.41 0.50 0.65 0.68 0.66 0.70 0.70 0.68 0.63 0.59 0.58 0.62 0.64 0.68 0.75 0.90 0.90 0.84 0.94 0.90 1.05 1.05 0.96 0.91 0.89 0.86 0.92 0.97 1.07 1.18 1.21 1.31 1.52 1.55 1.52 1.51 1.54 1.61 1.57 1.55 1.62 1.59 1.54
0.28 0.37 0.46 0.50 0.54 0.57 0.56 0.56 0.52 0.49 0.51 0.52 0.57 0.65 0.73 0.73 0.75 0.74 0.79 0.90 1.05 1.03 0.92 0.93 0.90 0.88 1.04 1.09 1.06 1.09 1.19 1.22 1.36 1.50 1.68 1.63 1.48 1.41 1.44 1.45 1.52 1.55 1.52
0.20 0.27 0.34 0.37 0.41 0.43 0.49 0.51 0.51 0.48 0.46 0.46 0.49 0.54 0.62 0.65 0.77 0.64 0.74 0.92 1.03 1.05 1.03 0.94 1.04 1.03 1.12 1.08 1.02 1.14 1.23 1.12 1.07 1.13 1.26 1.28 1.16 1.13 1.24 1.20 1.30 1.38 1.33
0.11 0.16 0.23 0.30 0.38 0.45 0.51 0.52 0.55 0.52 0.47 0.46 0.54 0.55 0.55 0.64 0.76 0.71 0.74 0.83 1.02 1.05 1.08 1.03 0.92 0.97 0.96 1.01 1.09 1.17 1.37 1.23 1.09 1.12 1.21 1.20 1.07 1.02 1.05 1.09 1.17 1.27 1.26
0.07 0.11 0.18 0.26 0.33 0.42 0.51 0.54 0.54 0.54 0.53 0.54 0.56 0.59 0.57 0.56 0.63 0.67 0.68 0.75 0.86 0.90 0.99 0.96 0.89 0.92 0.79 0.81 0.88 1.04 1.31 1.22 1.08 1.10 1.14 1.14 1.08 1.01 1.04 1.03 1.08 1.13 1.13
0.03 0.06 0.11 0.15 0.20 0.25 0.33 0.41 0.47 0.51 0.53 0.54 0.58 0.67 0.68 0.62 0.65 0.75 0.61 0.58 0.65 0.69 0.71 0.79 0.76 0.75 0.69 0.66 0.76 0.88 1.02 1.16 1.15 1.09 1.02 1.00 1.00 1.00 1.03 0.98 0.97 1.02 1.00
0.02 0.03 0.05 0.06 0.07 0.10 0.20 0.28 0.35 0.42 0.48 0.55 0.62 0.71 0.78 0.73 0.66 0.60 0.52 0.49 0.52 0.50 0.45 0.46 0.48 0.53 0.54 0.57 0.63 0.70 0.83 1.04 1.15 1.07 0.96 0.95 0.97 0.97 0.97 0.89 0.88 0.93 0.94
0.01 0.01 0.02 0.04 0.06 0.08 0.14 0.22 0.27 0.34 0.37 0.41 0.52 0.64 0.68 0.67 0.66 0.71 0.69 0.65 0.61 0.58 0.54 0.48 0.45 0.48 0.55 0.60 0.63 0.64 0.72 0.85 0.93 0.92 0.85 0.81 0.86 0.91 0.92 0.86 0.81 0.82 0.81
0.06 0.03 0.02 0.03 0.06 0.08 0.11 0.13 0.13 0.16 0.17 0.20 0.26 0.30 0.34 0.37 0.39 0.38 0.45 0.52 0.51 0.49 0.61 0.67 0.63 0.65 0.65 0.62 0.64 0.60 0.57 0.62 0.74 0.79 0.80 0.74 0.72 0.77 0.84 0.83 0.80 0.79 0.76
0.14 0.11 0.07 0.05 0.05 0.06 0.07 0.10 0.11 0.07 0.06 0.07 0.09 0.14 0.20 0.22 0.22 0.22 0.25 0.33 0.41 0.46 0.61 0.64 0.57 0.51 0.50 0.48 0.50 0.51 0.51 0.50 0.54 0.63 0.68 0.69 0.66 0.68 0.77 0.83 0.83 0.84 0.83
0.03 0.03 0.05 0.08 0.06 0.04 0.07 0.13 0.19 0.21 0.15 0.08 0.04 0.06 0.11 0.15 0.16 0.18 0.20 0.26 0.28 0.33 0.42 0.49 0.45 0.40 0.35 0.34 0.33 0.32 0.36 0.39 0.42 0.47 0.53 0.57 0.60 0.64 0.69 0.76 0.80 0.79 0.79
0.01 0.03 0.09 0.11 0.06 0.05 0.10 0.18 0.20 0.20 0.18 0.12 0.06 0.04 0.05 0.07 0.09 0.10 0.14 0.19 0.20 0.18 0.21 0.28 0.32 0.31 0.27 0.22 0.18 0.17 0.18 0.19 0.24 0.31 0.39 0.44 0.48 0.53 0.59 0.65 0.70 0.75 0.75
0.03 0.03 0.09 0.15 0.09 0.09 0.11 0.11 0.11 0.13 0.10 0.07 0.06 0.05 0.05 0.07 0.08 0.06 0.07 0.09 0.10 0.10 0.12 0.17 0.19 0.20 0.19 0.17 0.14 0.12 0.12 0.14 0.15 0.19 0.26 0.35 0.39 0.40 0.43 0.49 0.58 0.61 0.61
0.06 0.04 0.04 0.15 0.19 0.15 0.14 0.12 0.13 0.14 0.10 0.06 0.04 0.02 0.03 0.06 0.08 0.07 0.06 0.07 0.09 0.11 0.11 0.12 0.13 0.16 0.15 0.14 0.13 0.13 0.13 0.13 0.12 0.15 0.17 0.21 0.26 0.29 0.32 0.34 0.37 0.43 0.49
0.03 0.04 0.05 0.15 0.20 0.16 0.13 0.13 0.14 0.12 0.09 0.07 0.05 0.03 0.04 0.05 0.07 0.08 0.07 0.08 0.10 0.11 0.10 0.09 0.11 0.14 0.15 0.13 0.12 0.14 0.15 0.14 0.13 0.14 0.16 0.19 0.20 0.21 0.23 0.24 0.27 0.30 0.32
0.03 0.03 0.05 0.09 0.10 0.07 0.08 0.10 0.11 0.11 0.08 0.06 0.05 0.05 0.05 0.06 0.07 0.07 0.09 0.11 0.13 0.13 0.10 0.08 0.10 0.15 0.18 0.18 0.17 0.18 0.19 0.18 0.16 0.14 0.16 0.19 0.21 0.23 0.22 0.22 0.24 0.27 0.31
0.03 0.03 0.05 0.06 0.07 0.08 0.11 0.12 0.10 0.09 0.09 0.07 0.06 0.06 0.07 0.08 0.08 0.07 0.08 0.10 0.13 0.13 0.11 0.09 0.11 0.13 0.16 0.20 0.23 0.23 0.22 0.21 0.17 0.15 0.15 0.17 0.19 0.21 0.22 0.24 0.26 0.28 0.32
0.04 0.04 0.05 0.06 0.07 0.08 0.09 0.10 0.10 0.10 0.11 0.11 0.10 0.08 0.08 0.09 0.10 0.08 0.07 0.08 0.10 0.10 0.09 0.09 0.11 0.15 0.19 0.20 0.23 0.26 0.32 0.32 0.25 0.20 0.18 0.19 0.20 0.22 0.25 0.27 0.30 0.34 0.38
0.04 0.03 0.04 0.06 0.08 0.09 0.09 0.11 0.10 0.10 0.10 0.11 0.12 0.13 0.13 0.12 0.11 0.10 0.10 0.10 0.09 0.09 0.11 0.12 0.13 0.16 0.19 0.20 0.20 0.21 0.24 0.23 0.23 0.23 0.19 0.19 0.21 0.24 0.28 0.32 0.35 0.41 0.46

GEFSGL_prec_meanprecacc_144.txt.gz
Total_Precipitation_Accumulation
0.87 0.93 0.92 0.97 1.07 1.35 1.57 1.51 1.33 1.34 1.39 1.36 1.31 1.41 1.56 1.69 1.79 1.90 1.96 1.97 1.98 2.11 2.06 1.99 2.05 2.16 2.40 2.36 2.37 2.34 2.26 2.15 2.08 1.86 1.50 1.37 1.46 1.51 1.44 1.26 1.10 1.04 0.87
0.71 0.77 0.84 0.86 0.95 1.07 1.19 1.21 1.15 1.08 1.06 1.13 1.18 1.21 1.30 1.47 1.58 1.62 1.64 1.68 1.73 1.84 1.90 1.82 1.84 1.91 2.03 2.23 2.31 2.27 2.28 2.22 2.17 2.12 1.78 1.49 1.38 1.43 1.44 1.46 1.27 1.09 0.94
0.64 0.70 0.77 0.80 0.83 0.84 0.85 0.78 0.82 0.85 0.93 0.99 1.10 1.16 1.26 1.34 1.49 1.51 1.49 1.46 1.50 1.57 1.69 1.74 1.77 1.80 1.82 1.91 1.88 1.98 2.10 2.24 2.28 2.20 2.02 1.74 1.56 1.48 1.44 1.42 1.37 1.31 1.14
0.74 0.82 0.86 0.87 0.87 0.87 0.86 0.81 0.80 0.83 0.89 1.01 1.19 1.25 1.27 1.30 1.32 1.38 1.44 1.41 1.31 1.27 1.33 1.37 1.49 1.61 1.63 1.78 1.74 1.75 1.90 2.11 2.34 2.33 2.17 1.92 1.73 1.65 1.55 1.49 1.52 1.43 1.33
0.66 0.78 0.83 0.86 0.88 0.84 0.78 0.76 0.80 0.77 0.76 0.90 1.06 1.22 1.27 1.27 1.25 1.33 1.40 1.41 1.35 1.20 1.15 1.17 1.22 1.34 1.60 1.69 1.63 1.79 1.93 1.95 2.07 2.16 2.16 2.08 1.87 1.68 1.52 1.41 1.46 1.52 1.48
0.55 0.66 0.81 0.87 0.80 0.76 0.70 0.69 0.72 0.70 0.67 0.76 0.91 1.08 1.17 1.16 1.56 1.56 1.40 1.38 1.35 1.22 1.12 1.11 1.08 1.06 1.28 1.55 1.66 1.73 1.87 1.96 1.97 1.95 2.00 1.94 1.82 1.73 1.72 1.64 1.54 1.50 1.44
0.49 0.61 0.81 0.82 0.70 0.65 0.71 0.76 0.72 0.70 0.70 0.75 0.79 0.81 0.90 1.19 1.24 1.04 1.09 1.15 1.26 1.17 1.05 0.97 0.89 0.87 1.01 1.10 1.24 1.33 1.52 1.81 1.98 1.99 1.84 1.72 1.79 1.72 1.70 1.66 1.59 1.54 1.44
0.41 0.51 0.66 0.69 0.67 0.70 0.70 0.68 0.63 0.59 0.58 0.62 0.64 0.68 0.75 0.90 0.90 0.84 0.94 0.90 1.05 1.05 0.96 0.92 0.90 0.88 0.93 0.98 1.11 1.21 1.24 1.33 1.54 1.59 1.57 1.57 1.60 1.68 1.68 1.67 1.72 1.70 1.68
0.28 0.37 0.47 0.50 0.55 0.57 0.56 0.57 0.53 0.49 0.51 0.53 0.57 0.65 0.73 0.73 0.75 0.74 0.79 0.90 1.06 1.03 0.92 0.93 0.91 0.89 1.05 1.10 1.08 1.12 1.22 1.24 1.37 1.51 1.71 1.68 1.53 1.46 1.51 1.52 1.60 1.62 1.64
0.21 0.27 0.35 0.38 0.42 0.44 0.49 0.52 0.51 0.48 0.46 0.47 0.49 0.54 0.62 0.65 0.77 0.64 0.74 0.93 1.03 1.06 1.03 0.94 1.04 1.03 1.13 1.09 1.03 1.16 1.26 1.13 1.08 1.15 1.28 1.31 1.21 1.17 1.28 1.23 1.34 1.44 1.41
0.11 0.17 0.23 0.31 0.38 0.46 0.51 0.53 0.55 0.53 0.48 0.47 0.54 0.55 0.55 0.64 0.76 0.71 0.74 0.83 1.02 1.05 1.08 1.03 0.92 0.97 0.96 1.01 1.09 1.19 1.38 1.24 1.11 1.14 1.24 1.22 1.10 1.05 1.06 1.10 1.19 1.30 1.31
0.07 0.12 0.18 0.26 0.34 0.42 0.52 0.55 0.54 0.54 0.54 0.55 0.56 0.59 0.57 0.56 0.63 0.67 0.68 0.75 0.86 0.90 0.99 0.96 0.89 0.92 0.79 0.81 0.88 1.04 1.32 1.23 1.09 1.11 1.15 1.17 1.11 1.03 1.05 1.04 1.08 1.14 1.15
0.03 0.07 0.12 0.16 0.20 0.25 0.33 0.41 0.47 0.52 0.53 0.54 0.59 0.67 0.68 0.62 0.65 0.75 0.61 0.58 0.65 0.69 0.71 0.79 0.76 0.75 0.69 0.66 0.76 0.88 1.02 1.16 1.16 1.10 1.03 1.03 1.03 1.02 1.04 0.99 0.98 1.02 1.01
0.02 0.03 0.06 0.07 0.08 0.11 0.20 0.29 0.35 0.43 0.48 0.56 0.62 0.71 0.78 0.73 0.66 0.60 0.52 0.49 0.52 0.50 0.45 0.46 0.48 0.53 0.54 0.57 0.63 0.70 0.84 1.04 1.15 1.08 0.97 0.98 0.99 0.99 0.99 0.90 0.89 0.93 0.94
0.01 0.02 0.03 0.05 0.06 0.09 0.15 0.23 0.28 0.35 0.37 0.42 0.52 0.64 0.68 0.67 0.66 0.71 0.69 0.65 0.61 0.59 0.54 0.48 0.45 0.48 0.55 0.60 0.63 0.64 0.72 0.85 0.94 0.93 0.87 0.83 0.87 0.94 0.93 0.87 0.81 0.82 0.82
0.07 0.03 0.03 0.04 0.07 0.09 0.12 0.14 0.14 0.17 0.17 0.21 0.26 0.31 0.35 0.37 0.39 0.38 0.45 0.52 0.52 0.50 0.61 0.67 0.63 0.65 0.65 0.62 0.64 0.60 0.58 0.63 0.74 0.80 0.80 0.76 0.73 0.79 0.85 0.85 0.82 0.81 0.78
0.15 0.11 0.08 0.06 0.07 0.07 0.08 0.11 0.11 0.08 0.06 0.07 0.09 0.14 0.20 0.22 0.22 0.22 0.26 0.33 0.41 0.46 0.61 0.64 0.57 0.51 0.50 0.48 0.50 0.51 0.51 0.51 0.55 0.64 0.68 0.70 0.66 0.68 0.78 0.84 0.84 0.86 0.85
0.04 0.04 0.05 0.09 0.07 0.06 0.09 0.15 0.20 0.22 0.16 0.08 0.04 0.06 0.11 0.15 0.16 0.18 0.21 0.26 0.28 0.33 0.42 0.49 0.45 0.40 0.35 0.34 0.33 0.32 0.36 0.39 0.42 0.47 0.53 0.57 0.61 0.65 0.69 0.77 0.81 0.79 0.80
0.01 0.04 0.10 0.12 0.07 0.07 0.13 0.20 0.22 0.21 0.20 0.13 0.06 0.04 0.05 0.07 0.09 0.11 0.14 0.19 0.20 0.18 0.21 0.29 0.32 0.31 0.27 0.22 0.18 0.17 0.18 0.19 0.24 0.31 0.39 0.44 0.49 0.54 0.60 0.65 0.70 0.76 0.76
0.03 0.04 0.10 0.16 0.11 0.11 0.14 0.14 0.13 0.15 0.12 0.08 0.07 0.06 0.06 0.07 0.08 0.06 0.07 0.10 0.11 0.11 0.13 0.17 0.20 0.21 0.19 0.17 0.14 0.12 0.12 0.14 0.15 0.19 0.26 0.35 0.39 0.41 0.43 0.50 0.58 0.62 0.61
0.07 0.05 0.06 0.18 0.21 0.17 0.16 0.14 0.15 0.16 0.12 0.07 0.05 0.03 0.05 0.08 0.09 0.08 0.06 0.08 0.10 0.11 0.12 0.13 0.13 0.17 0.16 0.14 0.14 0.14 0.13 0.13 0.13 0.16 0.18 0.22 0.27 0.30 0.32 0.34 0.37 0.43 0.49
0.04 0.06 0.07 0.17 0.22 0.18 0.15 0.15 0.16 0.14 0.11 0.08 0.06 0.04 0.04 0.06 0.08 0.09 0.08 0.09 0.11 0.12 0.11 0.10 0.12 0.16 0.17 0.14 0.13 0.15 0.16 0.15 0.13 0.14 0.17 0.20 0.21 0.22 0.23 0.25 0.28 0.31 0.33
0.04 0.05 0.06 0.11 0.12 0.09 0.10 0.12 0.13 0.13 0.10 0.07 0.06 0.06 0.05 0.06 0.07 0.08 0.10 0.12 0.14 0.15 0.12 0.09 0.12 0.16 0.19 0.19 0.17 0.19 0.19 0.18 0.16 0.15 0.17 0.20 0.22 0.23 0.23 0.23 0.24 0.28 0.32
0.04 0.05 0.06 0.08 0.08 0.10 0.13 0.14 0.11 0.10 0.10 0.08 0.07 0.07 0.08 0.08 0.08 0.08 0.10 0.12 0.15 0.15 0.12 0.11 0.12 0.14 0.18 0.21 0.24 0.24 0.23 0.21 0.17 0.15 0.15 0.17 0.19 0.21 0.22 0.24 0.26 0.28 0.32
0.05 0.05 0.06 0.07 0.08 0.10 0.10 0.12 0.12 0.11 0.12 0.12 0.12 0.09 0.09 0.10 0.11 0.09 0.08 0.10 0.13 0.13 0.12 0.11 0.13 0.17 0.20 0.22 0.24 0.27 0.33 0.33 0.26 0.20 0.18 0.19 0.20 0.22 0.25 0.27 0.30 0.34 0.38
0.05 0.05 0.05 0.08 0.10 0.11 0.11 0.13 0.12 0.11 0.12 0.13 0.13 0.14 0.14 0.13 0.12 0.11 0.11 0.11 0.11 0.12 0.15 0.16 0.16 0.18 0.21 0.22 0.21 0.22 0.25 0.24 0.23 0.23 0.19 0.19 0.21 0.24 0.28 0.32 0.35 0.41 0.46